     2              OBSERVATION DATA    GPS                 RINEX VERSION / TYPE
teqc 1997Sep10 19971010 23:16:41UTC                         PGM / RUN BY / DATE
                                                            COMMENT
Original Marker Name: E122                                  COMMENT
Campaign Name: NGS Salton Trough 1991                       COMMENT
4-Character Station Name: E122                              COMMENT
6-Character Antenna Code: TRMSST                            COMMENT
Vertical Measurement Point: BGP                             COMMENT
Vertical Offset to Rinex Ref. Point: 0.0597                 COMMENT
Radial Measurement Point: NGP                               COMMENT
Radial Offset to Rinex Ref. Point: 0.2334                   COMMENT
Antenna Height from Field Measurement: 1.6560 m             COMMENT
Original XYZ: -2318322.2093 -4839893.6861 3435292.6410      COMMENT
New XYZ position is based on association with SCEC monument COMMENT
E1C8W0P8+0011. Position of that monument is believed to be  COMMENT
valid to within 1 m horizontally; vertical accuracy         COMMENT
should be no worse than 3-times this value.                 COMMENT
                                                            COMMENT
Revised Rinex header created by UCSD GPS archive for        COMMENT
GSAC on 10-Apr-1999 (1999:100) 05:43:01 GMT                 COMMENT
For assistance contact dagnew@ucsd.edu or hjohnson@ucsd.edu COMMENT
                                                            COMMENT
E1223 1979                                                  MARKER NAME
unknown NATIONAL GEODETIC SURVEY                            OBSERVER / AGENCY
484 TRIMBLE 4000 SST NP 4.30 / SP 4.20                      REC # / TYPE / VERS
18 TR 4000SST L1/L2 GEO                                     ANT # / TYPE
 -2318325.0000 -4839899.0000  3435295.0000                  APPROX POSITION XYZ
        1.5798        0.0000        0.0000                  ANTENNA: DELTA H/E/N
     1     1     0                                          WAVELENGTH FACT L1/2
     3    C1    L1    L2                                    # / TYPES OF OBSERV
     0                                                      INTERVAL
  1991     3    20    22     8   15.000000                  TIME OF FIRST OBS
  1991     3    21     3    42   15.000000                  TIME OF LAST OBS
     0                                                      # OF SATELLITES
                                                            END OF HEADER
 91  3 20 22  8 15.0000000  0  4G18G 2G11G19
  20406784.844          -0.69518
  23947562.3364         -0.79855
  23504957.8524         -0.56056
  20892042.227          -0.41717
 91  3 20 22  8 30.0000000  0  4G18G 2G11G19
  20406733.789        -284.723 8
  23936155.5864     -59943.95245
  23496462.7274     -44642.52346
  20888517.305      -18511.181 7
 91  3 20 22  8 45.0000000  0  4G18G 2G11G19
  20406688.6254       -516.90248        -0.17073
  23924743.1954    -119906.84545
  23487973.1804     -89254.75446        -0.39871
  20884991.438      -37047.893 7        -0.09533
 91  3 20 22  9  0.0000000  0  4G18G 2G11G19
  20406659.273        -675.283 8
  23913333.9694    -179867.34145        -0.11771
  23479494.5864    -133814.99246    -34722.53361
  20881462.484      -55588.495 7    -14447.29723
 91  3 20 22  9 15.0000000  0  4G18G 2G11G19
  20406643.555        -747.686 8
  23901924.9694    -239813.24145    -46710.96961
  23471026.547     -178310.708 6    -69394.38921
  20877935.469      -74120.950 7    -28888.14523
 91  3 20 22  9 30.0000000  0  4G18G 2G11G19
  20406654.516        -704.186 8
  23890525.9774    -299714.48745    -93387.01661
  23462577.6644    -222711.62046   -103992.37461
  20874415.648      -92615.561 7    -43299.51423
 91  3 20 22  9 45.0000000  0  4G18G 2G11G19
  20406680.4694       -551.36948
  23879135.328     -359577.555 5   -140033.34121
  23454145.695     -267024.026 6   -138521.38621
  20870902.898     -111078.833 7    -57686.45623
 91  3 20 22 10  0.0000000  0  4G18G 2G11G19
  20406732.7814       -288.32848
  23867752.8594    -419401.20045   -186648.92261
  23445730.5314    -311246.44846   -172980.29961
  20867395.8984    -129509.75847    -72048.18663
 91  3 20 22 10 15.0000000  0  4G18G 2G11G19
  20406805.609          93.613 8       475.48323
  23856373.9694    -479176.69145   -233226.98861
  23437332.2274    -355369.96546   -207362.13861
  20863898.469     -147899.723 7    -86378.00623
 91  3 20 22 10 30.0000000  0  4G18G 2G11G19
  20406896.133         581.220 8       855.42423
  23845006.555     -538917.260 5   -279777.85121
  23428953.8134    -399407.67646   -241677.11061
  20860401.367     -166262.284 7   -100686.47423
 91  3 20 22 10 45.0000000  0  4G18G 2G11G19
  20407008.883        1173.221 8      1316.70323
  23833644.461     -598623.969 5   -326302.33421
  23420587.5554    -443360.35246   -275925.82761
  20856911.781     -184598.653 7   -114974.53323
 91  3 20 22 11  0.0000000  0  4G18G 2G11G19
  20407145.250        1881.840 8      1868.85823
  23822292.125     -658284.255 5   -372790.63821
  23412242.4224    -487215.37446   -310098.44561
  20853430.648     -202896.312 7   -129232.43223
 91  3 20 22 11 15.0000000  0  4G18G 2G11G19
  20407296.609        2689.429 8      2498.13023
  23810947.4694    -717915.49045   -419256.32061
  23403914.8914    -530989.75946   -344208.22261
  20849954.313     -221172.964 7   -143473.96123
 91  3 20 22 11 30.0000000  0  4G18G 2G11G19
  20407476.125        3625.895 8      3227.82523
  23799608.820     -777487.779 5   -465676.05821
  23395603.688     -574653.243 6   -378231.58421
  20846483.609     -239398.709 7   -157675.82223
 91  3 20 22 11 45.0000000  0  4G18G 2G11G19
  20407675.938        4673.777 8      4044.33523
  23788280.219     -837018.388 5   -512063.32921
  23387312.2974    -618223.15846   -412182.04161
  20843023.547     -257591.151 7   -171851.73523
 91  3 20 22 12  0.0000000  0  4G18G 2G11G19
  20407892.227        5810.995 8      4930.46423
  23776956.117     -896529.279 5   -558435.23421
  23379036.4534    -661721.05246   -446076.37961
  20839562.523     -275772.176 7   -186018.75023
 91  3 20 22 12 15.0000000  0  4G18G 2G11G19
  20408129.055        7048.760 8      5894.93723
  23765638.1954    -956009.27745   -604783.06461
  23370774.8834    -705135.63246   -479905.79861
  20836108.664     -293930.924 7   -200168.39823
 91  3 20 22 12 29.9990000  0  4G18G 2G11G19
  20408385.737        8406.753 8      6953.09823
  23754330.4564   -1015434.30045   -651088.06361
  23362532.026     -748443.823 6   -513652.32621
  20832659.753     -312046.518 7   -214284.42323
 91  3 20 22 12 44.9990000  0  4G18G 2G11G19
  20408668.980        9887.159 8      8106.64223
  23743029.2304   -1074810.16545   -697354.74861
  23354312.4874    -791649.05446   -547318.62961
  20829222.362     -330119.139 7   -228366.96123
 91  3 20 22 12 59.9990000  0  4G18G 2G11G19
  20408971.151       11480.095 8      9347.87823
  23731739.558    -1134142.614 5   -743587.60421
  23346108.7144    -834757.93746   -580909.83961
  20825788.6514    -348157.43247   -242422.74863
 91  3 20 22 13 14.9990000  0  4G18G 2G11G19
  20409298.737       13206.601 8     10693.19023
  23720460.7144   -1193410.16945   -789769.90261
  23337926.5654    -877748.58646   -614408.92761
  20822367.4874    -366140.01947   -256435.12564
 91  3 20 22 13 29.9990000  0  4G18G 2G11G19
  20409648.261       15036.050 8     12118.70823
  23709188.8234   -1252643.62745   -835925.63961
  23329761.542     -920651.764 6   -647839.82821
  20818949.612     -384097.873 7   -270428.23523
 91  3 20 22 13 44.9990000  0  4G18G 2G11G19
  20410017.565       16976.882 8     13631.03123
  23697923.0814   -1311834.23945   -882047.97961
  23321615.8314    -963458.44346   -681195.55761
  20815540.628     -402022.428 7   -284395.39523
 91  3 20 22 13 59.9990000  0  4G18G 2G11G19
  20410408.269       19026.210 8     15227.88623
  23686669.386    -1370984.479 5   -928138.87521
  23313489.4954   -1006171.07446   -714477.99261
  20812133.245     -419916.531 7   -298338.83423
 91  3 20 22 14 14.9990000  0  4G18G 2G11G19
  20410818.472       21180.629 8     16906.63723
  23675419.987    -1430097.812 5   -974200.97221
  23305378.4254   -1048792.99446   -747689.75661
  20808735.386     -437783.679 7   -312261.26023
 91  3 20 22 14 29.9990000  0  4G18G 2G11G19
  20411247.487       23442.498 8     18669.11023
  23664178.534    -1489171.757 5  -1020232.40321
  23297285.698    -1091321.267 6   -780828.55221
  20805338.417     -455621.493 7   -326160.83423
 91  3 20 22 14 44.9990000  0  4G18G 2G11G19
  20411703.105       25834.399 8     20532.91123
  23652948.386    -1548183.579 5  -1066215.41621
  23289212.159    -1133733.059 6   -813876.59021
  20801956.7764    -473407.54047   -340020.06563
 91  3 20 22 14 59.9990000  0  4G18G 2G11G19
  20412178.9014      28334.23348     22480.82263
  23641727.120    -1607154.898 5  -1112166.87321
  23281162.565    -1176049.784 6   -846850.55621
  20798575.011     -491163.432 7   -353855.80223
 91  3 20 22 15 14.9990000  0  4G18G 2G11G19
  20412677.175       30954.134 8     24522.28623
  23630515.7374   -1666073.70445  -1158077.41761
  23273129.5034   -1218259.23646   -879740.92261
  20795204.308     -508877.280 7   -367658.77523
 91  3 20 22 15 29.9990000  0  4G18G 2G11G19
  20413199.628       33698.083 8     26660.41023
  23619315.3474   -1724935.85045  -1203943.80261
  23265118.331    -1260357.010 6   -912544.27621
  20791844.0974    -526545.10747   -381425.88363
 91  3 20 22 15 44.9990000  0  4G18G 2G11G19
  20413744.878       36567.153 8     28896.02923
  23608121.6984   -1783739.94445  -1249764.97861
  23257127.7534   -1302341.58446   -945259.40461
  20788489.425     -544165.732 7   -395156.21823
 91  3 20 22 15 59.9990000  0  4G18G 2G11G19
  20414315.089       39558.248 8     31226.73123
  23596943.6834   -1842488.98645  -1295543.21661
  23249160.6284   -1344215.68046   -977888.45261
  20785143.058     -561742.308 7   -408852.22523
 91  3 20 22 16 14.9990000  0  4G18G 2G11G19
  20414901.675       42643.199 8     33630.56723
  23585769.4724   -1901211.03445  -1341300.42561
  23241206.276    -1386007.247 6  -1010453.17721
  20781803.5114    -579303.11347   -422535.94363
 91  3 20 22 16 29.9990000  0  4G18G 2G11G19
  20415513.144       45851.659 8     36130.64123
  23574605.128    -1959876.321 5  -1387013.41021
  23233276.6124   -1427686.18646  -1042930.15361
  20778472.909     -596818.438 7   -436184.22023
 91  3 20 22 16 44.9990000  0  4G18G 2G11G19
  20416149.659       49197.469 8     38737.74923
  23563455.862    -2018470.857 5  -1432671.26521
  23225369.0504   -1469238.39546  -1075308.38261
  20775148.964     -614274.405 7   -449786.25123
 91  3 20 22 16 59.9990000  0  4G18G 2G11G19
  20416814.730       52691.087 8     41460.02423
  23552322.175    -2076983.626 5  -1478265.39621
  23217489.706    -1510652.787 6  -1107579.22021
  20771843.308     -631660.397 7   -463333.75823
 91  3 20 22 17 14.9990000  0  4G18G 2G11G19
  20417500.831       56300.891 8     44272.84023
  23541195.9254   -2135446.48945  -1523820.65061
  23209627.175    -1551960.838 6  -1139767.20921
  20768539.7764    -649008.29447   -476851.57263
 91  3 20 22 17 29.9990000  0  4G18G 2G11G19
  20418212.808       60035.466 8     47182.87323
  23530078.519    -2193850.401 5  -1569329.95521
  23201789.565    -1593153.430 6  -1171865.22321
  20765247.2374    -666309.29046   -490332.83663
 91  3 20 22 17 44.9990000  0  4G18G 2G11G19
  20418945.480       63886.608 8     50183.74723
  23518975.847    -2252203.561 5  -1614799.73021
  23193970.323    -1634238.481 6  -1203879.42821
  20761961.144     -683571.688 6   -503784.03223
 91  3 20 22 17 59.9990000  0  4G18G 2G11G19
  20419698.065       67851.046 8     53272.90123
  23507878.7304   -2310509.16145  -1660232.42461
  23186170.6904   -1675219.02746  -1235812.20961
  20758682.933     -700798.644 7   -517207.61323
 91  3 20 22 18 14.9990000  0  4G18G 2G11G19
  20420479.511       71953.706 8     56469.75823
  23496799.222    -2368741.834 5  -1705608.28321
  23178397.4644   -1716069.52346  -1267643.63261
  20755417.206     -717965.157 7   -530584.09223
 91  3 20 22 18 29.9990000  0  4G18G 2G11G19
  20421283.456       76175.310 8     59759.29723
  23485730.839    -2426921.012 5  -1750942.47521
  23170646.542    -1756809.229 6  -1299388.75221
  20752155.987     -735090.684 7   -543928.63823
 91  3 20 22 18 44.9990000  0  4G18G 2G11G19
  20422110.159       80521.846 8     63146.18723
  23474668.1674   -2485040.21845  -1796229.93261
  23162915.9174   -1797431.47246  -1331042.32361
  20748908.878     -752168.858 7   -557236.28623
 91  3 20 22 18 59.9990000  0  4G18G 2G11G19
  20422959.284       84982.473 8     66621.97523
  23463617.198    -2543110.266 5  -1841479.10421
  23155204.0504   -1837946.91346  -1362612.68061
  20745663.128     -769210.681 7   -570515.60323
 91  3 20 22 19 14.9990000  0  4G18G 2G11G19
  20423832.550       89570.466 8     70197.01223
  23452578.4954   -2601117.94445  -1886679.65561
  23147516.3554   -1878341.84346  -1394089.13261
  20742430.612     -786202.946 7   -583756.31023
 91  3 20 22 19 29.9990000  0  4G18G 2G11G19
  20424728.448       94280.718 8     73867.31723
  23441548.7064   -2659067.76245  -1931835.11461
  23139855.034    -1918620.858 6  -1425475.26421
  20739208.714     -803150.567 6   -596962.23023
 91  3 20 22 19 44.9990000  0  4G18G 2G11G19
  20425641.776       99079.400 8     77606.52423
  23430529.4334   -2716993.53845  -1976971.84661
  23132204.667    -1958817.658 6  -1456797.34021
  20735983.206     -820087.442 7   -610159.77123
 91  3 20 22 19 59.9990000  0  4G18G 2G11G19
  20426577.347      103998.667 8     81439.70023
  23419515.276    -2774862.706 5  -2022064.45521
  23124576.9954   -1998899.57546  -1488029.87761
  20732767.714     -836981.166 7   -623323.69423
 91  3 20 22 20 14.9990000  0  4G18G 2G11G19
  20427534.331      109022.404 8     85354.27623
  23408513.0584   -2832691.17745  -2067125.36261
  23116968.1754   -2038882.24246  -1519185.07961
  20729559.628     -853847.810 7   -636466.51423
 91  3 20 22 20 29.9990000  0  4G18G 2G11G19
  20428515.308      114181.315 8     89374.18223
  23397517.855    -2890448.293 5  -2112130.67121
  23109386.8864   -2078734.83146  -1550238.93061
  20726361.956     -870656.915 7   -649564.49623
 91  3 20 22 20 44.9990000  0  4G18G 2G11G19
  20429521.331      119464.559 8     93490.97423
  23386537.948    -2948144.846 5  -2157088.79821
  23101822.714    -2118467.797 6  -1581199.57221
  20723170.823     -887419.136 7   -662625.94423
 91  3 20 22 20 59.9990000  0  4G18G 2G11G19
  20430550.175      124872.516 8     97704.94323
  23375571.7144   -3005780.41545  -2201999.38961
  23094283.862    -2158080.602 6  -1612066.58221
  20719989.964     -904134.287 7   -675650.72023
 91  3 20 22 21 14.9990000  0  4G18G 2G11G19
  20431603.519      130401.430 8    102013.16223
  23364616.230    -3063358.189 5  -2246864.96521
  23086770.190    -2197576.200 6  -1642842.27521
  20716817.6834    -920805.70447   -688641.42163
 91  3 20 22 21 29.9990000  0  4G18G 2G11G19
  20432678.019      136052.578 8    106416.63823
  23353670.401    -3120876.955 5  -2291684.56421
  23079275.644    -2236952.910 6  -1673525.32221
  20713654.026     -937432.109 7   -701597.04723
 91  3 20 22 21 44.9990000  0  4G18G 2G11G19
  20433775.050      141816.792 8    110908.20623
  23342734.4174   -3178345.65246  -2336465.14661
  23071803.761    -2276219.779 6  -1704122.78121
  20710497.401     -954022.765 7   -714524.81623
 91  3 20 22 21 59.9990000  0  4G18G 2G11G19
  20434895.792      147708.503 8    115499.13323
  23331811.940    -3235749.552 6  -2381195.23121
  23064357.4954   -2315361.94446  -1734623.06861
  20707348.7614    -970563.16447   -727413.43063
 91  3 20 22 22 14.9990000  0  4G18G 2G11G19
  20436041.253      153731.692 8    120192.50323
  23320899.683    -3293084.574 5  -2425871.63721
  23056929.980    -2354375.127 6  -1765022.85321
  20704212.651     -987049.211 7   -740259.68623
 91  3 20 22 22 29.9990000  0  4G18G 2G11G19
  20437212.526      159882.960 8    124985.67523
  23310000.511    -3350353.901 5  -2470496.86421
  23049531.9724   -2393262.28746  -1795324.42761
  20701084.2224   -1003484.41547   -753066.32463
 91  3 20 22 22 44.9990000  0  4G18G 2G11G19
  20438403.425      166141.775 8    129862.65323
  23299114.0264   -3407577.74746  -2515086.66061
  23042151.5974   -2432043.53646  -1825543.48561
  20697962.6984   -1019889.11547   -765849.19463
 91  3 20 22 22 59.9990000  0  4G18G 2G11G19
  20439618.776      172528.271 8    134839.12023
  23288235.2844   -3464735.72145  -2559625.13061
  23034797.1444   -2470698.21346  -1855663.91661
  20694848.581    -1036242.958 7   -778592.43423
 91  3 20 22 23 14.9990000  0  4G18G 2G11G19
  20440855.2534     179021.13648    139898.46863
  23277368.3554   -3521849.05846  -2604128.81661
  23027459.8084   -2509247.46146  -1885702.20161
  20691744.190    -1052567.363 7   -791312.73523
 91  3 20 22 23 29.9990000  0  4G18G 2G11G19
  20442114.401      185642.685 8    145058.08523
  23266512.1754   -3578895.44346  -2648580.33261
  23020148.3474   -2547668.62446  -1915640.68861
  20688646.0584   -1068839.96047   -803992.67463
 91  3 20 22 23 44.9990000  0  4G18G 2G11G19
  20443396.3084     192376.34648    150305.06963
  23255664.9874   -3635891.13846  -2692992.34561
  23012859.5654   -2585978.04046  -1945492.08561
  20685558.276    -1085077.385 7   -816645.19423
 91  3 20 22 23 59.9990000  0  4G18G 2G11G19
  20444701.886      199235.425 8    155649.78323
  23244830.2614   -3692822.72946  -2737354.42561
  23005592.5584   -2624161.89146  -1975245.64061
  20682476.651    -1101266.172 7   -829259.81723
 91  3 20 22 24 14.9990000  0  4G18G 2G11G19
  20446030.089      206218.904 8    161091.43123
  23234010.2454   -3749690.76046  -2781666.95761
  22998349.6054   -2662220.53746  -2004901.64761
  20679405.956    -1117407.085 7   -841837.13223
 91  3 20 22 24 29.9990000  0  4G18G 2G11G19
  20447378.7454     213311.29648    166617.94363
  23223199.073    -3806510.849 6  -2825942.15321
  22991127.8944   -2700169.51846  -2034472.18961
  20676337.581    -1133516.010 7   -854389.53023
 91  3 20 22 24 44.9990000  0  4G18G 2G11G19
  20448751.5344     220519.23148    172234.49063
  23212395.8004   -3863276.19746  -2870174.68261
  22983931.3624   -2738001.78046  -2063951.79361
  20673281.347    -1149585.994 7   -866911.58223
 91  3 20 22 24 59.9990000  0  4G18G 2G11G19
  20450146.0344     227845.65948    177943.36363
  23201603.3944   -3919983.42846  -2914361.94261
  22976754.9804   -2775713.73646  -2093337.64661
  20670230.1904   -1165613.84647   -879400.80563
 91  3 20 22 25 14.9990000  0  4G18G 2G11G19
  20451561.3474     235285.55648    183740.65363
  23190820.511    -3976637.476 5  -2958507.74721
  22969597.5034   -2813310.22946  -2122633.51161
  20667189.261    -1181604.638 7   -891861.14823
 91  3 20 22 25 29.9990000  0  4G18G 2G11G19
  20453001.1204     242847.72948    189633.22663
  23180052.0584   -4033229.16646  -3002604.95861
  22962465.5734   -2850782.00746  -2151832.22461
  20664155.144    -1197549.443 7   -904285.65823
 91  3 20 22 25 44.9990000  0  4G18G 2G11G19
  20454462.1754     250529.17548    195618.74363
  23169296.245    -4089761.351 6  -3046655.82121
  22955359.503    -2888131.604 6  -2180935.69821
  20661128.636    -1213451.006 7   -916676.47023
 91  3 20 22 25 59.9990000  0  4G18G 2G11G19
  20455948.2614     258336.97548    201702.70763
  23158550.6514   -4146227.01746  -3090654.83461
  22948277.5114   -2925351.85546  -2209938.39761
  20658111.042    -1229302.538 7   -929028.30323
 91  3 20 22 26 14.9990000  0  4G18G 2G11G19
  20457455.9014     266261.40248    207877.56263
  23147816.956    -4202635.421 6  -3134609.23621
  22941216.4644   -2962451.91546  -2238847.45061
  20655103.909    -1245113.469 7   -941348.49623
 91  3 20 22 26 29.9990000  0  4G18G 2G11G19
  20458988.8704     274313.11848    214151.59763
  23137094.487    -4258975.856 6  -3178510.67121
  22934182.597    -2999420.876 6  -2267654.35621
  20652104.081    -1260873.121 7   -953628.72523
 91  3 20 22 26 44.9990000  0  4G18G 2G11G19
  20460541.8314     282477.55248    220513.46363
  23126381.792    -4315262.851 6  -3222370.46321
  22927169.315    -3036273.073 6  -2296370.27721
  20649113.245    -1276596.158 7   -965880.42023
 91  3 20 22 26 59.9990000  0  4G18G 2G11G19
  20462118.2374     290763.22448    226969.80263
  23115684.1204   -4371487.66846  -3266181.82261
  22920180.5114   -3072999.61046  -2324988.27161
  20646128.956    -1292273.990 7   -978096.89623
 91  3 20 22 27 14.9990000  0  4G18G 2G11G19
  20463718.1514     299166.16748    233517.51863
  23104995.315    -4427653.864 6  -3309947.48821
  22913214.315    -3109603.759 6  -2353510.90021
  20643154.245    -1307910.189 7   -990280.93223
 91  3 20 22 27 29.9990000  0  4G18G 2G11G19
  20465338.8314     307685.71848    240156.09463
  23094314.526    -4483761.979 6  -3353667.89921
  22906272.5194   -3146085.96646  -2381938.50961
  20640184.331    -1323505.537 7  -1002433.13223
 91  3 20 22 27 44.9990000  0  4G18G 2G11G19
  20466983.1054     316327.20748    246889.69763
  23083653.323    -4539806.401 6  -3397338.67721
  22899354.0034   -3182440.43646  -2410266.57461
  20637228.019    -1339054.568 7  -1014549.23823
 91  3 20 22 27 59.9990000  0  4G18G 2G11G19
  20468651.6284     325094.25748    253721.13163
  23073001.503    -4595783.331 6  -3440956.87021
  22892460.206    -3218663.255 6  -2438492.06721
  20634279.534    -1354553.565 7  -1026626.36623
 91  3 20 22 28 14.9990000  0  4G18G 2G11G19
  20470343.5264     333986.74648    260650.31463
  23062363.245    -4651692.727 6  -3484522.44521
  22885594.9724   -3254754.13246  -2466614.73861
  20631338.565    -1370002.640 7  -1038664.58823
 91  3 20 22 28 29.9990000  0  4G18G 2G11G19
  20472061.6594     343010.63548    267681.89063
  23051737.394    -4707528.378 6  -3528030.55121
  22878750.456    -3290706.720 6  -2494629.65321
  20628406.745    -1385395.546 7  -1050659.04223
 91  3 20 22 28 44.9990000  0  4G18G 2G11G19
  20473800.7614     352152.71948    274805.55863
  23041122.7374   -4763303.59746  -3571491.57461
  22871933.573    -3326534.003 6  -2522546.93021
  20625488.120    -1400745.576 7  -1062620.09423
 91  3 20 22 28 59.9990000  0  4G18G 2G11G19
  20475561.0974     361402.56348    282013.20163
  23030518.284    -4819028.354 6  -3614913.26221
  22865138.714    -3362245.977 6  -2550374.37121
  20622575.6514   -1416062.99447  -1074555.73463
 91  3 20 22 29 14.9990000  0  4G18G 2G11G19
  20477345.620      370778.555 8    289319.14123
  23019928.011    -4874684.130 6  -3658281.20821
  22858367.284    -3397823.970 6  -2578097.40521
  20619668.2304   -1431329.45047  -1086451.66163
 91  3 20 22 29 29.9990000  0  4G18G 2G11G19
  20479151.9014     380275.55048    296719.36263
  23009347.7924   -4930275.86346  -3701599.25561
  22851621.589    -3433272.811 6  -2605719.79421
  20616773.980    -1446549.898 7  -1098311.73323
 91  3 20 22 29 44.9990000  0  4G18G 2G11G19
  20480982.1984     389893.77148    304214.05163
  22998781.800    -4985802.879 6  -3744866.86721
  22844901.784    -3468591.620 6  -2633240.86521
  20613885.0894   -1461723.82347  -1110135.55763
 91  3 20 22 29 59.9990000  0  4G18G 2G11G19
  20482836.2304     399633.40648    311803.34463
  22988230.3154   -5041265.02546  -3788083.93461
  22838204.245    -3503780.003 6  -2660660.30721
  20611007.034    -1476851.214 7  -1121923.11523
 91  3 20 22 30 14.9990000  0  4G18G 2G11G19
  20484710.3314     409484.67448    319479.61963
  22977687.0584   -5096671.67846  -3831257.77561
  22831532.8234   -3538847.37146  -2687985.45661
  20608134.081    -1491941.688 7  -1133681.90323
 91  3 20 22 30 29.9990000  0  4G18G 2G11G19
  20486609.0264     419457.52548    327250.64363
  22967154.1284   -5152012.82246  -3874380.56561
  22824883.706    -3573783.485 6  -2715208.32321
  20605269.4874   -1506985.19347  -1145404.10363
 91  3 20 22 30 44.9990000  0  4G18G 2G11G19
  20488530.4404     429554.21948    335118.15963
  22956633.2374   -5207286.32746  -3917450.63661
  22818263.167    -3608585.835 6  -2742326.96321
  20602418.1284   -1521979.57746  -1157088.03163
 91  3 20 22 30 59.9990000  0  4G18G 2G11G19
  20490474.2144     439773.86648    343081.48563
  22946128.565    -5262492.453 6  -3960468.21221
  22811664.198    -3643254.729 6  -2769341.60021
  20599573.237    -1536925.345 7  -1168734.06223
 91  3 20 22 31 14.9990000  0  4G18G 2G11G19
  20492441.4644     450109.88748    351135.49663
  22935635.495    -5317637.664 6  -4003438.31221
  22805092.120    -3677796.380 6  -2796257.09521
  20596739.0894   -1551828.93747  -1180347.23663
 91  3 20 22 31 29.9990000  0  4G18G 2G11G19
  20494430.0584     460554.72648    359274.30663
  22925152.3704   -5372729.27346  -4046366.65661
  22798541.3554   -3712217.75446  -2823078.87461
  20593906.3004   -1566697.65547  -1191933.24163
 91  3 20 22 31 44.9990000  0  4G18G 2G11G19
  20496442.5734     471130.06448    367514.79263
  22914683.026    -5427745.777 6  -4089236.46721
  22792017.058    -3746497.407 6  -2849790.21721
  20591088.964    -1581510.358 6  -1203475.59323
 91  3 20 22 31 59.9990000  0  4G18G 2G11G19
  20498477.1364     481829.06948    375851.64763
  22904227.2924   -5482693.45946  -4132052.65861
  22785518.667    -3780641.415 6  -2876395.86321
  20588283.8944   -1596273.36946  -1214979.22563
 91  3 20 22 32 14.9990000  0  4G18G 2G11G19
  20500535.7614     492642.22748    384277.46063
  22893779.7064   -5537581.64446  -4174822.49661
  22779045.808    -3814658.959 6  -2902902.96121
  20585477.730    -1610996.293 6  -1226451.62023
 91  3 20 22 32 29.9990000  0  4G18G 2G11G19
  20502616.0424     503576.29548    392797.47663
  22883348.0974   -5592403.27346  -4217540.46461
  22772598.5344   -3848542.86046  -2929305.93661
  20582683.745    -1625672.013 7  -1237887.22623
 91  3 20 22 32 44.9990000  0  4G18G 2G11G19
  20504719.1364     514623.64448    401405.77063
  22872927.1514   -5647165.93246  -4260212.48561
  22766172.565    -3882300.533 6  -2955610.53921
  20579900.737    -1640307.885 6  -1249291.78823
 91  3 20 22 32 59.9990000  0  4G18G 2G11G19
  20506841.9724     525777.52748    410097.07363
  22862516.4724   -5701876.24646  -4302843.71061
  22759772.9874   -3915938.35146  -2981821.76561
  20577121.925    -1654910.831 6  -1260670.69123
 91  3 20 22 33 14.9990000  0  4G18G 2G11G19
  20508986.4874     537051.14848    418881.67463
  22852119.620    -5756520.668 6  -4345423.60221
  22753397.3004   -3949442.70346  -3007928.99261
  20574352.542    -1669467.523 6  -1272013.55323
 91  3 20 22 33 29.9990000  0  4G18G 2G11G19
  20511155.4484     548451.59748    427765.10563
  22841734.6904   -5811091.63546  -4387946.25161
  22747047.5974   -3982806.05346  -3033926.34061
  20571589.9404   -1683970.49246  -1283314.55663
 91  3 20 22 33 44.9990000  0  4G18G 2G11G19
  20513349.3624     559976.80348    436745.75263
  22831362.2924   -5865591.18446  -4430413.24761
  22740725.855    -4016030.066 6  -3059815.11421
  20568842.581    -1698421.750 6  -1294575.26223
 91  3 20 22 33 59.9990000  0  4G18G 2G11G19
  20515565.2374     571620.04848    445818.37163
  22821004.644    -5920025.647 6  -4472829.54121
  22734427.995    -4049121.111 6  -3085600.28821
  20566100.362    -1712827.931 7  -1305800.84023
 91  3 20 22 34 14.9990000  0  4G18G 2G11G19
  20517804.6904     583393.30048    454992.31163
  22810658.011    -5974383.219 6  -4515185.92821
  22728160.1674   -4082067.15146  -3111272.46661
  20563370.628    -1727177.278 6  -1316982.13523
 91  3 20 22 34 29.9990000  0  4G18G 2G11G19
  20520068.6364     595285.26448    464258.73963
  22800326.5734   -6028674.85846  -4557490.92061
  22721916.3154   -4114879.03146  -3136840.10461
  20560645.800    -1741480.812 6  -1328127.72823
 91  3 20 22 34 44.9990000  0  4G18G 2G11G19
  20522353.6904     607293.59248    473615.84363
  22790007.925    -6082902.713 6  -4599746.22021
  22715695.8314   -4147558.54046  -3162304.60361
  20557934.433    -1755740.343 6  -1339239.03623
 91  3 20 22 34 59.9990000  0  4G18G 2G11G19
  20524662.3474     619427.99048    483071.18363
  22779703.5584   -6137056.99146  -4641944.17261
  22709504.3474   -4180095.71046  -3187658.18061
  20555230.456    -1769946.398 6  -1350308.67123
 91  3 20 22 35 14.9990000  0  4G18G 2G11G19
  20526992.8624     631673.54348    492613.13963
  22769410.464    -6191152.151 6  -4684096.07021
  22703336.2144   -4212505.01646  -3212912.11761
  20552535.706    -1784113.713 6  -1361348.11923
 91  3 20 22 35 29.9990000  0  4G18G 2G11G19
  20529345.7454     644037.28148    502247.18163
  22759130.1444   -6245181.04146  -4726196.33461
  22697195.2534   -4244779.10946  -3238060.69261
  20549846.7924   -1798235.26446  -1372351.91563
 91  3 20 22 35 44.9990000  0  4G18G 2G11G19
  20531719.6754     656510.39948    511966.45663
  22748857.230    -6299152.245 6  -4768251.65421
  22691080.1984   -4276926.52046  -3263110.56161
  20547167.6754   -1812319.62946  -1383326.73763
 91  3 20 22 35 59.9990000  0  4G18G 2G11G19
  20534114.0814     669094.78548    521772.43763
  22738597.784    -6353063.585 6  -4810260.32321
  22684985.3234   -4308944.91046  -3288059.88561
  20544494.300    -1826364.783 6  -1394270.99923
 91  3 20 22 36 14.9990000  0  4G18G 2G11G19
  20536532.3784     681799.58648    531672.24763
  22728351.667    -6406905.877 6  -4852215.19021
  22678920.2454   -4340824.73146  -3312901.24561
  20541832.230    -1840361.538 6  -1405177.54923
 91  3 20 22 36 29.9990000  0  4G18G 2G11G19
  20538971.003      694615.357 8    541658.52223
  22718119.722    -6460688.357 6  -4894123.44921
  22672877.7924   -4372575.21246  -3337641.82261
  20539175.8624   -1854318.99646  -1416053.47763
 91  3 20 22 36 44.9990000  0  4G18G 2G11G19
  20541427.8864     707533.46148    551724.53963
  22707891.5114   -6514419.26446  -4935991.52661
  22666858.3554   -4404204.43446  -3362287.90661
  20536525.519    -1868245.599 6  -1426905.35823
 91  3 20 22 36 59.9990000  0  4G18G 2G11G19
  20543911.4484     720576.02948    561887.53963
  22697682.136    -6568076.214 6  -4977801.96321
  22660867.4724   -4435689.94346  -3386822.00561
  20533883.644    -1882119.161 6  -1437715.91223
 91  3 20 22 37 14.9990000  0  4G18G 2G11G19
  20546412.3394     733729.34048    572136.83363
  22687484.0504   -6621672.71846  -5019565.32261
  22654901.550    -4467045.081 6  -3411254.51021
  20531253.933    -1895953.283 7  -1448495.73523
 91  3 20 22 37 29.9990000  0  4G18G 2G11G19
  20548937.9954     746988.54548    582468.64563
  22677296.433    -6675213.634 6  -5061285.34721
  22648957.5584   -4498274.56246  -3435589.11061
  20528626.237    -1909752.794 6  -1459248.58323
 91  3 20 22 37 44.9990000  0  4G18G 2G11G19
  20551482.230      760360.407 8    592888.23623
  22667117.886    -6728691.679 6  -5102956.38921
  22643039.5654   -4529371.15646  -3459820.15661
  20526009.8474   -1923510.71446  -1469969.02763
 91  3 20 22 37 59.9990000  0  4G18G 2G11G19
  20554048.1124     773848.59648    603398.47263
  22656954.9954   -6782103.29446  -5144575.67761
  22637149.6904   -4560331.00846  -3483944.65361
  20523398.1674   -1937223.46446  -1480654.28063
 91  3 20 22 38 14.9990000  0  4G18G 2G11G19
  20556641.605      787477.135 8    614018.07323
  22646806.5194   -6835424.06246  -5186124.16761
  22631287.0734   -4591129.48646  -3507943.40761
  20520803.0814   -1950866.38646  -1491285.11863
 91  3 20 22 38 29.9990000  0  4G18G 2G11G19
  20559255.401      801213.460 8    624721.65423
  22636672.620    -6888686.491 6  -5227627.19721
  22625452.8084   -4621799.18946  -3531841.82061
  20518212.753    -1964472.378 6  -1501887.17523
 91  3 20 22 38 44.9990000  0  4G18G 2G11G19
  20561891.698      815066.375 8    635516.08923
  22626547.4334   -6941881.42746  -5269077.64961
  22619641.003    -4652330.743 6  -3555632.59121
  20515633.261    -1978032.288 6  -1512453.32823
 91  3 20 22 38 59.9990000  0  4G18G 2G11G19
  20564549.128      829032.787 8    646398.96123
  22616438.7694   -6995011.60046  -5310477.62561
  22613858.4954   -4682726.67046  -3579317.66061
  20513058.8394   -1991548.79046  -1522985.65863
 91  3 20 22 39 14.9990000  0  4G18G 2G11G19
  20567232.198      843130.508 8    657384.15423
  22606342.8234   -7048058.88446  -5351813.01561
  22608103.4404   -4712968.81146  -3602882.89961
  20510500.5814   -2005004.12546  -1533470.32663
 91  3 20 22 39 29.9990000  0  4G18G 2G11G19
  20569935.151      857336.328 8    668453.58023
  22596259.730    -7101046.572 6  -5393101.96121
  22602373.2844   -4743080.01146  -3626346.10861
  20507945.5654   -2018421.41846  -1543925.34763
 91  3 20 22 39 44.9990000  0  4G18G 2G11G19
  20572657.534      871641.458 8    679600.39023
  22586185.4484   -7153983.36946  -5434351.26261
  22596665.1834   -4773068.94146  -3649714.04161
  20505401.550    -2031809.396 6  -1554357.52923
 91  3 20 22 39 59.9980000  0  4G18G 2G11G19
  20575401.5374     886066.44548    690840.60063
  22576127.615    -7206843.768 6  -5475541.02221
  22590989.272    -4802911.594 6  -3672968.00421
  20502861.475    -2045145.357 6  -1564749.17123
 91  3 20 22 40 14.9980000  0  4G18G 2G11G19
  20578169.701      900605.168 8    702169.43023
  22566078.6154   -7259642.50646  -5516682.73961
  22585333.256    -4832619.660 6  -3696117.10321
  20500333.4514   -2058438.96646  -1575107.82063
 91  3 20 22 40 29.9980000  0  4G18G 2G11G19
  20580959.131      915261.980 8    713590.26923
  22556044.9284   -7312370.53446  -5557769.35761
  22579707.5684   -4862185.45946  -3719155.32561
  20497813.4044   -2071683.93346  -1585428.56663
 91  3 20 22 40 44.9980000  0  4G18G 2G11G19
  20583770.107      930040.856 8    725106.22123
  22546026.8114   -7365023.82546  -5598797.74561
  22574108.7174   -4891604.91546  -3742079.52361
  20495301.9674   -2084876.21646  -1595708.26163
 91  3 20 22 40 59.9980000  0  4G18G 2G11G19
  20586606.732      944947.727 8    736721.92123
  22536022.5374   -7417596.28046  -5639763.13961
  22568539.4904   -4920871.55946  -3764884.63061
  20492800.8184   -2098009.63447  -1605942.08263
 91  3 20 22 41 14.9980000  0  4G18G 2G11G19
  20589463.217      959948.726 7    748410.97023
  22526027.6004   -7470121.49446  -5680691.72361
  22562992.8894   -4950018.79346  -3787596.70261
  20490308.5764   -2111117.77046  -1616156.20063
 91  3 20 22 41 29.9980000  0  4G18G 2G11G19
  20592338.990      975067.319 8    760191.63623
  22516045.2404   -7522575.76946  -5721565.02761
  22557473.975    -4979022.790 6  -3810197.16421
  20487826.326    -2124177.161 6  -1626332.34223
 91  3 20 22 41 44.9980000  0  4G18G 2G11G19
  20595237.412      990299.428 8    772060.76323
  22506074.7794   -7574962.90346  -5762386.01661
  22551980.959    -5007887.326 6  -3832688.96221
  20485347.5144   -2137191.54646  -1636473.41063
 91  3 20 22 41 59.9980000  0  4G18G 2G11G19
  20598156.881     1005642.138 8    784016.07223
  22496118.1624   -7627285.54846  -5803156.75961
  22546513.568    -5036615.102 6  -3855074.19021
  20482880.0144   -2150163.80046  -1646581.65563
 91  3 20 22 42 14.9980000  0  4G18G 2G11G19
  20601099.615     1021102.829 8    796063.32023
  22486175.0454   -7679535.97346  -5843871.21461
  22541075.943    -5065198.155 6  -3877346.65221
  20480418.8344   -2163086.22446  -1656651.06863
 91  3 20 22 42 29.9980000  0  4G18G 2G11G19
  20604065.998     1036687.661 8    808207.29223
  22476249.881    -7731708.144 6  -5884524.69621
  22535664.607    -5093630.179 6  -3899501.42621
  20477972.9284   -2175952.68146  -1666676.87863
 91  3 20 22 42 44.9980000  0  4G18G 2G11G19
  20607051.803     1052384.264 7    820438.35923
  22466333.8344   -7783814.00146  -5925126.50761
  22530281.3114   -5121923.04046  -3921547.74861
  20475531.6314   -2188775.21646  -1676668.45263
 91  3 20 22 42 59.9980000  0  4G18G 2G11G19
  20610059.795     1068188.011 7    832752.92423
  22456431.1004   -7835857.90046  -5965680.04561
  22524921.8974   -5150081.05246  -3943489.00161
  20473096.3894   -2201558.11747  -1686629.14563
 91  3 20 22 43 14.9980000  0  4G18G 2G11G19
  20613087.225     1084098.992 7    845151.04523
  22446536.0684   -7887839.58446  -6006185.10361
  22519589.334    -5178104.039 6  -3965325.04621
  20470672.592    -2214301.505 6  -1696559.04523
 91  3 20 22 43 29.9980000  0  4G18G 2G11G19
  20616135.420     1100114.096 8    857630.29523
  22436656.2254   -7939762.17146  -6046644.10161
  22514281.357    -5205994.710 6  -3987057.99521
  20468253.6624   -2227008.36247  -1706460.48063
 91  3 20 22 43 44.9980000  0  4G18G 2G11G19
  20619202.982     1116228.232 8    870186.71523
  22426784.5294   -7991630.05546  -6087060.48661
  22508998.053    -5233757.464 6  -4008691.25621
  20465843.2874   -2239683.38246  -1716337.10963
 91  3 20 22 43 59.9980000  0  4G18G 2G11G19
  20622290.553     1132454.988 8    882830.89223
  22416930.6624   -8043429.63546  -6127423.63861
  22503741.686    -5261378.591 6  -4030214.16521
  20463437.928    -2252312.917 7  -1726178.29023
 91  3 20 22 44 14.9980000  0  4G18G 2G11G19
  20625400.623     1148800.886 8    895567.90823
  22407086.8504   -8095154.11846  -6167728.27561
  22498514.717    -5288851.091 6  -4051621.25321
  20461047.506    -2264890.099 6  -1735978.67923
 91  3 20 22 44 29.9980000  0  4G18G 2G11G19
  20628530.975     1165255.351 7    908389.51123
  22397255.631    -8146813.842 6  -6207982.44421
  22493313.014    -5316185.283 6  -4072920.57421
  20458664.2014   -2277425.41546  -1745746.44963
 91  3 20 22 44 44.9980000  0  4G18G 2G11G19
  20631684.022     1181820.374 8    921297.27523
  22387437.4984   -8198406.71846  -6248184.53861
  22488137.459    -5343378.973 6  -4094110.41121
  20456285.686    -2289916.880 6  -1755480.04423
 91  3 20 22 44 59.9980000  0  4G18G 2G11G19
  20634855.607     1198488.392 7    934285.30223
  22377631.8344   -8249940.03946  -6288340.22861
  22482987.584    -5370439.408 6  -4115196.41821
  20453911.9044   -2302371.94546  -1765185.27563
 91  3 20 22 45 14.9980000  0  4G18G 2G11G19
  20638048.193     1215266.147 8    947358.82023
  22367836.9124   -8301406.67146  -6328443.94361
  22477866.225    -5397359.196 6  -4136172.82421
  20451551.2484   -2314783.29746  -1774856.45063
 91  3 20 22 45 29.9980000  0  4G18G 2G11G19
  20641260.662     1232149.628 8    960514.73123
  22358051.9904   -8352810.53346  -6368498.75361
  22472769.803    -5424142.105 6  -4157042.57421
  20449197.545    -2327154.858 6  -1784496.60723
 91  3 20 22 45 44.9980000  0  4G18G 2G11G19
  20644496.139     1249146.933 8    973759.32623
  22348285.4674   -8404143.25046  -6408498.11761
  22467700.686    -5450779.709 6  -4177799.09721
  20446853.5064   -2339478.36746  -1794099.33163
 91  3 20 22 45 59.9980000  0  4G18G 2G11G19
  20647753.514     1266268.189 8    987100.51923
  22338533.3424   -8455394.30346  -6448433.84661
  22462661.717    -5477261.570 6  -4198434.26321
  20444517.951    -2351743.499 6  -1803656.56423
 91  3 20 22 46 14.9980000  0  4G18G 2G11G19
  20651033.373     1283495.839 8   1000524.61223
  22328791.8504   -8506581.16146  -6488319.55461
  22457647.475    -5503604.954 6  -4218961.52421
  20442193.584    -2363967.637 6  -1813181.84923
 91  3 20 22 46 29.9980000  0  4G18G 2G11G19
  20654332.545     1300844.892 8   1014043.30724
  22319068.318    -8557688.570 6  -6528143.36221
  22452664.607    -5529794.362 6  -4239368.80821
  20439875.3734   -2376135.44746  -1822663.25163
 91  3 20 22 46 44.9980000  0  4G18G 2G11G19
  20657656.990     1318310.713 8   1027652.98823
  22309356.4044   -8608720.84946  -6567908.62061
  22447708.631    -5555834.039 6  -4259659.41821
  20437572.904    -2388251.545 6  -1832104.34823
 91  3 20 22 46 59.9980000  0  5G18G 2G11G16G19
  20661003.522     1335889.947 8   1041351.03723
  22299660.334    -8659681.320 6  -6607617.94521
  22442781.850    -5581727.235 6  -4279835.89121
  23765138.0764         -0.76155
  20435274.1934   -2400319.08546  -1841507.61763
 91  3 20 22 47 14.9980000  0  5G18G 2G11G16G19
  20664366.920     1353568.372 8   1055126.38723
  22289973.4204   -8710584.12246  -6647282.31561
  22437880.592    -5607487.870 6  -4299909.06321
  23759202.4674     -31176.19545
  20432986.014    -2412352.091 6  -1850883.97423
 91  3 20 22 47 29.9980000  0  5G18G 2G11G16G19
  20667751.8734    1371357.17848   1068987.73963
  22280297.936    -8761417.771 6  -6686892.80321
  22433005.295    -5633104.428 6  -4319869.97521
  23753295.0224     -62220.99945
  20430704.107    -2424339.160 6  -1860224.52823
 91  3 20 22 47 44.9980000  0  5G18G 2G11G16G19
  20671157.365     1389252.292 8   1082931.92823
  22270637.7484   -8812185.77946  -6726452.13861
  22428156.092    -5658580.521 6  -4339721.42121
  23747413.5534     -93138.78745
  20428432.1474   -2436284.20446  -1869532.34263
 91  3 20 22 47 59.9980000  0  5G18G 2G11G16G19
  20674583.264     1407254.087 8   1096959.25023
  22260987.756    -8862887.702 6  -6765959.98621
  22423335.553    -5683915.510 6  -4359462.92621
  23741556.100     -123929.462 5
  20426166.3264   -2448186.76446  -1878807.05663
 91  3 20 22 48 14.9980000  0  5G18G 2G11G16G19
  20678027.436     1425357.443 7   1111065.71323
  22251353.1544   -8913528.31646  -6805420.05761
  22418541.1074   -5709114.06046  -4379098.11461
  23735714.7874    -154597.62245        -0.23071
  20423910.186    -2460051.590 6  -1888052.35623
 91  3 20 22 48 29.9980000  0  5G18G 2G11G16G19
  20681493.693     1443573.091 7   1125259.67523
  22241730.897    -8964096.814 6  -6844823.93921
  22413773.889    -5734165.265 7  -4398618.48921
  23729909.6314    -185132.61544    -23793.66161
  20421659.9514   -2471867.85947  -1897259.82863
 91  3 20 22 48 44.9980000  0  5G18G 2G11G16G19
  20684982.170     1461897.258 8   1139538.19223
  22232119.537    -9014596.600 6  -6884174.28421
  22409034.717    -5759072.369 6  -4418026.58121
  23724122.350     -215537.845 4    -47485.99521
  20419419.0534   -2483639.01946  -1906432.15463
 91  3 20 22 48 59.9980000  0  5G18G 2G11G16G19
  20688491.615     1480337.099 8   1153906.85223
  22222524.553    -9065020.330 6  -6923465.35521
  22404323.5764   -5783828.01046  -4437316.65061
  23718363.2954    -245805.72345    -71071.31861
  20417189.3974   -2495357.88747  -1915563.73063
 91  3 20 22 49 14.9980000  0  5G18G 2G11G16G19
  20692018.4044    1498878.99147   1168355.01663
  22212940.3424   -9115381.37446  -6962707.58361
  22399639.5294   -5808445.38446  -4456498.98362
  23712626.5294    -275949.53045    -94559.94161
  20414968.3184   -2507037.72347  -1924664.89163
 91  3 20 22 49 29.9980000  0  5G18G 2G11G16G19
  20695566.186     1517525.922 7   1182885.04423
  22203368.889    -9165676.449 6  -7001898.41221
  22394981.678    -5832921.240 6  -4475571.02822
  23706912.2404    -305966.17645   -117949.47061
  20412750.5844   -2518675.33147  -1933733.14763
 91  3 20 22 49 44.9980000  0  5G18G 2G11G16G19
  20699136.740     1536290.501 7   1197506.74023
  22193813.287    -9215892.810 6  -7041027.90521
  22390353.342    -5857242.621 6  -4494522.71222
  23701227.1544    -335842.67245   -141229.81861
  20410549.3654   -2530257.80246  -1942758.44463
 91  3 20 22 49 59.9980000  0  5G18G 2G11G16G19
  20702731.873     1555176.360 7   1212222.94323
  22184273.3114   -9266026.69646  -7080093.12961
  22385755.397    -5881405.698 7  -4513351.04221
  23695571.404     -365575.528 5   -164398.22621
  20408354.3654   -2541781.61647  -1951738.03263
 91  3 20 22 50 14.9980000  0  5G18G 2G11G16G19
  20706348.264     1574172.005 7   1227024.70223
  22174747.193    -9316089.128 6  -7119102.68021
  22381184.0224   -5905421.52046  -4532064.63861
  23689935.436     -395175.670 5   -187463.20321
  20406172.584    -2553257.847 7  -1960680.53623
 91  3 20 22 50 29.9980000  0  5G18G 2G11G16G19
  20709979.990     1593264.085 7   1241901.59623
  22165232.272    -9366093.370 6  -7158066.88621
  22376639.6154   -5929302.99446  -4550673.54461
  23684330.631     -424656.240 5   -210435.02521
  20403993.9824   -2564699.68247  -1969596.24063
 91  3 20 22 50 44.9980000  0  5G18G 2G11G16G19
  20713632.490     1612461.725 7   1256860.74123
  22155728.170    -9416029.898 6  -7196978.32321
  22372122.217    -5953040.762 6  -4569170.46622
  23678740.404     -454007.937 5   -233306.44221
  20401827.170    -2576097.899 7  -1978477.95323
 91  3 20 22 50 59.9980000  0  5G18G 2G11G16G19
  20717306.670     1631763.398 7   1271900.95223
  22146236.607    -9465900.015 6  -7235838.01321
  22367632.4124   -5976635.97646  -4587556.30962
  23673179.053     -483231.994 5   -256078.39721
  20399663.0844   -2587453.78447  -1987326.68463
 91  3 20 22 51 14.9980000  0  5G18G 2G11G16G19
  20721000.639     1651178.224 7   1287029.34023
  22136763.561    -9515694.603 6  -7274638.85321
  22363172.8504   -6000079.41547  -4605823.89261
  23667646.1074    -512319.22745   -278743.70261
  20397512.6784   -2598757.89446  -1996135.07263
 91  3 20 22 51 29.9980000  0  5G18G 2G11G16G19
  20724715.8344    1670705.11347   1302245.04063
  22127300.490    -9565414.221 6  -7313381.28021
  22358739.3184   -6023371.53746  -4623973.55461
  23662133.990     -541270.446 5   -301303.06121
  20395372.0924   -2610010.91447  -2004903.65063
 91  3 20 22 51 44.9980000  0  5G18G 2G11G16G19
  20728454.053     1690343.260 7   1317547.43823
  22117854.373    -9615059.529 6  -7352065.80021
  22354334.529    -6046512.994 6  -4642005.81821
  23656652.5614    -570086.37645   -323756.99961
  20393241.4044   -2621213.67447  -2013633.06363
 91  3 20 22 51 59.9980000  0  5G18G 2G11G16G19
  20732211.482     1710091.135 7   1332935.33523
  22108421.4204   -9664631.76746  -7390693.38361
  22349960.803    -6069504.880 6  -4659921.52421
  23651194.272     -598767.774 5   -346106.08921
  20391116.7014   -2632367.35047  -2022324.23363
 91  3 20 22 52 14.9980000  0  5G18G 2G11G16G19
  20735986.959     1729937.896 7   1348400.29323
  22098999.615    -9714141.687 6  -7429272.40521
  22345612.201    -6092357.888 6  -4677729.01621
  23645759.4824    -627325.67045   -368358.93361
  20389003.1074   -2643482.63547  -2030985.48863
 91  3 20 22 52 29.9980000  0  5G18G 2G11G16G19
  20739785.2644    1749891.63847   1363948.60763
  22089591.889    -9763581.210 6  -7467796.57221
  22341291.232    -6115063.633 6  -4695421.76221
  23640351.3114    -655751.89745   -390509.19161
  20386894.2724   -2654551.57447  -2039610.62963
 91  3 20 22 52 44.9980000  0  5G18G 2G11G16G19
  20743604.928     1769960.922 7   1379586.95623
  22080197.779    -9812941.070 6  -7506258.67121
  22336999.061    -6137612.928 6  -4712992.59421
  23634969.826     -684037.210 5   -412549.66021
  20384801.1624   -2665564.85747  -2048192.39963
 91  3 20 22 52 59.9980000  0  5G18G 2G11G16G19
  20747442.631     1790132.859 7   1395305.29023
  22070817.404    -9862233.932 6  -7544668.56121
  22332736.8654   -6160018.38246  -4730451.35161
  23629610.5534    -712194.62945   -434490.44861
  20382714.1624   -2676535.26647  -2056740.75763
 91  3 20 22 53 14.9980000  0  5G18G 2G11G16G19
  20751301.647     1810416.933 7   1411111.01023
  22061453.1544   -9911450.26946  -7583018.82061
  22328502.5224   -6182270.27146  -4747790.44761
  23624278.2874    -740214.30845   -456323.92161
  20380636.3034   -2687453.32147  -2065248.32663
 91  3 20 22 53 29.9980000  0  5G18G 2G11G16G19
  20755182.107     1830802.486 7   1426995.80423
  22052100.1394   -9960600.41646  -7621317.50761
  22324292.631    -6204378.862 6  -4765017.88021
  23618967.537     -768106.642 5   -478058.17221
  20378564.6784   -2698329.32947  -2073723.13163
 91  3 20 22 53 44.9980000  0  5G18G 2G11G16G19
  20759081.5924    1851290.98247   1442960.80463
  22042758.1934  -10009682.71546  -7659563.32261
  22320115.342    -6226342.593 6  -4782132.42921
  23613687.311     -795870.039 5   -499691.94521
  20376504.7794   -2709161.71947  -2082163.95263
 91  3 20 22 53 59.9980000  0  5G18G 2G11G16G19
  20763002.0064    1871888.78047   1459010.97363
  22033431.654   -10058690.520 6  -7697751.09221
  22315963.670    -6248154.705 6  -4799128.83321
  23608431.0374    -823497.66045   -521219.90761
  20374454.8034   -2719943.67647  -2090565.46563
 91  3 20 22 54 14.9980000  0  5G18G 2G11G16G19
  20766939.1704    1892590.67547   1475142.26363
  22024122.311   -10107628.704 6  -7735884.61421
  22311841.865    -6269820.072 6  -4816010.89621
  23603197.1934    -850994.43045   -542645.93961
  20372409.8814   -2730680.21647  -2098931.59763
 91  3 20 22 54 29.9980000  0  5G18G 2G11G16G19
  20770897.5374    1913386.44447   1491346.70263
  22014820.1934  -10156507.35146  -7773971.74861
  22307745.029    -6291348.600 6  -4832786.32621
  23597986.2874    -878370.72144   -563978.06961
  20370374.9674   -2741381.28747  -2107270.08763
 91  3 20 22 54 44.9980000  0  5G18G 2G11G16G19
  20774874.9674    1934283.33347   1507629.93063
  22005530.0534  -10205318.93846  -7812006.62561
  22303673.686    -6312732.619 6  -4849449.16121
  23592803.5454    -905618.61644   -585210.14161
  20368344.3424   -2752039.51847  -2115575.19363
 91  3 20 22 54 59.9980000  0  5G18G 2G11G16G19
  20778873.3184    1955298.30947   1524005.17163
  21996258.1234  -10254046.23046  -7849975.82161
  22299636.7404   -6333954.97446  -4865986.02161
  23587642.061     -932721.110 5   -606328.92221
  20366331.9204   -2762637.92847  -2123833.68663
 91  3 20 22 55 14.9980000  0  5G18G 2G11G16G19
  20782895.7954    1976427.42147   1540469.35363
  21987001.092   -10302692.856 6  -7887882.15121
  22295628.4674   -6355019.18946  -4882399.66261
  23582514.5064    -959681.98345   -627337.34661
  20364322.5064   -2773179.79547  -2132048.12263
 91  3 20 22 55 29.9980000  0  5G18G 2G11G16G19
  20786933.607     1997651.993 7   1557007.93123
  21977754.779   -10351277.409 6  -7925740.13021
  22291647.3654   -6375943.68146  -4898704.41661
  23577409.365     -986519.615 5   -648249.76421
  20362321.772    -2783683.741 7  -2140233.00223
 91  3 20 22 55 44.9980000  0  5G18G 2G11G16G19
  20790993.7794    2018984.26247   1573630.41363
  21968524.1314  -10399787.39246  -7963539.99661
  22287693.9434   -6396715.97746  -4914890.58961
  23572327.186    -1013221.808 5   -669056.61321
  20360336.4514   -2794137.32547  -2148378.64463
 91  3 20 22 55 59.9980000  0  5G18G 2G11G16G19
  20795073.5844    2040429.56747   1590340.97963
  21959307.3814  -10448217.04846  -8001277.27061
  22283772.3654   -6417330.46146  -4930953.78761
  23567270.8814   -1039783.05045   -689753.65761
  20358353.420    -2804535.055 7  -2156480.75923
 91  3 20 22 56 14.9980000  0  5G18G 2G11G16G19
  20799175.2954    2061982.16747   1607135.14763
  21950105.3114  -10496572.07746  -8038956.39461
  22279877.4514   -6437792.64446  -4946898.30561
  23562242.3264   -1066208.72345   -710345.05461
  20356387.0224   -2814882.49047  -2164543.68863
 91  3 20 22 56 29.9980000  0  5G18G 2G11G16G19
  20803296.4904    2083644.01747   1624014.44463
  21940918.8894  -10544850.44946  -8076575.78261
  22276013.0144   -6458100.28346  -4962722.40761
  23557241.6784   -1092496.93445   -730829.31961
  20354425.8184   -2825177.52847  -2172565.78963
 91  3 20 22 56 44.9980000  0  5G18G 2G11G16G19
  20807439.725     2105413.529 7   1640977.64423
  21931747.0764  -10593053.15646  -8114136.21361
  22272177.8654   -6478254.45946  -4978426.93061
  23552261.654    -1118648.571 5   -751207.16521
  20352479.592    -2835421.446 7  -2180548.04923
 91  3 20 22 56 59.9980000  0  6G18G 2G11G16G19G 6
  20811601.4364    2127281.09747   1658017.24463
  21922587.7404  -10641189.41646  -8151644.87061
  22268370.0924   -6498264.28946  -4994018.96461
  23547312.2564   -1144673.01645   -771485.93561
  20350540.2724   -2845623.26647  -2188497.50963
  23799326.256          -0.09213
 91  3 20 22 57 14.9980000  0  6G18G 2G11G16G19G 6
  20815782.334     2149250.456 7   1675136.16623
  21913439.9984  -10689255.38546  -8189098.75261
  22264589.8114   -6518125.84146  -5009495.47061
  23542385.3184   -1170566.08745   -791662.31661
  20348604.7484   -2855779.13247  -2196411.16263
  23790763.834      -44989.277 3
 91  3 20 22 57 29.9980000  0  6G18G 2G11G16G19G 6
  20819979.4984    2171310.24947   1692325.55863
  21904302.654   -10737262.246 6  -8226506.58321
  22260836.5224   -6537850.00946  -5024864.91661
  23537480.709    -1196339.106 5   -811745.15821
  20346678.1544   -2865900.15147  -2204297.66163
  23782201.881      -89984.859 3        -0.31231
 91  3 20 22 57 44.9980000  0  6G18G 2G11G16G19G 6
  20824194.6934    2193461.42647   1709586.16063
  21895179.264   -10785209.010 6  -8263867.58721
  22257109.6704   -6557435.87946  -5040126.60461
  23532596.639    -1221991.321 5   -831733.86021
  20344760.522    -2875985.401 7  -2212156.28224
  23773637.4514    -134986.10043    -35066.05261
 91  3 20 22 57 59.9980000  0  6G18G 2G11G16G19G 6
  20828429.7954    2215712.71047   1726924.75763
  21886068.9124  -10833086.42146  -8301174.53861
  22253411.4594   -6576874.24846  -5055273.34761
  23527744.4044   -1247513.41245   -851621.17261
  20342847.7174   -2886025.72447  -2219979.90164
  23765072.459     -179983.876 3    -70129.09621
 91  3 20 22 58 14.9980000  0  6G18G 2G11G16G19G 6
  20832682.7874    2238063.56747   1744340.93563
  21876970.897   -10880894.698 6  -8338427.62322
  22249738.9594   -6596165.31046  -5070305.30861
  23522912.7174   -1272905.66645   -871407.32961
  20340946.7954   -2896021.19647  -2227768.57464
  23756513.162     -224978.541 3   -105189.73821
 91  3 20 22 58 29.9980000  0  6G18G 2G11G16G19G 6
  20836954.920     2260519.444 7   1761838.96723
  21867887.4204  -10928628.36246  -8375622.56762
  22246098.5534   -6615303.54147  -5085218.17461
  23518104.1394   -1298162.55145   -891087.97161
  20339053.0374   -2905966.38847  -2235518.06264
  23747956.6234    -269964.61443   -140243.70461
 91  3 20 22 58 44.9980000  0  6G18G 2G11G16G19G 6
  20841249.7174    2283087.31747   1779424.26363
  21858818.4284  -10976280.15446  -8412753.71562
  22242486.7794   -6634281.46847  -5100006.13461
  23513324.881    -1323276.829 5   -910657.48921
  20337172.9364   -2915853.95747  -2243222.65164
  23739399.4204    -314935.07344   -175285.46261
 91  3 20 22 58 59.9980000  0  6G18G 2G11G16G19G 6
  20845563.0764    2305753.91647   1797086.49063
  21849764.7404  -11023863.25146  -8449831.33562
  22238902.1154   -6653112.10346  -5114679.32561
  23508568.9434   -1348262.11545   -930126.52661
  20335299.9364   -2925697.02747  -2250892.56664
  23730839.2644    -359903.04844   -210325.32561
 91  3 20 22 59 14.9980000  0  6G18G 2G11G16G19G 6
  20849898.0614    2328525.96547   1814830.88063
  21840725.5764  -11071370.41046  -8486849.77762
  22235349.8574   -6671788.32146  -5129232.19261
  23503839.8654   -1373110.88845   -949489.15661
  20333435.8114   -2935488.64947  -2258522.39264
  23722282.967     -404861.519 3   -245357.76621
 91  3 20 22 59 29.9980000  0  6G18G 2G11G16G19G 6
  20854251.8894    2351408.90547   1832661.68863
  21831699.5454  -11118796.11746  -8523804.75962
  22231825.3814   -6690304.64547  -5143660.45761
  23499139.6004   -1397817.51645   -968741.05361
  20331580.0534   -2945223.28147  -2266107.80764
  23713729.3184    -449805.09243   -280378.61961
 91  3 20 22 59 44.9980000  0  6G18G 2G11G16G19G 6
  20858624.9284    2374385.45547   1850565.43163
  21822687.537   -11166157.213 6  -8560709.39222
  22228328.9044   -6708677.92446  -5157977.26461
  23494458.8974   -1422399.07145   -987895.47661
  20329741.0844   -2954917.79547  -2273661.96964
  23705175.061     -494750.910 3   -315401.21621
 91  3 20 22 59 59.9980000  0  6G18G 2G11G16G19G 6
  20863014.0684    2397449.82647   1868537.60663
  21813687.014   -11213458.995 6  -8597567.81622
  22224860.1474   -6726913.24746  -5172186.58261
  23489805.6474   -1446860.75345  -1006956.47161
  20327900.3114   -2964577.35947  -2281188.89464
  23696621.2484    -539704.14343   -350429.58761
 91  3 20 23  0 14.9980000  0  6G18G 2G11G16G19G 6
  20867419.8264    2420606.75647   1886581.89863
  21804698.5924  -11260696.94046  -8634376.48862
  22221416.0144   -6745006.23746  -5186284.99162
  23485176.8264   -1471198.25845  -1025920.72861
  20326070.1624   -2974197.41847  -2288685.03264
  23688064.1314    -584660.43743   -385460.28061
 91  3 20 23  0 29.9980000  0  6G18G 2G11G16G19G 6
  20871846.3974    2443866.34547   1904706.19763
  21795721.256   -11307860.445 6  -8671127.15822
  22218003.2404   -6762946.12646  -5200264.09762
  23480568.6314   -1495400.82345  -1044779.82861
  20324246.2564   -2983767.27947  -2296142.06164
  23679513.1154    -629609.45643   -420485.35561
 91  3 20 23  0 44.9980000  0  6G18G 2G11G16G19G 6
  20876293.3894    2467238.06347   1922917.86363
  21786763.6474  -11354939.78646  -8707812.24762
  22214619.3034   -6780723.13646  -5214116.27862
  23475990.420    -1519458.893 5  -1063526.35821
  20322440.0534   -2993277.31947  -2303552.48164
  23670962.397     -674541.437 3   -455497.13921
 91  3 20 23  0 59.9980000  0  6G18G 2G11G16G19G 6
  20880762.4514    2490724.05147   1941218.56663
  21777820.693   -11401932.667 6  -8744429.96622
  22211266.537    -6798335.020 6  -5227839.79722
  23471445.506    -1543370.259 5  -1082158.56721
  20320640.0924   -3002725.19547  -2310914.46064
  23662411.889     -719454.352 3   -490494.06421
 91  3 20 23  1 14.9980000  0  6G18G 2G11G16G19G 6
  20885253.7564    2514319.89947   1959604.88163
  21768893.857   -11448843.395 6  -8780983.66622
  22207947.6314   -6815785.96146  -5241437.90462
  23466920.1074   -1567139.07345  -1100679.70961
  20318854.9754   -3012115.34547  -2318231.45964
  23653870.295     -764352.452 3   -525479.46921
 91  3 20 23  1 29.9980000  0  6G18G 2G11G16G19G 6
  20889762.7254    2538009.86447   1978064.52563
  21759979.7874  -11495687.50546  -8817485.45262
  22204655.193    -6833091.499 6  -5254922.72022
  23462420.467    -1590781.000 5  -1119101.95721
  20317074.4904   -3021463.44547  -2325515.69264
  23645328.0684    -809251.42243   -560465.51461
 91  3 20 23  1 44.9980000  0  6G18G 2G11G16G19G 6
  20894288.1234    2561793.04547   1996596.80663
  21751077.818   -11542465.229 6  -8853935.51522
  22201387.4984   -6850251.73946  -5268294.30362
  23457943.1784   -1614296.35045  -1137425.61361
  20315304.3974   -3030769.62447  -2332767.25363
  23636783.3894    -854151.55443   -595452.49361
 91  3 20 23  1 59.9980000  0  6G18G 2G11G16G19G 6
  20898830.803     2585666.646 7   2015199.55423
  21742188.162   -11589179.543 6  -8890336.16922
  22198149.9204   -6867269.62246  -5281554.96562
  23453494.5614   -1637687.82045  -1155652.71461
  20313538.5764   -3040036.47747  -2339988.17563
  23628233.6864    -899055.78543   -630442.65361
 91  3 20 23  2 14.9980000  0  6G18G 2G11G16G19G 6
  20903391.428     2609639.785 7   2033879.85023
  21733311.717   -11635820.684 6  -8926679.80422
  22194940.365    -6884135.345 6  -5294697.07122
  23449069.545    -1660946.227 5  -1173776.13321
  20311787.8114   -3049254.29747  -2347170.88664
  23619692.920     -943954.673 3   -665428.65621
 91  3 20 23  2 29.9980000  0  6G18G 2G11G16G19G 6
  20907973.0454    2633712.37347   2052637.64963
  21724450.600   -11682388.770 6  -8962966.51422
  22191760.764    -6900849.119 6  -5307720.77822
  23444668.061    -1684071.525 5  -1191795.81221
  20310039.9594   -3058423.49947  -2354315.71764
  23611152.1474    -988848.52243   -700410.73061
 91  3 20 23  2 44.9980000  0  6G18G 2G11G16G19G 6
  20912572.5144    2657882.42847   2071471.38963
  21715602.123   -11728885.280 6  -8999197.44822
  22188608.865    -6917412.202 6  -5320627.05722
  23440291.0064   -1707065.07345  -1209712.83261
  20308307.0064   -3067545.26847  -2361423.58264
  23602609.0534   -1033738.72843   -735389.94961
 91  3 20 23  2 59.9980000  0  6G18G 2G11G16G19G 6
  20917191.0534    2682151.02647   2090381.92063
  21706768.686   -11775309.259 6  -9035371.86522
  22185485.693    -6933823.583 6  -5333415.12122
  23435941.4594   -1729926.04645  -1227526.55561
  20306579.6704   -3076618.71047  -2368493.79364
  23594069.662    -1078624.312 3
 91  3 20 23  3 14.9980000  0  6G18G 2G11G16G19G 6
  20921830.9674    2706527.79947   2109376.74563
  21697949.647   -11821650.447 6  -9071481.76922
  22182393.990    -6950073.114 6  -5346077.07422
  23431617.2484   -1752644.18845  -1245228.99561
  20304864.6394   -3085633.57847  -2375518.35864
  23585528.920    -1123495.437 3
 91  3 20 23  3 29.9980000  0  6G18G 2G11G16G19G 6
  20926486.959     2730999.817 7   2128445.77223
  21689145.459   -11867921.465 6  -9107536.99622
  22179328.490    -6966173.536 6  -5358622.83822
  23427320.240    -1775232.529 5  -1262830.28121
  20303156.2174   -3094602.63047  -2382507.23164
  23576991.889    -1168364.843 3
 91  3 20 23  3 44.9980000  0  6G18G 2G11G16G19G 6
  20931161.818     2755570.197 7   2147591.44423
  21680354.350   -11914119.137 6  -9143535.07722
  22176294.779    -6982121.499 6  -5371049.80422
  23423046.0224   -1797687.83645  -1280327.90861
  20301462.0844   -3103522.59847  -2389457.85664
  23568449.5224   -1213229.34143
 91  3 20 23  3 59.9980000  0  6G18G 2G11G16G19G 6
  20935856.4754    2780240.29447   2166814.82863
  21671578.186   -11960241.949 6  -9179474.82522
  22173289.975    -6997915.322 6  -5383356.66222
  23418800.9514   -1820008.52645  -1297720.66661
  20299769.8184   -3112391.87247  -2396368.98964
  23559916.6784   -1258087.43244        -0.37071
 91  3 20 23  4 14.9980000  0  6G18G 2G11G16G19G 6
  20940569.225     2805001.981 7   2186109.56923
  21662813.326   -12006297.667 6  -9215362.28722
  22170310.6154   -7013562.91946  -5395549.58762
  23414575.1004   -1842202.27145  -1315014.48461
  20298094.1934   -3121218.32147  -2403246.73664
  23551381.3344   -1302947.14044    -34955.81161
 91  3 20 23  4 29.9980000  0  6G18G 2G11G16G19G 6
  20945299.061     2829860.067 7   2205479.42523
  21654061.459   -12052281.308 6  -9251193.59122
  22167363.084    -7029059.208 6  -5407624.59922
  23410379.5224   -1864264.28845  -1332205.64761
  20296421.1624   -3129996.84647  -2410087.14964
  23542844.084    -1347803.475 3    -69908.64021
 91  3 20 23  4 44.9980000  0  6G18G 2G11G16G19G 6
  20950048.7324    2854820.26847   2224928.86363
  21645326.787   -12098186.982 6  -9286964.13522
  22164442.787    -7044398.092 6  -5419576.95122
  23406206.7404   -1886188.65845  -1349289.57261
  20294762.5454   -3138721.53147  -2416885.60564
  23534308.6934   -1392650.52144   -104854.21961
 91  3 20 23  4 59.9980000  0  6G18G 2G11G16G19G 6
  20954816.850     2879876.662 7   2244453.25623
  21636603.795   -12144020.164 6  -9322678.19522
  22161552.459    -7059585.132 6  -5431410.98322
  23402059.3264   -1907981.12345  -1366270.70661
  20293110.7484   -3147397.91847  -2423646.42564
  23525772.475    -1437494.135 4   -139797.14621
 91  3 20 23  5 14.9980000  0  6G18G 2G11G16G19G 6
  20959605.0374    2905035.38047   2264057.37762
  21627896.9904  -12189774.28946  -9358330.63962
  22158693.772    -7074613.946 6  -5443121.72722
  23397936.9904   -1929634.86345  -1383143.73161
  20291472.1864   -3156019.43347  -2430364.48464
  23517245.029    -1482327.695 4   -174732.21021
 91  3 20 23  5 29.9980000  0  6G18G 2G11G16G19G 6
  20964410.8814    2930293.32447   2283738.82662
  21619206.3814  -12235452.18046  -9393923.68262
  22155864.490    -7089487.465 6  -5454711.46322
  23393841.357    -1951153.270 5  -1399911.29121
  20289841.2174   -3164589.13547  -2437042.17664
  23508712.623    -1527154.300 4   -209661.85821
 91  3 20 23  5 44.9980000  0  6G18G 2G11G16G19G 6
  20969234.732     2955639.853 7   2303489.29423
  21610525.3114  -12281064.48446  -9429465.61962
  22153060.1394   -7104216.14146  -5466188.32962
  23389771.350    -1972546.767 5  -1416581.51921
  20288216.8184   -3173117.38647  -2443687.55964
  23500183.686    -1571984.717 4   -244594.46921
 91  3 20 23  5 59.9980000  0  6G18G 2G11G16G19G 6
  20974074.186     2981069.522 7   2323304.54122
  21601857.717   -12326616.492 6  -9464960.58422
  22150282.865    -7118805.032 6  -5477556.27322
  23385724.178    -1993820.494 5  -1433158.43621
  20286599.6154   -3181609.13647  -2450304.50264
  23491647.170    -1616823.885 4   -279533.89521
 91  3 20 23  6 14.9980000  0  6G18G 2G11G16G19G 6
  20978933.170     3006603.318 7   2343200.92622
  21593203.873   -12372086.748 6  -9500391.84022
  22147537.334    -7133232.770 6  -5488798.64922
  23381703.100    -2014953.326 5  -1449625.55921
  20284998.6004   -3190043.21147  -2456876.50964
  23483120.842    -1661650.729 4   -314463.75521
 91  3 20 23  6 29.9980000  0  6G18G 2G11G16G19G 6
  20983810.615     3032239.828 7   2363177.35522
  21584566.647   -12417476.418 6  -9535760.30622
  22144824.2874   -7147500.55046  -5499916.37562
  23377707.5454   -2035946.25045  -1465983.68361
  20283403.4514   -3198420.86747  -2463404.54964
  23474591.709    -1706466.470 5   -349384.97321
 91  3 20 23  6 44.9980000  0  6G18G 2G11G16G19G 6
  20988707.0924    3057963.54447   2383221.73662
  21575943.514   -12462800.917 6  -9571077.98622
  22142137.045    -7161623.644 6  -5510921.35822
  23373735.9754   -2056814.80445  -1482244.88161
  20281815.0614   -3206757.34647  -2469900.50364
  23466063.217    -1751286.556 5   -384309.49621
 91  3 20 23  6 59.9980000  0  6G18G 2G11G16G19G 6
  20993620.303     3083780.565 7   2403338.82122
  21567330.787   -12508053.876 6  -9606339.92322
  22139477.311    -7175595.712 7  -5521808.66322
  23369790.9124   -2077552.48345  -1498404.08461
  20280237.6394   -3215046.21247  -2476359.35764
  23457533.7954   -1796104.75645   -419232.60261
 91  3 20 23  7 14.9980000  0  6G18G 2G11G16G19G 6
  20998550.701     3109688.260 7   2423526.55522
  21558732.334   -12553238.045 6  -9641548.25622
  22136846.193    -7189419.375 6  -5532580.32322
  23365867.975    -2098162.086 5  -1514463.51121
  20278671.3814   -3223289.92647  -2482783.02164
  23449005.639    -1840923.727 5   -454156.34821
 91  3 20 23  7 29.9980000  0  6G18G 2G11G16G19G 6
  21003497.904     3135685.994 7   2443784.45322
  21550148.0534  -12598353.22746  -9676702.82762
  22134244.904    -7203094.610 6  -5543236.32622
  23361971.3504   -2118643.50045  -1530423.00861
  20277110.0534   -3231488.65347  -2489171.63064
  23440477.318    -1885743.551 5   -489080.67521
 91  3 20 23  7 44.9980000  0  6G18G 2G11G16G19G 6
  21008461.9594    3161780.16047   2464117.50562
  21541575.8504  -12643392.96146  -9711798.60962
  22131671.4594   -7216614.90047  -5553771.59062
  23358100.2404   -2138990.49045  -1546277.78261
  20275558.4754   -3239635.74046  -2495520.00664
  23431950.4824   -1930557.75445   -524000.67361
 91  3 20 23  7 59.9970000  0  6G18G 2G11G16G19G 6
  21013445.118     3187966.924 7   2484522.69422
  21533019.993   -12688355.889 6  -9746834.54522
  22129129.0244   -7229981.24247  -5564186.88962
  23354254.2824   -2159203.69445  -1562028.31761
  20274016.3214   -3247732.35347  -2501829.04664
  23423421.228    -1975365.428 5   -558915.58921
 91  3 20 23  8 14.9970000  0  6G18G 2G11G16G19G 6
  21018444.165     3214236.815 7   2504992.66922
  21524475.220   -12733260.524 6
  22126611.173    -7243207.780 7  -5574493.26022
  23350431.0244   -2179297.91645  -1577686.11961
  20272485.1264   -3255792.15847  -2508109.40964
  23414891.212    -2020184.837 5
 91  3 20 23  8 29.9970000  0  6G18G 2G11G16G19G 6
  21023463.2204    3240606.01347   2525540.02662
  21515945.9234  -12778085.98246
  22124124.681    -7256275.679 7  -5584676.02222
  23346630.7434   -2199254.42945  -1593236.64361
  20270959.8064   -3263796.56547  -2514346.59963
  23406364.790    -2064995.221 5
 91  3 20 23  8 44.9970000  0  6G18G 2G11G16G19G 6
  21028497.5244    3267064.04447   2546156.60262
  21507428.165   -12822842.714 6
  22121666.056    -7269195.207 7  -5594743.16422
  23342859.1894   -2219083.50345  -1608687.85561
  20269446.9784   -3271755.86647  -2520548.65164
  23397836.274    -2109807.013 5
 91  3 20 23  8 59.9970000  0  6G18G 2G11G16G19G 6
  21033549.2354    3293611.47547   2566842.84262
  21498923.743   -12867529.801 6  -9886450.12722
  22119236.634    -7281965.645 7  -5604694.13022
  23339107.524    -2238784.143 5  -1624038.99121
  20267937.1964   -3279669.26747  -2526714.93164
  23389311.032    -2154619.616 5
 91  3 20 23  9 14.9970000  0  6G18G 2G11G16G19G 6
  21038619.524     3320258.542 7   2587606.72222
  21490435.579   -12912136.639 6  -9921208.59922
  22116837.7984   -7294576.33547  -5614520.61262
  23335387.1184   -2258346.16845  -1639282.11161
  20266444.0564   -3287526.00147  -2532837.05164
  23380783.985    -2199422.386 5
 91  3 20 23  9 29.9970000  0  6G18G 2G11G16G19G 6
  21043708.759     3346997.248 7   2608441.99522
  21481960.759   -12956670.793 6  -9955910.42722
  22114465.7354   -7307034.97547  -5624228.61862
  23331686.657    -2277777.062 5  -1654423.04321
  20264962.0564   -3295333.67346  -2538920.94564
  23372261.7744   -2244223.10745        -0.04671
 91  3 20 23  9 44.9970000  0  6G18G 2G11G16G19G 6
  21048812.673     3373819.619 7   2629342.46922
  21473498.962   -13001140.052 6  -9990561.68622
  22112121.610    -7319349.226 6  -5633824.11122
  23328012.5094   -2297084.54645  -1669467.81761
  20263480.4464   -3303100.09547  -2544972.69464
  23363732.0564   -2289029.50845    -34913.94961
 91  3 20 23  9 59.9970000  0  6G18G 2G11G16G19G 6
  21053934.415     3400738.463 7   2650318.10722
  21465051.235   -13045531.543 6 -10025152.34522
  22109810.189    -7331506.117 7  -5643297.00022
  23324364.407    -2316255.700 5  -1684406.36221
  20262011.7284   -3310812.24847  -2550982.15864
  23355204.5484   -2333828.78445    -69822.28961
 91  3 20 23 10 14.9970000  0  6G18G 2G11G16G19G 6
  21059075.899     3427749.810 7   2671365.84022
  21456618.181   -13089848.837 6 -10059685.19122
  22107525.329    -7343509.286 7  -5652650.09122
  23320742.9074   -2335294.67045  -1699241.90561
  20260557.2904   -3318473.64247  -2556952.07464
  23346679.595    -2378624.709 5   -104728.03221
 91  3 20 23 10 29.9970000  0  6G18G 2G11G16G19G 6
  21064230.931     3454844.099 7   2692478.20022
  21448196.6264  -13134101.21346 -10094167.44762
  22105265.923    -7355367.962 6  -5661890.59621
  23317144.267    -2354210.545 5  -1713981.53021
  20259109.3064   -3326093.55947  -2562889.66564
  23338157.064    -2423426.530 5   -139638.37821
 91  3 20 23 10 44.9970000  0  6G18G 2G11G16G19G 6
  21069403.657     3482023.644 7   2713656.98522
  21439787.782   -13178286.057 6 -10128597.08922
  22103039.157    -7367079.678 6  -5671016.59022
  23313570.235    -2373001.035 5  -1728623.44821
  20257665.7284   -3333669.70047  -2568793.14164
  23329631.821    -2468231.888 5   -174551.46321
 91  3 20 23 10 59.9970000  0  6G18G 2G11G16G19G 6
  21074593.665     3509299.544 7   2734910.85022
  21431395.634   -13222392.121 6 -10162965.33822
  22100841.048    -7378633.166 6  -5680019.28822
  23310017.649    -2391654.739 5  -1743158.79821
  20256232.1184   -3341190.52947  -2574653.52464
  23321105.946    -2513029.432 4   -209458.48621
 91  3 20 23 11 14.9970000  0  6G18G 2G11G16G19G 6
  21079802.610     3536668.019 7   2756236.85522
  21423014.845   -13266423.147 6 -10197275.11922
  22098670.689    -7390032.110 7  -5688901.57022
  23306495.298    -2410175.196 5  -1757590.29421
  20254812.0244   -3348659.68847  -2580473.63864
  23312581.9934   -2557822.88245   -244362.30261
 91  3 20 23 11 29.9970000  0  6G18G 2G11G16G19G 6
  21085024.665     3564114.011 7   2777623.26422
  21414649.103   -13310393.532 6 -10231537.65122
  22096529.439    -7401290.962 7  -5697674.68522
  23302992.681    -2428576.999 5  -1771929.35821
  20253397.0174   -3356091.58247  -2586264.71864
  23304056.9704   -2602626.81645   -279274.29961
 91  3 20 23 11 44.9970000  0  6G18G 2G11G16G19G 6
  21090263.618     3591648.221 7   2799078.40522
  21406293.689   -13354292.342 6 -10265744.40322
  22094413.954    -7412398.830 6  -5706330.14722
  23299516.235    -2446849.542 5  -1786167.68821
  20251992.0564   -3363475.17947  -2592018.16364
  23295529.8844   -2647430.47745   -314186.10361
 91  3 20 23 11 59.9970000  0  6G18G 2G11G16G19G 6
  21095522.743     3619277.691 7   2820607.78422
  21397955.181   -13398112.581 6 -10299889.93922
  22092329.9394   -7423348.47247  -5714862.32662
  23296061.4464   -2464985.72945  -1800299.76861
  20250597.5094   -3370803.41747  -2597728.47664
  23287006.3454   -2692226.66245   -349092.05561
 91  3 20 23 12 14.9970000  0  6G18G 2G11G16G19G 6
  21100798.251     3647003.131 7   2842211.93722
  21389630.587   -13441853.047 6 -10333973.31722
  22090279.915    -7434138.706 7  -5723270.28822
  23292638.7204   -2482984.46445  -1814324.74961
  20249214.4544   -3378075.12647  -2603394.74064
  23278484.0644   -2737014.35345   -383991.40961
 91  3 20 23 12 29.9970000  0  6G18G 2G11G16G19G 6
  21106090.993     3674814.272 7   2863882.88022
  21381321.446   -13485523.862 6 -10368002.41522
  22088253.806    -7444779.768 7  -5731562.00922
  23289238.9544   -2500855.90645  -1828250.54161
  20247838.1734   -3385300.41547  -2609024.82564
  23269957.985    -2781803.821 5   -418892.12621
 91  3 20 23 12 44.9970000  0  6G18G 2G11G16G19G 6
  21111400.064     3702717.137 7   2885625.29122
  21373025.454   -13529118.490 6 -10401972.15622
  22086256.892    -7455265.347 7  -5739732.57922
  23285862.196    -2518593.867 5  -1842072.32121
  20246473.3214   -3392472.85847  -2614613.73664
  23261438.7904   -2826588.77745   -453789.33461
 91  3 20 23 12 59.9970000  0  6G18G 2G11G16G19G 6
  21116728.228     3730711.338 7   2907438.87622
  21364744.110   -13572637.095 6 -10435882.64722
  22084292.126    -7465595.574 7  -5747782.08622
  23282510.5794   -2536198.36045  -1855790.10261
  20245118.4394   -3399592.45847  -2620161.47964
  23252913.6184   -2871369.23545   -488683.04861
 91  3 20 23 13 14.9970000  0  6G18G 2G11G16G19G 6
  21122069.829     3758788.073 7   2929316.76922
  21356476.392   -13616088.449 6 -10469740.74722
  22082354.110    -7475779.176 7  -5755717.34422
  23279183.7514   -2553678.54545  -1869411.02461
  20243773.8214   -3406667.94146  -2625674.83164
  23244394.4934   -2916154.17445   -523580.24061
 91  3 20 23 13 29.9970000  0  6G18G 2G11G16G19G 6
  21127429.204     3786943.741 7   2951256.16522
  21348220.4934  -13659475.80846 -10503548.97662
  22080444.2744   -7485819.33647  -5763540.83462
  23275884.3374   -2571037.37545  -1882937.39661
  20242433.8844   -3413702.42547  -2631156.24464
  23235871.024    -2960946.688 5   -558483.34121
 91  3 20 23 13 44.9970000  0  6G18G 2G11G16G19G 6
  21132801.931     3815179.279 7   2973257.80222
  21339975.696   -13702798.198 6 -10537306.57822
  22078560.509    -7495715.085 7  -5771251.79622
  23272604.321    -2588274.002 5  -1896368.52621
  20241102.8534   -3420694.62846  -2636604.71564
  23227345.8144   -3005745.89445   -593391.63961
 91  3 20 23 13 59.9970000  0  6G18G 2G11G16G19G 6
  21138191.142     3843503.849 7   2995328.81722
  21331744.2594  -13746045.87146 -10571005.96762
  22076708.243    -7505457.038 7  -5778842.91322
  23269350.0014   -2605379.05845  -1909697.13561
  20239781.298    -3427635.262 6  -2642012.98824
  23218821.2124   -3050542.41145   -628297.87561
 91  3 20 23 14 14.9970000  0  6G18G 2G11G16G19G 6
  21143597.2354    3871909.10247   3017462.69862
  21323528.3924  -13789227.01346 -10604653.51362
  22074880.876    -7515053.202 7  -5786320.42822
  23266118.2354   -2622360.35645  -1922929.30761
  20238472.8684   -3434532.19047  -2647387.22064
  23210295.6734   -3095344.28445   -663208.25061
 91  3 20 23 14 29.9970000  0  6G18G 2G11G16G19G 6
  21149021.196     3900412.902 7   3039673.37322
  21315327.1034  -13832323.62646 -10638235.19062
  22073085.110    -7524485.503 7  -5793670.25022
  23262913.1184   -2639200.26945  -1936051.30961
  20237169.4154   -3441367.28446  -2652713.27164
  23201772.1104   -3140133.42145   -698108.72061
 91  3 20 23 14 44.9970000  0  6G18G 2G11G16G19G 6
  21154462.610     3929002.042 7   3061950.53922
  21307140.4074  -13875348.50846 -10671760.97062
  22071320.454    -7533766.719 7  -5800902.35322
  23259733.931    -2655911.740 5  -1949073.22721
  20235878.4624   -3448153.41447  -2658001.15864
  23193245.4784   -3184923.01244   -733009.54661
 91  3 20 23 14 59.9970000  0  6G18G 2G11G16G19G 6
  21159917.939     3957680.089 7   3084296.98922
  21298967.6814  -13918297.78647 -10705227.84662
  22069581.2044   -7542893.09447  -5808013.80262
  23256579.5174   -2672490.88545  -1961992.04661
  20234597.1734   -3454886.74146  -2663247.90164
  23184723.579    -3229709.031 4   -767907.58421
 91  3 20 23 15 14.9970000  0  6G18G 2G11G16G19G 6
  21165393.579     3986440.506 7   3106707.62122
  21290807.8454  -13961177.73946 -10738640.70462
  22067875.5174   -7551870.85347  -5815009.44962
  23253445.2984   -2688943.89945  -1974812.56661
  20233324.1894   -3461573.31946  -2668458.22364
  23176199.845    -3274497.841 4   -802807.76621
 91  3 20 23 15 29.9970000  0  6G18G 2G11G16G19G 6
  21170884.1264    4015301.43047   3129196.56562
  21282664.2744  -14003970.08146 -10771985.29262
  22066197.1574   -7560681.77947  -5821875.10062
  23250342.5954   -2705252.71945  -1987520.73861
  20232065.6494   -3468194.97446  -2673617.95064
  23167683.0644   -3319271.15044   -837695.90861
 91  3 20 23 15 44.9970000  0  6G18G 2G11G16G19G 6
  21176394.0714    4044256.47347   3151758.84662
  21274536.0874  -14046680.93146 -10805266.38362
  22064551.6264   -7569332.19047  -5828615.67762
  23247266.329    -2721423.640 5  -2000121.45321
  20230815.0714   -3474757.71846  -2678731.77364
  23159163.2044   -3364035.35145   -872576.93561
 91  3 20 23 15 59.9970000  0  6G18G 2G11G16G19G 6
  21181919.517     4073290.166 7   3174382.42322
  21266422.0484  -14089325.41846 -10838495.76762
  22062932.7204   -7577836.98447  -5835242.78862
  23244212.4314   -2737471.71445  -2012626.44761
  20229572.7904   -3481276.60846  -2683811.42964
  23150642.337    -3408805.402 5   -907462.52821
 91  3 20 23 16 14.9970000  0  6G18G 2G11G16G19G 6
  21187460.610     4102414.563 7   3197076.68022
  21258321.0484  -14131891.33647 -10871663.91862
  22061344.4394   -7586183.99947  -5841746.94862
  23241187.5404   -2753384.95745  -2025026.37961
  20228348.8454   -3487739.31847  -2688847.30464
  23142128.673    -3453569.147 4   -942343.22321
 91  3 20 23 16 29.9970000  0  6G18G 2G11G16G19G 6
  21193017.009     4131614.058 7   3219829.45222
  21250235.4394  -14174394.11747 -10904782.87962
  22059783.032    -7594388.696 7  -5848140.20422
  23238178.9154   -2769179.00945  -2037333.43361
  20227124.4234   -3494161.17547  -2693851.34364
  23133602.2904   -3498342.17444   -977231.12961
 91  3 20 23 16 44.9970000  0  6G18G 2G11G16G19G 6
  21198592.0564    4160907.49647   3242655.42662
  21242162.1494  -14216814.36647 -10937837.53062
  22058252.3994   -7602431.92147  -5854407.63662
  23235199.3144   -2784834.71945  -2049532.69461
  20225914.4464   -3500522.77446  -2698808.43164
  23125087.017    -3543105.147 4  -1012111.21221
 91  3 20 23 16 59.9970000  0  6G18G 2G11G16G19G 6
  21204181.439     4190277.092 7   3265540.73822
  21234101.0714  -14259169.73747 -10970841.62862
  22056748.126    -7610331.121 7  -5860562.85222
  23232241.4704   -2800369.39845  -2061637.64961
  20224710.6574   -3506841.74047  -2703732.30464
  23116565.681    -3587875.734 4  -1046997.21121
 91  3 20 23 17 14.9970000  0  6G18G 2G11G16G19G 6
  21209787.5324    4219735.81547   3288495.50362
  21226057.2984  -14301447.19747 -11003785.00762
  22055275.806    -7618073.555 7  -5866595.90722
  23229311.4784   -2815770.18845  -2073638.28061
  20223520.6654   -3513105.09946  -2708612.84364
  23108047.1424   -3632641.05845  -1081879.14661
 91  3 20 23 17 29.9970000  0  6G18G 2G11G16G19G 6
  21215408.853     4249281.775 7   3311518.23622
  21218025.8454  -14343648.24947 -11036668.85862
  22053832.2744   -7625660.75247  -5872508.00262
  23226406.6814   -2831038.86645  -2085535.95061
  20222337.2674   -3519314.25547  -2713451.14564
  23099530.181    -3677402.550 5  -1116758.07321
 91  3 20 23 17 44.9970000  0  6G18G 2G11G16G19G 6
  21221047.6034    4278908.60947   3334603.99862
  21210009.4704  -14385778.86747 -11069497.81562
  22052416.3454   -7633098.67647  -5878303.79262
  23223526.2204   -2846181.34845  -2097335.29561
  20221166.5564   -3525475.18946  -2718251.87564
  23091009.7904   -3722166.47045  -1151638.91161
 91  3 20 23 17 59.9970000  0  6G18G 2G11G16G19G 6
  21226700.6894    4308617.68747   3357753.83262
  21202006.3604  -14427837.28447 -11102270.52162
  22051031.1424   -7640385.50347  -5883981.83362
  23220669.6734   -2861196.05445  -2109035.07061
  20220002.3454   -3531586.15946  -2723013.67064
  23082489.2904   -3766930.85245  -1186520.09361
 91  3 20 23 18 14.9970000  0  6G18G 2G11G16G19G 6
  21232368.853     4338408.355 7   3380967.25922
  21194015.7354  -14469824.12647 -11134987.45162
  22049672.5874   -7647521.95347  -5889542.69362
  23217835.9394   -2876083.86345  -2120635.97061
  20218849.1734   -3537647.63747  -2727736.89464
  23073975.2204   -3811696.47945  -1221402.22461
 91  3 20 23 18 29.9970000  0  6G18G 2G11G16G19G 6
  21238054.017     4368280.397 7   3404244.08922
  21186039.5244  -14511739.40447 -11167648.61762
  22048343.0714   -7654508.03047  -5894986.38162
  23215025.579    -2890844.628 5  -2132137.86221
  20217703.9074   -3543659.44847  -2732421.42764
  23065453.149    -3856463.445 4  -1256285.44721
 91  3 20 23 18 44.9970000  0  6G18G 2G11G16G19G 6
  21243753.5324    4398232.97247   3427583.67162
  21178076.345   -14553583.771 7 -11200254.53722
  22047043.0954   -7661344.34547  -5900313.37062
  23212239.3684   -2905479.32745  -2143541.52361
  20216570.2204   -3549622.17247  -2737067.70864
  23056933.884    -3901232.297 4  -1291170.11521
 91  3 20 23 18 59.9970000  0  6G18G 2G11G16G19G 6
  21249471.243     4428274.841 7   3450992.83222
  21170126.9464  -14595348.00447 -11232798.00662
  22045769.4544   -7668021.86747  -5905516.63062
  23209480.017    -2919978.801 5  -2154839.83721
  20215449.8924   -3555526.46246  -2741668.45164
  23048418.603    -3945993.824 5  -1326049.07021
 91  3 20 23 19 14.9970000  0  6G18G 2G11G16G19G 6
  21255207.8604    4458418.05447   3474480.96562
  21162199.3294  -14637019.69747 -11265269.36962
  22044534.5874   -7674528.30747  -5910586.57561
  23206750.5094   -2934330.82645  -2166023.23161
  20214336.0794   -3561360.00447  -2746214.06964
  23039903.5484   -3990735.89144  -1360912.85961
 91  3 20 23 19 29.9970000  0  6G18G 2G11G16G19G 6
  21260958.1964    4488636.59747   3498027.78362
  21154281.353   -14678624.750 7 -11297688.81222
  22043323.0174   -7680889.54647  -5915543.37962
  23204041.8684   -2948561.28645  -2177111.92261
  20213238.0794   -3567148.77246  -2750724.80264
  23031388.470    -4035484.312 5  -1395781.60221
 91  3 20 23 19 44.9970000  0  6G18G 2G11G16G19G 6
  21266726.6894    4518941.97347   3521642.26462
  21146379.720   -14720151.467 7 -11330047.20722
  22042141.9854   -7687093.77447  -5920377.83562
  23201361.4314   -2962658.49645  -2188096.78161
  20212146.2514   -3572880.83746  -2755191.34764
  23022874.2824   -4080227.44945  -1430646.24761
 91  3 20 23 19 59.9970000  0  6G18G 2G11G16G19G 6
  21272505.2984    4549319.23347   3545312.76662
  21138488.5954  -14761614.54547 -11362356.01362
  22040989.5324   -7693155.80347  -5925101.49862
  23198700.9314   -2976637.21845  -2198989.30761
  20211061.9704   -3578570.83747  -2759625.11064
  23014357.1894   -4124979.98745  -1465518.20061
 91  3 20 23 20 14.9970000  0  6G18G 2G11G16G19G 6
  21278301.5324    4579777.73447   3569046.57662
  21130612.001   -14803004.119 7 -11394607.54622
  22039865.4784   -7699066.00547  -5929706.84862
  23196065.892    -2990487.855 5  -2209782.02721
  20209985.7204   -3584209.01747  -2764018.50064
  23005840.0794   -4169732.27545  -1500389.96261
 91  3 20 23 20 29.9970000  0  6G18G 2G11G16G19G 6
  21284111.6034    4610310.81647   3592838.50062
  21122749.0484  -14844326.87947 -11426807.01462
  22038768.8994   -7704830.80047  -5934198.89862
  23193453.9544   -3004216.95245  -2220480.03461
  20208920.4464   -3589801.63347  -2768376.38064
  22997321.978    -4214490.694 5  -1535266.48521
 91  3 20 23 20 44.9970000  0  6G18G 2G11G16G19G 6
  21289937.4154    4640930.10647   3616697.59962
  21114900.5874  -14885570.53147 -11458944.83862
  22037698.6184   -7710438.21547
  23190864.1344   -3017812.55845  -2231074.01761
  20207872.7354   -3595336.50647
  22988807.4234   -4259243.31145  -1570138.51761
 91  3 20 23 20 59.9970000  0  6G18G 2G11G16G19G 6
  21295778.1424    4671614.78047   3640607.64262
  21107062.446   -14926755.977 7 -11491037.31222
  22036658.4314   -7715909.23246
  23188297.6894   -3031295.78645  -2241580.43861
  20206822.9074   -3600834.50947
  22980290.767    -4304011.069 5  -1605022.32421
 91  3 20 23 21 14.9970000  0  6G18G 2G11G16G19G 6
  21301632.2514    4702377.55047   3664578.54962
  21099239.845   -14967870.214 7 -11523074.29322
  22035647.7284   -7721230.71046  -5946978.03562
  23185756.329    -3044653.665 5  -2251989.18221
  20205787.2514   -3606282.54147  -2781218.65664
  22971769.5324   -4348780.88845  -1639907.75361
 91  3 20 23 21 29.9970000  0  6G18G 2G11G16G19G 6
  21307501.4854    4733226.52947   3688616.61662
  21091429.345   -15008904.922 7 -11555049.30822
  22034666.2434   -7726394.39947  -5951001.68661
  23183241.181    -3057877.900 5  -2262293.80021
  20204758.9234   -3611672.23647  -2785418.41664
  22963252.446    -4393544.501 5  -1674788.32221
 91  3 20 23 21 44.9970000  0  6G18G 2G11G16G19G 6
  21313388.4854    4764154.29347   3712716.07462
  21083635.079   -15049867.118 7 -11586967.81922
  22033710.3924   -7731407.42647  -5954907.93761
  23180747.5014   -3070975.79445  -2272499.93461
  20203747.5484   -3617010.57746  -2789578.16464
  22954734.571    -4438309.055 5  -1709669.63621
 91  3 20 23 21 59.9970000  0  6G18G 2G11G16G19G 6
  21319287.5714    4795155.64347   3736872.87362
  21075852.7674  -15090761.73347 -11618833.67162
  22032782.532    -7736274.649 7  -5958700.57322
  23178277.2514   -3083951.98645  -2282611.27961
  20202742.6034   -3622302.31446  -2793701.59564
  22946214.6034   -4483079.22845  -1744555.31161
 91  3 20 23 22 14.9970000  0  6G18G 2G11G16G19G 6
  21325199.423     4826229.414 7   3761086.12222
  21068085.5484  -15131589.82947 -11650647.68662
  22031888.2744   -7740997.27747  -5962380.53461
  23175830.962    -3096807.676 5  -2292628.70921
  20201741.0484   -3627548.40347  -2797789.45364
  22937689.1894   -4527856.32645  -1779446.40161
 91  3 20 23 22 29.9970000  0  6G18G 2G11G16G19G 6
  21331126.6814    4857380.03446   3785359.23362
  21060328.5484  -15172346.82447 -11682406.29962
  22031015.1654   -7745570.76347  -5965944.28462
  23173410.087    -3109538.815 5  -2302549.08821
  20200750.4314   -3632744.25847  -2801838.17064
  22929171.439    -4572635.651 5  -1814339.23621
 91  3 20 23 22 44.9970000  0  6G18G 2G11G16G19G 6
  21337071.8214    4888612.47947   3809696.11162
  21052586.157   -15213027.185 7 -11714105.19922
  22030172.6734   -7749989.65747  -5969387.57462
  23171013.399    -3122139.418 5  -2312367.75521
  20199773.6344   -3637884.27446  -2805843.37664
  22920651.0014   -4617411.75645  -1849229.54961
 91  3 20 23 22 59.9970000  0  6G18G 2G11G16G19G 6
  21343029.6034    4919923.95647   3834094.57362
  21044859.962   -15253633.378 7 -11745746.30822
  22029361.2984   -7754256.63446  -5972712.49161
  23168640.9624   -3134612.53445  -2322087.07661
  20198807.8604   -3642970.92247  -2809806.99764
  22912125.9704   -4662187.30345  -1884119.44261
 91  3 20 23 23 14.9970000  0  6G18G 2G11G16G19G 6
  21349004.939     4951317.905 7   3858557.28522
  21037146.274   -15294162.013 7 -11777326.98222
  22028580.0644   -7758368.25946  -5975916.35862
  23166291.1964   -3146954.86345  -2331704.50561
  20197847.5714   -3648000.60147  -2813726.22664
  22903608.1344   -4706958.75145  -1919006.16161
 91  3 20 23 23 29.9970000  0  6G18G 2G11G16G19G 6
  21354993.4854    4982789.01747   3883080.13762
  21029448.314   -15334618.076 7 -11808851.10522
  22027824.4704   -7762329.46347  -5979003.00362
  23163965.212    -3159171.318 5  -2341223.82021
  20196901.0404   -3652978.33947  -2817604.97564
  22895089.1574   -4751731.08745  -1953893.54161
 91  3 20 23 23 44.9970000  0  6G18G 2G11G16G19G 6
  21360996.0014    5014335.22047   3907661.49062
  21021762.876   -15375003.057 7 -11840319.83922
  22027099.0174   -7766141.96547  -5981973.77962
  23161663.9784   -3171263.79645  -2350646.54561
  20195965.1964   -3657905.47546  -2821444.30364
  22886569.2434   -4796506.09945  -1988783.01661
 91  3 20 23 23 59.9970000  0  6G18G 2G11G16G19G 6
  21367012.6424    5045955.81147   3932300.81662
  21014091.9154  -15415317.45247 -11871733.57162
  22026403.7284   -7769806.21747  -5984829.03661
  23159386.8064   -3183232.92545  -2359973.14161
  20195033.5714   -3662782.53447  -2825244.60764
  22878049.556    -4841284.162 5  -2023674.87121
 91  3 20 23 24 14.9970000  0  6G18G 2G11G16G19G 6
  21373043.7514    5077648.04247   3956995.96962
  21006432.5874  -15455563.90247 -11903094.35862
  22025734.1894   -7773325.07146  -5987571.00162
  23157132.4704   -3195081.42445  -2369205.77961
  20194118.3534   -3667612.17747  -2829007.96364
  22869527.806    -4886068.075 5  -2058571.26121
 91  3 20 23 24 29.9970000  0  6G18G 2G11G16G19G 6
  21379088.2904    5109414.14647   3981748.67862
  20998786.478   -15495739.961 7 -11934400.29222
  22025091.2984   -7776696.04246  -5990197.72562
  23154899.337    -3206806.770 5  -2378342.43221
  20193205.4544   -3672391.64947  -2832732.22464
  22861003.274    -4930855.216 5  -2093470.19321
 91  3 20 23 24 44.9970000  0  6G18G 2G11G16G19G 6
  21385150.306     5141256.475 7   4006560.77522
  20991156.970   -15535842.988 7 -11965649.32222
  22024477.9934   -7779916.59946  -5992707.24362
  23152691.634    -3218406.310 5  -2387381.05321
  20192308.7044   -3677118.38947  -2836415.39764
  22852480.087    -4975643.018 5  -2128369.62721
 91  3 20 23 24 59.9970000  0  6G18G 2G11G16G19G 6
  21391219.923     5173165.808 7   4031425.07922
  20983537.853   -15575881.914 7 -11996848.40222
  22023892.5644   -7782995.79246  -5995106.62361
  23150505.392    -3229889.181 5  -2396328.76421
  20191415.8144   -3681801.18747  -2840064.32964
  22843956.4154   -5020440.44145  -2163276.56361
 91  3 20 23 25 14.9970000  0  6G18G 2G11G16G19G 6
  21397308.8064    5205156.97147   4056353.16262
  20975932.196   -15615841.660 6 -12027985.78322
  22023339.2354   -7785918.59047  -5997384.13062
  23148347.212    -3241240.666 5  -2405174.09121
  20190536.7284   -3686424.93146  -2843667.24864
  22835432.6574   -5065232.48645  -2198179.32061
 91  3 20 23 25 29.9970000  0  6G18G 2G11G16G19G 6
  21403410.4544    5237223.04847   4081339.61362
  20968341.993   -15655728.865 6 -12059066.63922
  22022810.1424   -7788691.71247  -5999545.00461
  23146211.173    -3252467.464 5  -2413922.28021
  20189666.1894   -3690996.11047  -2847229.20264
  22826908.056    -5110025.792 5  -2233083.05121
 91  3 20 23 25 44.9970000  0  6G18G 2G11G16G19G 6
  21409525.189     5269359.176 7   4106380.64622
  20960765.360   -15695547.982 7 -12090094.44022
  22022307.5404   -7791319.77347  -6001592.83661
  23144098.0174   -3263574.21745  -2422576.91361
  20188808.3064   -3695519.17447  -2850753.67164
  22818382.4854   -5154824.88545  -2267991.27861
 91  3 20 23 25 59.9970000  0  6G18G 2G11G16G19G 6
  21415656.9934    5301580.71947   4131488.24662
  20953203.868   -15735283.523 7 -12121057.12022
  22021839.1184   -7793787.31147  -6003515.60061
  23142009.9624   -3274545.55845  -2431126.03961
  20187956.5954   -3699978.57647  -2854228.53264
  22809858.8924   -5199614.24145  -2302891.93261
 91  3 20 23 26 14.9970000  0  6G18G 2G11G16G19G 6
  21421804.7744    5333884.36447   4156659.82662
  20945658.110   -15774938.613 7 -12151957.10722
  22021400.4624   -7796097.56046  -6005315.80061
  23139948.1964   -3285384.82445  -2439572.23161
  20187121.5714   -3704377.23847  -2857656.06064
  22801338.868    -5244397.031 5  -2337787.47021
 91  3 20 23 26 29.9970000  0  6G18G 2G11G16G19G 6
  21427966.1184    5366266.88047   4181892.86062
  20938126.665   -15814516.257 7 -12182796.74922
  22020987.2514   -7798253.42346  -6006995.69762
  23137908.462    -3296094.921 5  -2447917.78621
  20186296.1734   -3708718.04247  -2861038.51164
  22792814.103    -5289176.128 5  -2372680.13621
 91  3 20 23 26 44.9970000  0  6G18G 2G11G16G19G 6
  21434141.970     5398715.968 7   4207177.75022
  20930606.634   -15854028.366 7 -12213585.32522
  22020607.4704   -7800266.84346  -6008564.59662
  23135890.4934   -3306688.03445  -2456172.19061
  20185477.8294   -3713012.94946  -2864385.19664
  22784292.4154   -5333963.51545  -2407579.25461
 91  3 20 23 26 59.9970000  0  6G18G 2G11G16G19G 6
  21440333.595     5431246.965 7   4232526.46922
  20923103.368   -15893459.737 7 -12244310.98622
  22020252.2904   -7802122.65746  -6010010.68762
  23133905.0954   -3317148.89345  -2464323.52361
  20184671.9704   -3717246.35747  -2867683.95764
  22775771.548    -5378743.881 5  -2442472.90921
 91  3 20 23 27 14.9970000  0  6G18G 2G11G16G19G 6
  21446537.337     5463849.265 7   4257930.75622
  20915614.384   -15932820.294 7 -12274981.46322
  22019928.6104   -7803831.10146  -6011341.94662
  23131933.337    -3327487.884 5  -2472379.91021
  20183876.7204   -3721428.37246  -2870942.67264
  22767250.048    -5423527.185 5  -2477368.84821
 91  3 20 23 27 29.9970000  0  6G18G 2G11G16G19G 6
  21452753.462     5496525.680 6   4283392.77722
  20908137.329   -15972106.977 7 -12305594.38222
  22019631.0644   -7805389.23046  -6012556.06861
  23129989.860    -3337701.773 5  -2480338.80721
  20183089.0404   -3725555.87046  -2874158.90964
  22758726.392    -5468310.537 5  -2512264.84421
 91  3 20 23 27 44.9970000  0  6G18G 2G11G16G19G 6
  21458989.009     5529281.509 7   4308916.69521
  20900675.9464  -16011314.17847 -12336145.36062
  22019364.6104   -7806791.49747  -6013648.74362
  23128072.017    -3347785.154 5  -2488196.01921
  20182317.2674   -3729623.12646  -2877328.20164
  22750207.0324   -5513088.34945  -2547156.51561
 91  3 20 23 27 59.9970000  0  6G18G 2G11G16G19G 6
  21465235.1894    5562109.57747   4334496.90661
  20893229.759   -16050448.840 7 -12366639.82022
  22019125.7354   -7808045.05246  -6014625.54062
  23126178.3604   -3357745.18745  -2495957.12561
  20181551.0564   -3733637.06446  -2880455.94964
  22741683.220    -5557867.642 5  -2582049.32921
 91  3 20 23 28 14.9970000  0  6G18G 2G11G16G19G 6
  21471495.634     5595013.537 6   4360136.25421
  20885797.345   -16089507.133 7 -12397074.77322
  22018916.4544   -7809146.00746  -6015483.43562
  23124306.673    -3367578.027 5  -2503619.07321
  20180800.6184   -3737593.76546  -2883539.09464
  22733162.345    -5602644.556 5  -2616940.30021
 91  3 20 23 28 29.9970000  0  6G18G 2G11G16G19G 6
  21477773.001     5627986.856 7   4385829.63221
  20878377.915   -16128495.341 7 -12427455.10922
  22018735.798    -7810100.593 6  -6016227.28121
  23122460.4234   -3377290.19445  -2511187.04761
  20180053.4854   -3741499.30546  -2886582.37764
  22724642.290    -5647425.277 5  -2651834.22621
 91  3 20 23 28 44.9970000  0  6G18G 2G11G16G19G 6
  21484060.5404    5661029.25247   4411576.85561
  20870971.103   -16167413.410 7 -12457780.79522
  22018580.774    -7810908.980 6  -6016857.20522
  23120630.9934   -3386881.55545  -2518660.83061
  20179323.0714   -3745353.66146  -2889585.77664
  22716119.9154   -5692209.70045  -2686731.06561
 91  3 20 23 28 59.9970000  0  6G18G 2G11G16G19G 6
  21490362.6654    5694146.60447   4437382.48661
  20863579.032   -16206255.512 7 -12488047.28722
  22018457.954    -7811565.340 7  -6017368.66922
  23118833.259    -3396346.378 5  -2526036.08621
  20178598.1264   -3749150.87146  -2892544.64764
  22707598.626    -5736992.081 5  -2721626.27421
 91  3 20 23 29 14.9970000  0  6G18G 2G11G16G19G 6
  21496679.610     5727343.530 6   4463250.09521
  20856203.470   -16245016.483 7 -12518250.55622
  22018359.4624   -7812064.54047  -6017757.66962
  23117059.9704   -3405680.00145  -2533309.06461
  20177890.2284   -3752885.59546  -2895454.82664
  22699078.032    -5781767.181 5  -2756515.82721
 91  3 20 23 29 29.9970000  0  6G18G 2G11G16G19G 6
  21503012.368     5760617.457 7   4489177.71921
  20848842.774   -16283698.520 7 -12548392.32322
  22018296.8534   -7812409.00146  -6018026.08262
  23115303.1964   -3414884.88445  -2540481.72261
  20177190.5174   -3756560.07346  -2898318.06164
  22690558.2204   -5826537.36745  -2791401.53861
 91  3 20 23 29 44.9970000  0  6G18G 2G11G16G19G 6
  21509355.6894    5793963.06147   4515161.20561
  20841495.439   -16322306.814 7 -12578476.62922
  22018259.5874   -7812603.92447
  23113576.118    -3423966.059 5  -2547557.98221
  20176503.4314   -3760179.37946  -2901138.30263
  22682036.774    -5871307.702 5  -2826287.36521
 91  3 20 23 29 59.9970000  0  6G18G 2G11G16G19G 6
  21515713.759     5827376.288 7   4541197.38221
  20834161.7124  -16360845.04147 -12608506.33162
  22018247.5244   -7812653.19947
  23111869.2434   -3432927.37245  -2554540.87161
  20175821.2124   -3763747.10646  -2903918.35863
  22673515.3844   -5916082.00945  -2861176.29661
 91  3 20 23 30 14.9970000  0  6G18G 2G11G16G19G 6
  21522088.3994    5860866.86047   4567293.83261
  20826842.587   -16399303.432 7 -12638473.82422
  22018269.1964   -7812547.19347
  23110193.5324   -3441759.41145  -2561422.99561
  20175157.0094   -3767253.28846  -2906650.44963
  22664999.3764   -5960850.45845  -2896060.66961
 91  3 20 23 30 29.9970000  0  6G18G 2G11G16G19G 6
  21528474.493     5894425.529 7   4593443.33721
  20819539.595   -16437690.838 7 -12668386.00322
  22018314.6344   -7812294.85147
  23108532.157    -3450471.063 5  -2568211.32121
  20174501.2674   -3770707.03046  -2909341.67963
  22656481.923    -6005622.046 5  -2930947.48521
 91  3 20 23 30 44.9970000  0  6G18G 2G11G16G19G 6
  21534871.2594    5928046.58347   4619641.45361
  20812246.9234  -16476012.82747 -12698247.21162
  22018391.3454   -7811901.67847
  23106897.782    -3459067.794 5  -2574910.09821
  20173850.3454   -3774113.58946  -2911996.14563
  22647956.5794   -6050402.11045  -2965840.91161
 91  3 20 23 30 59.9970000  0  6G18G 2G11G16G19G 6
  21541281.095     5961730.275 6   4645888.38521
  20804967.196   -16514268.777 7 -12728056.95922
  22018493.5094   -7811367.24347  -6017214.34962
  23105285.892    -3467549.301 5  -2581519.11021
  20173210.1814   -3777472.31946  -2914613.33963
  22639432.095    -6095190.069 5  -3000740.48721
 91  3 20 23 31 14.9970000  0  6G18G 2G11G16G19G 6
  21547706.501     5995492.765 6   4672196.70221
  20797703.087   -16552441.974 7 -12757802.23222
  22018627.8294   -7810675.09947  -6016675.02862
  23103695.3994   -3475899.17745  -2588025.51661
  20172585.2124   -3780766.54246  -2917180.27563
  22630913.032    -6139969.391 5  -3035633.33821
 91  3 20 23 31 29.9970000  0  6G18G 2G11G16G19G 6
  21554145.993     6029327.641 6   4698561.43321
  20790452.923   -16590539.243 7 -12787488.33522
  22018785.8454   -7809831.93447  -6016018.01862
  23102125.3844   -3484124.07045  -2594434.55161
  20171971.0324   -3784002.67346  -2919701.94063
  22622391.282    -6184746.666 5  -3070524.56821
 91  3 20 23 31 44.9970000  0  6G18G 2G11G16G19G 6
  21560593.946     6063223.498 6   4724973.67921
  20783216.212   -16628571.256 7 -12817123.59322
  22018971.7824   -7808848.55447  -6015251.75862
  23100580.462    -3492234.960 5  -2600754.74321
  20171364.4154   -3787191.36146  -2922186.63563
  22613868.0874   -6229532.53745  -3105422.52761
 91  3 20 23 31 59.9970000  0  6G18G 2G11G16G19G 6
  21567058.0324    6097193.14246   4751443.41961
  20775993.970   -16666525.080 7 -12846697.91822
  22019189.4154   -7807712.11947  -6014366.23562
  23099063.642    -3500218.976 5  -2606976.06821
  20170768.3764   -3790319.68346  -2924624.29263
  22605348.181    -6274314.114 5  -3140317.11521
 91  3 20 23 32 14.9970000  0  6G18G 2G11G16G19G 6
  21573537.610     6131229.048 6   4777964.79421
  20768784.353   -16704407.921 7 -12876216.93722
  22019435.7434   -7806430.04547  -6013367.22362
  23097566.946    -3508083.639 4  -2613104.42321
  20170181.087    -3793394.580 6  -2927020.32823
  22596824.165    -6319098.658 5  -3175214.02121
 91  3 20 23 32 29.9970000  0  6G18G 2G11G16G19G 6
  21580025.1654    6165325.63646   4804533.45162
  20761587.876   -16742225.340 7 -12905684.98222
  22019704.8844   -7805007.80847  -6012258.99962
  23096095.4394   -3515834.65344  -2619144.18461
  20169605.4074   -3796421.51846  -2929378.98663
  22588302.524    -6363891.570 5  -3210117.44821
 91  3 20 23 32 44.9970000  0  6G18G 2G11G16G19G 6
  21586525.204     6199488.308 6   4831153.60322
  20754406.571   -16779971.764 7 -12935097.70822
  22020004.5244   -7803440.04147  -6011037.37062
  23094642.5564   -3523466.38745  -2625091.04761
  20169039.7124   -3799394.91146  -2931695.92863
  22579777.157    -6408687.460 5  -3245023.20521
 91  3 20 23 32 59.9970000  0  6G18G 2G11G16G19G 6
  21593042.3764    6233718.63046   4857826.45761
  20747237.618   -16817645.040 7 -12964453.43622
  22020329.837    -7801724.578 7  -6009700.67022
  23093213.376    -3530976.831 5  -2630943.33421
  20168482.4934   -3802312.31047  -2933969.23063
  22571253.3374   -6453484.04845  -3279929.50361
 91  3 20 23 33 14.9970000  0  6G18G 2G11G16G19G 6
  21599568.2284    6268019.67646   4884554.41761
  20740082.759   -16855241.642 7 -12993749.41723
  22020683.610    -7799858.239 7  -6008246.41022
  23091807.0174   -3538362.94245  -2636698.80861
  20167940.985    -3805170.448 7  -2936196.36923
  22562728.3144   -6498278.00545  -3314833.76961
 91  3 20 23 33 29.9970000  0  6G18G 2G11G16G19G 6
  21606107.493     6302385.726 6   4911333.04221
  20732940.173   -16892767.155 7 -13022990.00723
  22021068.782    -7797846.731 7  -6006679.01622
  23090426.3534   -3545630.59545  -2642361.98561
  20167406.181    -3807974.770 7  -2938381.56923
  22554205.4314   -6543074.80145  -3349740.23761
 91  3 20 23 33 44.9970000  0  6G18G 2G11G16G19G 6
  21612659.353     6336822.902 6   4938167.09321
  20725814.157   -16930215.441 7 -13052170.41923
  22021477.5244   -7795683.85347  -6004993.66862
  23089065.376    -3552773.318 5  -2647927.73921
  20166886.3374   -3810718.84247  -2940519.81563
  22545679.899    -6587868.145 5  -3384644.00921
 91  3 20 23 33 59.9970000  0  6G18G 2G11G16G19G 6
  21619225.126     6371318.771 6   4965046.87821
  20718699.079   -16967598.977 7 -13081300.37223
  22021916.071    -7793382.023 7  -6003200.05822
  23087722.2824   -3559803.41944  -2653405.76261
  20166370.1574   -3813414.99447  -2942620.71763
  22537153.626    -6632670.493 5  -3419554.78421
 91  3 20 23 34 14.9970000  0  6G18G 2G11G16G19G 6
  21625803.493     6405892.272 6   4991987.16421
  20711602.556   -17004898.113 7 -13110364.56423
  22022386.548    -7790921.984 7  -6001283.15922
  23086414.642    -3566701.892 4  -2658781.22921
  20165872.4314   -3816043.51847  -2944668.92663
  22528630.6424   -6677462.22245  -3454457.30261
 91  3 20 23 34 29.9970000  0  6G18G 2G11G16G19G 6
  21632395.329     6440529.670 6   5018977.23421
  20704516.368   -17042126.129 7 -13139373.33523
  22022880.3214   -7788317.04747  -5999253.34762
  23085121.5564   -3573482.14744  -2664064.57861
  20165385.4154   -3818617.74946  -2946674.82263
  22520106.3534   -6722256.65045  -3489361.91261
 91  3 20 23 34 44.9970000  0  6G18G 2G11G16G19G 6
  21639002.0954    6475239.46146   5046023.70261
  20697449.001   -17079274.524 7 -13168320.05923
  22023404.6494   -7785558.84247  -5997104.09862
  23083857.954    -3580136.094 4  -2669249.47821
  20164905.8144   -3821128.92047  -2948631.58763
  22511583.360    -6767045.185 5  -3524261.93721
 91  3 20 23 34 59.9970000  0  6G18G 2G11G16G19G 6
  21645620.212     6510016.693 6   5073122.73521
  20690393.103   -17116348.117 7 -13197208.50222
  22023960.524    -7782652.374 7  -5994839.33822
  23082612.884    -3586668.462 4  -2674339.65621
  20164437.7044   -3823581.99147  -2950543.07563
  22503060.6184   -6811832.79545  -3559161.24261
 91  3 20 23 35 14.9970000  0  6G18G 2G11G16G19G 6
  21652248.6034    6544852.48746   5100267.38161
  20683351.509   -17153355.322 7 -13226045.21322
  22024538.204    -7779606.171 7  -5992465.68622
  23081395.321    -3593087.885 4  -2679341.85921
  20163980.4704   -3825985.33047  -2952415.81263
  22494536.2674   -6856627.79545  -3594066.29861
 91  3 20 23 35 29.9970000  0  6G18G 2G11G16G19G 6
  21658890.1894    6579758.01546   5127466.37361
  20676324.439   -17190284.450 7 -13254821.08623
  22025145.071    -7776408.741 6  -5989974.20022
  23080196.220    -3599382.972 4  -2684247.17021
  20163537.3844   -3828327.00547  -2954240.50063
  22486013.821    -6901418.652 5  -3628968.11721
 91  3 20 23 35 44.9970000  0  6G18G 2G11G16G19G 6
  21665546.181     6614734.976 6   5154721.03821
  20669311.173   -17227134.018 7 -13283534.96023
  22025783.579    -7773058.658 6  -5987363.76422
  23079026.9544   -3605552.27344  -2689054.44561
  20163100.6344   -3830605.45647  -2956015.92563
  22477490.454    -6946203.643 5  -3663865.38221
 91  3 20 23 35 59.9970000  0  6G18G 2G11G16G19G 6
  21672217.1494    6649785.72546   5182033.19561
  20662315.0564  -17263901.22147 -13312184.65863
  22026449.5174   -7769553.10646  -5984632.17762
  23077869.8604   -3611593.26145  -2693761.72361
  20162681.2354   -3832817.81447  -2957739.84663
  22468968.2124   -6990979.95945  -3698755.87961
 91  3 20 23 36 14.9960000  0  6G18G 2G11G16G19G 6
  21678897.262     6684899.338 6   5209394.33821
  20655332.449   -17300592.004 7 -13340774.80823
  22027145.5904   -7765900.82947  -5981786.25462
  23076746.309    -3617513.790 5  -2698375.17321
  20162271.9814   -3834972.13947  -2959418.54363
  22460445.559    -7035752.978 5  -3733643.80021
 91  3 20 23 36 29.9960000  0  6G18G 2G11G16G19G 6
  21685593.3484    6720082.13846   5236809.38261
  20648365.324   -17337209.524 7 -13369307.87023
  22027870.106    -7762099.788 6  -5978824.42322
  23075640.1214   -3623312.88344  -2702893.98461
  20161872.3404   -3837066.71547  -2961050.68563
  22451929.1454   -7080526.80745  -3768532.35661
 91  3 20 23 36 44.9960000  0  6G18G 2G11G16G19G 6
  21692301.8094    6755339.25746   5264282.34861
  20641411.8094  -17373743.29447 -13397775.67663
  22028624.176    -7758142.339 7  -5975740.70922
  23074562.988    -3628982.569 5  -2707311.94621
  20161485.7464   -3839093.33847  -2962629.87763
  22443410.426    -7125290.511 5  -3803413.03421
 91  3 20 23 36 59.9960000  0  6G18G 2G11G16G19G 6
  21699021.3244    6790649.97946   5291797.07561
  20634473.0434  -17410213.94647 -13426194.29663
  22029402.3634   -7754049.32846  -5972551.36262
  23073504.051    -3634543.754 4  -2711645.38421
  20161109.9884   -3841072.48647  -2964172.06863
  22434888.8794   -7170064.80945  -3838301.95761
 91  3 20 23 37 14.9960000  0  6G18G 2G11G16G19G 6
  21705751.106     6826012.801 6   5319352.40921
  20627544.2934  -17446622.38247 -13454564.44263
  22030206.809    -7749821.831 6  -5969257.22422
  23072463.746    -3639997.526 4  -2715895.09821
  20160742.2704   -3843005.25647  -2965678.12363
  22426366.582    -7214850.622 5  -3873199.85521
 91  3 20 23 37 29.9960000  0  6G18G 2G11G16G19G 6
  21712493.4414    6861444.19246   5346961.15961
  20620630.910   -17482952.133 7 -13482873.26923
  22031039.426    -7745443.343 6  -5965845.43722
  23071453.199    -3645327.663 5  -2720048.49321
  20160385.8714   -3844874.97547  -2967135.05163
  22417842.574    -7259631.300 5  -3908093.76321
 91  3 20 23 37 44.9960000  0  6G18G 2G11G16G19G 6
  21719248.410     6896945.641 6   5374624.51521
  20613734.0744  -17519201.47447 -13511119.44263
  22031900.340    -7740912.293 6  -5962314.77322
  23070460.4024   -3650532.43944  -2724104.18561
  20160042.5824   -3846679.79847  -2968541.40463
  22409325.293    -7304405.022 5  -3942982.24221
 91  3 20 23 37 59.9960000  0  6G18G 2G11G16G19G 6
  21726018.785     6932516.421 6   5402341.89321
  20606850.0274  -17555371.01747 -13539303.43263
  22032791.871    -7736229.513 6  -5958665.87422
  23069493.5354   -3655612.53044  -2728062.73161
  20159712.5594   -3848420.28247  -2969897.62663
  22400806.012    -7349172.485 5  -3977865.84821
 91  3 20 23 38 14.9960000  0  6G18G 2G11G16G19G 6
  21732800.2154    6968152.58546   5430110.20161
  20599980.8794  -17591464.40747 -13567428.08963
  22033711.777    -7731398.759 6  -5954901.67122
  23068555.606    -3660571.654 5  -2731927.02821
  20159391.4104   -3850099.91047  -2971206.43163
  22392286.9494   -7393937.29645  -4012747.40361
 91  3 20 23 38 29.9960000  0  6G18G 2G11G16G19G 6
  21739595.0354    7003857.19746   5457931.85561
  20593127.3164  -17627478.16547 -13595490.69063
  22034658.7774   -7726416.53946  -5951019.45162
  23067632.8874   -3665406.72545  -2735694.64961
  20159082.8564   -3851715.04547  -2972464.97763
  22383771.1064   -7438695.90345  -4047624.08761
 91  3 20 23 38 44.9960000  0  6G18G 2G11G16G19G 6
  21746401.3324    7039624.74946   5485802.55461
  20586289.7464  -17663417.70547 -13623495.46663
  22035636.066    -7721288.450 6  -5947023.55722
  23066733.691    -3670123.194 4  -2739369.87021
  20158789.5824   -3853270.84747  -2973677.28663
  22375253.3794   -7483453.56645  -4082500.07861
 91  3 20 23 38 59.9960000  0  6G18G 2G11G16G19G 6
  21753218.0984    7075464.64046   5513729.63061
  20579467.1294  -17699273.24247 -13651434.77963
  22036641.285    -7716004.909 6  -5942906.52522
  23065862.6374   -3674711.34645  -2742945.09061
  20158507.1454   -3854757.61247  -2974835.80863
  22366735.793    -7528200.657 5  -4117367.78821
 91  3 20 23 39 14.9960000  0  6G18G 2G11G16G19G 6
  21760052.9814    7111372.86046   5541709.93461
  20572657.5594  -17735048.38247 -13679311.45063
  22037675.941    -7710569.604 6  -5938671.24322
  23065011.293    -3679175.342 5  -2746423.57521
  20158234.3244   -3856178.73347  -2975943.17563
  22358224.332    -7572940.632 5  -4152229.98121
 91  3 20 23 39 29.9960000  0  6G18G 2G11G16G19G 6
  21766900.223     7147346.404 6   5569741.14821
  20565864.9414  -17770746.07947 -13707127.77563
  22038738.223    -7704985.635 6  -5934320.12322
  23064185.402    -3683518.208 4  -2749807.65921
  20157976.3164   -3857537.13847  -2977001.67963
  22349712.660    -7617676.460 5  -4187088.94021
 91  3 20 23 39 44.9960000  0  6G18G 2G11G16G19G 6
  21773757.9104    7183386.82546   5597824.47861
  20559086.2234  -17806364.51247 -13734882.33263
  22039830.777    -7699251.323 6  -5929851.84822
  23063383.973    -3687738.144 5  -2753095.94521
  20157730.3564   -3858830.74247  -2978009.68863
  22341200.410    -7662406.241 5  -4221943.17521
 91  3 20 23 39 59.9960000  0  6G18G 2G11G16G19G 6
  21780629.262     7219490.026 6   5625956.70921
  20552322.8484  -17841907.34247 -13762577.97863
  22040948.746    -7693370.542 6  -5925269.44122
  23062607.629    -3691839.130 5  -2756291.56221
  20157495.7384   -3860063.29847  -2978970.12663
  22332686.3794   -7707133.64945  -4256795.56761
 91  3 20 23 40 14.9960000  0  6G18G 2G11G16G19G 6
  21787513.5124    7255661.39146   5654142.06661
  20545575.2934  -17877369.08547 -13790210.44463
  22042095.1214   -7687338.07946  -5920568.84862
  23061846.6454   -3695815.83544  -2759390.33061
  20157275.2074   -3861229.44347  -2979878.81963
  22324177.574    -7751853.306 5  -4291641.93621
 91  3 20 23 40 29.9960000  0  6G18G 2G11G16G19G 6
  21794409.348     7291902.083 6   5682381.44021
  20538841.8794  -17912748.10247 -13817778.44463
  22043273.887    -7681152.353 6  -5915748.82222
  23061112.4814   -3699666.55944  -2762390.93061
  20157065.6914   -3862327.33447  -2980734.32363
  22315668.965    -7796563.545 5  -4326480.94421
 91  3 20 23 40 44.9960000  0  6G18G 2G11G16G19G 6
  21801316.9654    7328206.42146   5710670.41461
  20532125.3564  -17948050.15047 -13845286.46763
  22044479.262    -7674819.073 6  -5910813.82822
  23060401.113    -3703397.490 4  -2765298.19021
  20156868.0904   -3863362.28747  -2981540.78663
  22307162.4184   -7841269.88145  -4361316.93761
 91  3 20 23 40 59.9960000  0  6G18G 2G11G16G19G 6
  21808238.8564    7364583.71146   5739016.23761
  20525424.9494  -17983265.73547 -13872727.12063
  22045713.754    -7668328.831 6  -5905756.51722
  23059718.7314   -3706999.33044  -2768104.87761
  20156683.7774   -3864324.66947  -2982290.69863
  22298660.1764   -7885962.59945  -4396142.30461
 91  3 20 23 41 14.9960000  0  6G18G 2G11G16G19G 6
  21815172.9734    7401022.26646   5767409.78561
  20518736.7934  -18018405.98447 -13900109.06763
  22046976.457    -7661692.996 6  -5900585.76322
  23059055.4104   -3710483.33644  -2770819.73161
  20156514.3564   -3865225.69547  -2982992.80563
  22290154.7384   -7930653.08145  -4430965.92761
 91  3 20 23 41 29.9960000  0  6G18G 2G11G16G19G 6
  21822120.1764    7437525.19946   5795853.51461
  20512064.9344  -18053467.66547 -13927429.79463
  22048267.4264   -7654908.48646  -5895299.15862
  23058413.4104   -3713846.48044  -2773440.39061
  20156353.4184   -3866061.91847  -2983644.41563
  22281651.1844   -7975337.96345  -4465785.18661
 91  3 20 23 41 44.9960000  0  6G18G 2G11G16G19G 6
  21829079.715     7474097.003 6   5824350.88421
  20505408.3164  -18088446.08547 -13954685.64163
  22049587.4024   -7647970.79546  -5889893.20162
  23057799.262    -3717083.916 5  -2775963.13321
  20156209.7314   -3866828.63047  -2984241.85663
  22273149.5824   -8020012.54945  -4500596.41961
 91  3 20 23 41 59.9960000  0  6G18G 2G11G16G19G 6
  21836051.340     7510731.002 6   5852896.71921
  20498767.0124  -18123347.63447 -13981881.59163
  22050936.207    -7640886.394 6  -5884372.90722
  23057204.762    -3720202.767 5  -2778393.48021
  20156073.5904   -3867532.02147  -2984789.96063
  22264649.0664   -8064683.01645  -4535404.44661
 91  3 20 23 42 14.9960000  0  6G18G 2G11G16G19G 6
  21843036.0904    7547429.99246   5881493.21561
  20492140.1064  -18158168.98147 -14009015.04463
  22052311.645    -7633652.169 6  -5878735.87422
  23056637.0664   -3723199.33245  -2780728.48061
  20155952.1914   -3868168.62347  -2985286.01763
  22256147.832    -8109346.184 5  -4570206.78321
 91  3 20 23 42 29.9960000  0  6G18G 2G11G16G19G 6
  21850031.1294    7584194.83746   5910141.02861
  20485528.6764  -18192909.42147 -14036085.45363
  22053718.1604   -7626267.60846  -5872981.70162
  23056091.4264   -3726073.21545  -2782967.93661
  20155843.1134   -3868737.67747  -2985729.44163
  22247650.2314   -8154001.14845  -4605002.73861
 91  3 20 23 42 44.9960000  0  6G18G 2G11G16G19G 6
  21857040.3404    7621028.69546   5938842.61161
  20478933.9734  -18227565.47947 -14063090.11463
  22055153.9344   -7618729.42246  -5867107.82062
  23055567.668    -3728821.395 5  -2785109.42821
  20155749.5044   -3869235.60447  -2986117.44563
  22239155.9814   -8198644.46745  -4639789.61361
 91  3 20 23 42 59.9960000  0  6G18G 2G11G16G19G 6
  21864061.0434    7657927.14446   5967594.53261
  20472354.6454  -18262141.33747 -14090032.28263
  22056614.441    -7611041.756 6  -5861117.45722
  23055067.598    -3731447.863 5  -2787156.08821
  20155671.1684   -3869666.44047  -2986453.17163
  22230662.0904   -8243280.24545  -4674570.61561
 91  3 20 23 43 14.9960000  0  6G18G 2G11G16G19G 6
  21871094.262     7694890.533 6   5996397.03621
  20465791.0434  -18296636.22447 -14116911.34763
  22058107.566    -7603204.152 6  -5855010.26221
  23054592.254    -3733952.075 5  -2789107.44721
  20155599.7464   -3870029.44947  -2986736.04663
  22222170.1294   -8287907.64645  -4709345.09261
 91  3 20 23 43 29.9960000  0  6G18G 2G11G16G19G 6
  21878138.590     7731915.141 6   6025247.24521
  20459241.2464  -18331053.30647 -14143729.78863
  22059625.7234   -7595220.03446  -5848788.90162
  23054136.5824   -3736337.85145  -2790966.53961
  20155541.3404   -3870327.89247  -2986968.59663
  22213678.621    -8332530.018 5  -4744115.63621
 91  3 20 23 43 44.9960000  0  6G18G 2G11G16G19G 6
  21885199.793     7769007.419 6   6054150.18621
  20452707.4494  -18365386.14547 -14170482.58763
  22061173.5664   -7587082.74946  -5842448.19061
  23053706.574    -3738598.727 5  -2792728.30821
  20155500.418    -3870554.924 6  -2987145.52023
  22205189.082    -8377140.639 5  -4778877.04121
 91  3 20 23 43 59.9960000  0  6G18G 2G11G16G19G 6
  21892270.1374    7806166.20346   6083104.96861
  20446190.8324  -18399635.79647 -14197170.56563
  22062752.059    -7578793.691 6  -5835989.21222
  23053302.988    -3740735.771 5  -2794393.58021
  20155471.9414   -3870711.34946
  22196701.4184   -8421740.52845  -4813630.08161
 91  3 20 23 44 14.9960000  0  6G18G 2G11G16G19G 6
  21899350.543     7843379.661 6   6112102.33021
  20439687.1294  -18433813.88747 -14223802.78063
  22064355.6994   -7570364.52646  -5829421.05862
  23052917.2314   -3742760.60645  -2795971.42161
  20155450.4964   -3870808.75646
  22188214.340    -8466341.188 5  -4848383.70521
 91  3 20 23 44 29.9960000  0  6G18G 2G11G16G19G 6
  21906446.902     7880662.303 6   6141153.60121
  20433198.0594  -18467905.46147 -14250367.58063
  22065990.4814   -7561780.66646  -5822732.36762
  23052555.606    -3744658.849 5  -2797450.61521
  20155447.6844   -3870832.24146
  22179729.059    -8510927.703 5  -4883126.31521
 91  3 20 23 44 44.9960000  0  6G18G 2G11G16G19G 6
  21913552.6524    7917997.68746   6170245.98661
  20426724.2234  -18501926.86847 -14276877.70563
  22067649.8094   -7553058.61246  -5815935.99762
  23052212.652    -3746447.243 5  -2798844.21121
  20155452.9184   -3870798.12546
  22171242.9814   -8555516.49845  -4917870.70561
 91  3 20 23 44 59.9960000  0  6G18G 2G11G16G19G 6
  21920667.4264    7955400.87646   6199391.20761
  20420266.9264  -18535862.53447 -14303321.02563
  22069337.6914   -7544183.04746  -5809020.00162
  23051898.277    -3748110.068 5  -2800139.98321
  20155475.6374   -3870690.53046
  22162762.4734   -8600091.93145  -4952604.69161
 91  3 20 23 45 14.9960000  0  6G18G 2G11G16G19G 6
  21927799.8714    7992868.23346   6228586.42561
  20413824.9574  -18569716.09347 -14329700.35763
  22071054.5124   -7535157.46846  -5801987.11462
  23051602.0044   -3749651.19945  -2801340.90661
  20155506.481    -3870512.829 6
  22154282.316    -8644657.393 5  -4987330.89321
 91  3 20 23 45 29.9960000  0  6G18G 2G11G16G19G 6
  21934939.535     8030391.214 6   6257824.98121
  20407395.8404  -18603495.69747 -14356022.06763
  22072799.9654   -7525990.16846  -5794843.79662
  23051331.356    -3751078.917 5  -2802453.45821
  20155550.4414   -3870273.15347
  22145801.9884   -8689220.96745  -5022055.63161
 91  3 20 23 45 44.9960000  0  6G18G 2G11G16G19G 6
  21942093.934     8067976.314 6   6287111.93021
  20400983.1374  -18637194.78747 -14382281.04063
  22074574.8484   -7516674.80546  -5787585.09961
  23051082.809    -3752386.971 5  -2803472.77221
  20155610.6604   -3869964.63746  -2986685.61164
  22137322.4184   -8733776.07645  -5056773.77461
 91  3 20 23 45 59.9960000  0  6G18G 2G11G16G19G 6
  21949257.3714    8105620.95946   6316445.29961
  20394585.2854  -18670815.56047 -14408478.98463
  22076373.7074   -7507213.97646  -5780213.05262
  23050859.301    -3753577.707 5  -2804400.67821
  20155680.7544   -3869589.68946  -2986393.45563
  22128846.0044   -8778324.95145  -5091487.06061
 91  3 20 23 46 14.9960000  0  6G18G 2G11G16G19G 6
  21956433.559     8143337.223 6   6345834.45521
  20388204.6684  -18704345.61847 -14434606.24163
  22078203.4264   -7497595.23646  -5772717.96262
  23050654.2544   -3754638.82045  -2805227.53061
  20155769.379    -3869135.666 6  -2986039.68623
  22120368.3014   -8822855.00445  -5126185.67661
 91  3 20 23 46 29.9960000  0  6G18G 2G11G16G19G 6
  21963622.699     8181112.506 6   6375269.59221
  20381838.9414  -18737797.59547 -14460672.66163
  22080063.215    -7487831.393 6  -5765109.79822
  23050472.2234   -3755583.26145  -2805963.51061
  20155865.707    -3868615.110 7  -2985634.07023
  22111898.082    -8867378.837 5  -5160879.46821
 91  3 20 23 46 44.9960000  0  6G18G 2G11G16G19G 6
  21970821.106     8218943.512 6   6404748.17321
  20375488.3954  -18771174.06647 -14486680.24563
  22081947.824    -7477925.205 6  -5757390.72122
  23050317.1764   -3756413.74045  -2806610.68161
  20155979.582    -3868030.773 6  -2985178.75624
  22103427.207    -8911898.988 5  -5195570.35721
 91  3 20 23 46 59.9960000  0  6G18G 2G11G16G19G 6
  21978029.184     8256823.368 6   6434264.80821
  20369150.7704  -18804481.63447 -14512634.13663
  22083857.8484   -7467883.46546  -5749566.00962
  23050178.6844   -3757136.95045  -2807174.27461
  20156103.613    -3867388.936 6  -2984678.64023
  22094952.9654   -8956421.99345  -5230263.48261
 91  3 20 23 47 14.9960000  0  6G18G 2G11G16G19G 6
  21985248.348     8294768.946 6   6463832.66521
  20362828.5904  -18837703.37447 -14538521.15163
  22085796.0514   -7457689.39446  -5741622.61862
  23050067.332    -3757736.027 5  -2807641.12821
  20156238.9884   -3866672.41846  -2984120.32863
  22086482.941    -9000930.847 5  -5264945.57921
 91  3 20 23 47 29.9960000  0  6G18G 2G11G16G19G 6
  21992480.1454    8332765.79446   6493440.44061
  20356519.4654  -18870853.81947 -14564352.60963
  22087763.902    -7447357.711 6  -5733571.99722
  23049971.777    -3758226.047 5  -2808023.01621
  20156383.652    -3865895.637 6  -2983515.05923
  22078013.9884   -9045440.02746  -5299627.93761
 91  3 20 23 47 44.9960000  0  6G18G 2G11G16G19G 6
  21999724.981     8370827.649 6   6523098.90021
  20350227.4344  -18903918.59047 -14590117.30463
  22089758.2464   -7436874.23946  -5725403.08762
  23049898.7154   -3758592.94545  -2808308.95361
  20156548.816    -3865044.192 6  -2982851.60723
  22069547.6604   -9089935.12945  -5334299.31961
 91  3 20 23 47 59.9960000  0  6G18G 2G11G16G19G 6
  22006977.4264    8408943.90046   6552799.75361
  20343950.1844  -18936907.96047 -14615823.24863
  22091779.7464   -7426249.43646  -5717124.05762
  23049853.988    -3758847.007 5  -2808506.98021
  20156723.613    -3864128.105 6  -2982137.79123
  22061079.8874   -9134426.33345  -5368967.67161
 91  3 20 23 48 14.9960000  0  6G18G 2G11G16G19G 6
  22014242.9104    8447115.33146   6582543.60161
  20337687.6914  -18969821.14747 -14641469.82863
  22093828.8244   -7415482.76346  -5708734.46862
  23049826.6764   -3758987.60245
  20156908.668    -3863146.645 6  -2981373.03224
  22052614.723    -9178912.760 5  -5403632.30021
 91  3 20 23 48 29.9960000  0  6G18G 2G11G16G19G 6
  22021518.543     8485351.412 6   6612337.80021
  20331441.0744  -19002648.63047 -14667049.62863
  22095905.996    -7404564.768 6  -5700226.96021
  23049821.2154   -3759004.99145
  20157109.3014   -3862090.02846  -2980549.70364
  22044151.0594   -9223384.81245  -5438285.72461
 91  3 20 23 48 44.9960000  0  6G18G 2G11G16G19G 6
  22028804.9964    8523649.56246   6642180.36861
  20325209.6374  -19035392.44147 -14692564.22663
  22098012.934    -7393497.745 6  -5691603.33321
  23049843.0124   -3758901.70345
  20157324.262    -3860960.440 6  -2979669.52123
  22035692.6454   -9267844.46045  -5472929.47761
 91  3 20 23 48 59.9960000  0  6G18G 2G11G16G19G 6
  22036102.449     8562000.027 6   6672063.70721
  20318992.6914  -19068061.75847 -14718020.77963
  22100145.449    -7382290.975 6  -5682870.81322
  23049884.996    -3758687.632 5
  20157551.606    -3859766.707 6  -2978739.35124
  22027230.3404   -9312300.79245  -5507570.66761
 91  3 20 23 49 14.9960000  0  6G18G 2G11G16G19G 6
  22043412.4884    8600405.17046   6701989.63961
  20312789.6134  -19100654.78147 -14743417.88163
  22102305.4344   -7370942.54146  -5674027.91362
  23049947.746    -3758360.491 5
  20157791.684    -3858506.772 6  -2977757.60224
  22018772.621    -9356751.815 5  -5542207.70421
 91  3 20 23 49 29.9960000  0  6G18G 2G11G16G19G 6
  22050729.840     8638865.671 6   6731958.73121
  20306601.379   -19133170.284 7 -14768754.58423
  22104491.2464   -7359451.51946  -5665073.90962
  23050031.5124   -3757919.49745  -2807784.59161
  20158045.410    -3857179.348 6  -2976723.27024
  22010314.7384   -9401196.21745  -5576839.59361
 91  3 20 23 49 44.9960000  0  6G18G 2G11G16G19G 6
  22058059.926     8677383.165 6   6761972.23021
  20300428.9654  -19165606.10647 -14794029.19463
  22106704.113    -7347816.073 6  -5656007.37222
  23050132.6994   -3757362.69045  -2807350.78261
  20158312.121    -3855782.331 6  -2975634.69724
  22001857.731    -9445631.995 5  -5611464.76621
 91  3 20 23 49 59.9960000  0  6G18G 2G11G16G19G 6
  22065399.4414    8715951.92346   6792025.65361
  20294271.3714  -19197967.71347 -14819245.97363
  22108946.9264   -7336041.95946  -5646832.77362
  23050259.598    -3756695.698 5  -2806831.09221
  20158588.4574   -3854321.08346  -2974496.07463
  21993404.8244   -9490064.41545  -5646087.30561
 91  3 20 23 50 14.9960000  0  6G18G 2G11G16G19G 6
  22072750.0744    8754579.03846   6822124.56861
  20288129.832   -19230247.971 7 -14844399.36823
  22111214.9414   -7324122.13346  -5637544.63561
  23050410.801    -3755911.799 5  -2806220.34721
  20158880.1064   -3852788.26046  -2973301.67563
  21984949.824    -9534486.374 5  -5680701.69921
 91  3 20 23 50 29.9960000  0  6G18G 2G11G16G19G 6
  22080112.793     8793265.029 6   6852269.35421
  20282001.4814  -19262445.93047 -14869488.62763
  22113510.7234   -7312055.93246  -5628142.43861
  23050581.457    -3755010.386 5  -2805518.01321
  20159184.598    -3851182.788 6  -2972050.67223
  21976498.3564   -9578896.74645  -5715307.06061
 91  3 20 23 50 44.9960000  0  6G18G 2G11G16G19G 6
  22087486.340     8832010.430 6   6882460.45321
  20275890.1524  -19294561.06547 -14894513.34563
  22115835.699    -7299842.953 6  -5618625.85821
  23050777.1524   -3753990.64845  -2804723.46661
  20159505.262    -3849504.055 6  -2970742.58123
  21968049.277    -9623294.955 6  -5749902.95021
 91  3 20 23 50 59.9960000  0  6G18G 2G11G16G19G 6
  22094867.1374    8870809.83746   6912693.63061
  20269792.777   -19326598.322 7 -14919477.38923
  22118186.4264   -7287488.15446  -5608998.77461
  23050995.902    -3752857.916 5  -2803840.90921
  20159836.731    -3847756.650 6  -2969380.98323
  21959604.1994   -9667685.85446  -5784493.15161
 91  3 20 23 51 14.9960000  0  6G18G 2G11G16G19G 6
  22102263.2774    8909668.65746   6942973.06761
  20263712.785   -19358552.049 7 -14944376.34123
  22120565.3324   -7274986.11746  -5599256.96261
  23051233.824    -3751606.866 5  -2802866.07821
  20160184.121    -3845935.114 6  -2967961.61923
  21951158.910    -9712063.707 6  -5819073.18521
 91  3 20 23 51 29.9960000  0  6G18G 2G11G16G19G 6
  22109667.746     8948578.117 6   6973291.99121
  20257647.1524  -19390430.90047 -14969216.94763
  22122970.926    -7262345.684 6  -5589407.31821
  23051488.2624   -3750246.30945  -2801806.00761
  20160542.332    -3844047.743 6  -2966490.95323
  21942716.270    -9756436.979 6  -5853649.65721
 91  3 20 23 51 44.9960000  0  6G18G 2G11G16G19G 6
  22117080.934     8987546.598 6   7003656.89121
  20251596.0044  -19422225.98847 -14993992.28163
  22125403.699    -7249558.318 6  -5579443.18321
  23051777.231    -3748767.714 5  -2800653.89121
  20160916.770    -3842085.823 6  -2964962.20123
  21934274.551    -9800796.898 6  -5888215.71121
 91  3 20 23 51 59.9960000  0  6G18G 2G11G16G19G 6
  22124505.496     9026562.219 6   7034058.54021
  20245559.5514  -19453949.22047 -15018711.62863
  22127863.4654   -7236635.91346  -5569373.81061
  23052074.027    -3747182.974 5  -2799419.10521
  20161301.066    -3840060.805 6  -2963384.27923
  21925830.9264   -9845155.06846  -5922780.41961
 91  3 20 23 52 14.9960000  0  6G18G 2G11G16G19G 6
  22131942.2234    9065633.06746   7064503.23161
  20239537.145   -19485592.435 7 -15043368.62223
  22130348.270    -7223570.504 6  -5559193.02221
  23052399.934    -3745483.877 5  -2798095.20021
  20161700.270    -3837964.511 6  -2961750.82023
  21917393.1604   -9889503.30546  -5957337.36161
 91  3 20 23 52 29.9960000  0  6G18G 2G11G16G19G 6
  22139389.9654    9104759.72846   7094991.38861
  20233530.832   -19517154.442 7 -15067962.34423
  22132862.7074   -7210361.24746  -5548900.13161
  23052742.3634   -3743669.64445  -2796681.54361
  20162115.434    -3835795.845 6  -2960060.96823
  21908953.1134   -9933840.41746  -5991885.65861
 91  3 20 23 52 44.9960000  0  6G18G 2G11G16G19G 6
  22146845.5744    9143936.82746   7125518.85961
  20227540.0984  -19548640.54847 -15092496.91363
  22135403.207    -7197013.435 6  -5538499.29121
  23053105.066    -3741745.813 4  -2795182.53421
  20162540.215    -3833559.713 6  -2958318.54723
  21900519.0274   -9978171.57646  -6026429.30161
 91  3 20 23 52 59.9960000  0  6G18G 2G11G16G19G 6
  22154309.3874    9183165.74446   7156086.70861
  20221563.246   -19580049.156 7 -15116971.10123
  22137970.1214   -7183525.63546  -5527989.35761
  23053495.4654   -3739711.20244  -2793597.18761
  20162977.0044   -3831254.38146  -2956522.19663
  21892084.231   -10022495.028 6  -6060966.94021
 91  3 20 23 53 14.9960000  0  6G18G 2G11G16G19G 6
  22161782.9104    9222442.57746   7186691.87461
  20215599.848   -19611383.898 7 -15141387.73123
  22140561.824    -7169901.870 6  -5517373.48121
  23053903.012    -3737569.653 4  -2791928.49721
  20163430.129    -3828883.519 6  -2954674.78523
  21883649.231   -10066814.319 6  -6095501.35621
 91  3 20 23 53 29.9960000  0  6G18G 2G11G16G19G 6
  22169266.3564    9261772.09146   7217338.08561
  20209653.418   -19642639.394 7 -15165742.60723
  22143182.1294   -7156136.99146  -5506647.64061
  23054329.8484   -3735316.19245  -2790172.61461
  20163893.027    -3826441.645 6  -2952772.04023
  21875217.606   -10111124.248 6  -6130028.45321
 91  3 20 23 53 44.9960000  0  5G18G 2G11G19G 6
  22176759.6844    9301153.87146   7248025.05861
  20203720.160   -19673815.921 7 -15190035.95023
  22145828.3954   -7142231.38546  -5495812.13661
  20164371.848    -3823928.849 6  -2950814.03423
  21866785.293   -10155424.820 5  -6164548.27121
 91  3 20 23 53 59.9960000  0  5G18G 2G11G19G 6
  22184266.441     9340596.170 6   7278759.18021
  20197803.356   -19704905.204 7 -15214261.31323
  22148501.1844   -7128176.95446  -5484860.66761
  20164863.152    -3821336.657 6  -2948794.15823
  21858361.324   -10199707.648 6  -6199054.26021
 91  3 20 23 54 14.9960000  0  5G18G 2G11G19G 6
  22191782.7704    9380086.51546   7309530.75461
  20191903.566   -19735919.451 7 -15238428.20323
  22151202.6994   -7113986.06546  -5473802.87661
  20165371.324    -3818677.306 6  -2946721.96523
  21849934.207   -10243984.854 6  -6233555.87721
 91  3 20 23 54 29.9960000  0  5G18G 2G11G19G 6
  22199308.059     9419629.028 6   7340342.96121
  20186015.176   -19766854.476 7 -15262533.36323
  22153929.723    -7099654.712 6  -5462635.63621
  20165890.949    -3815946.376 6  -2944593.96723
  21841511.527   -10288252.084 6  -6268049.71721
 91  3 20 23 54 44.9960000  0  5G18G 2G11G19G 6
  22206840.8094    9459215.03146   7371189.05061
  20180141.9104  -19797718.49347 -15286583.18963
  22156683.348    -7085191.294 6  -5451365.47821
  20166423.731    -3813151.806 6  -2942416.39523
  21833088.848   -10332517.366 6  -6302542.03021
 91  3 20 23 54 59.9960000  0  5G18G 2G11G19G 6
  22214381.5514    9498846.70146   7402070.72261
  20174283.0044  -19828509.04347 -15310575.77263
  22159459.926    -7070593.614 6  -5439990.70921
  20166965.824    -3810291.339 6  -2940187.47623
  21824663.465   -10376778.421 6  -6337031.06421
 91  3 20 23 55 14.9960000  0  5G18G 2G11G19G 6
  22221934.6454    9538527.19846   7432990.38461
  20168437.5904  -19859222.74247 -15334508.46263
  22162263.801    -7055858.385 6  -5428508.77121
  20167524.660    -3807361.060 6  -2937904.15823
  21816244.801   -10421031.549 6  -6371513.90921
 91  3 20 23 55 29.9960000  0  5G18G 2G11G19G 6
  22229491.637     9578243.842 6   7463938.27821
  20162605.8324  -19889871.85947 -15358390.83163
  22165091.676    -7040998.128 6  -5416929.39921
  20168093.996    -3804373.367 6  -2935576.10223
  21807822.934   -10465289.140 6  -6406000.24721
 91  3 20 23 55 44.9960000  0  5G18G 2G11G19G 6
  22237056.9884    9618003.32646   7494919.55261
  20156786.949   -19920449.464 7 -15382217.48023
  22167944.4184   -7026006.21746  -5405247.43461
  20168675.848    -3801321.402 6  -2933197.96623
  21799400.199   -10509543.994 6  -6440484.44521
 91  3 20 23 55 59.9960000  0  5G18G 2G11G19G 6
  22244633.5044    9657814.50746   7525941.10461
  20150983.1684  -19950946.79347 -15405981.57763
  22170824.004    -7010873.864 6  -5393456.02821
  20169268.012    -3798195.951 7  -2930762.56823
  21790982.824   -10553787.165 6  -6474959.53021
 91  3 20 23 56 14.9960000  0  5G18G 2G11G19G 6
  22252218.527     9697677.133 6   7557002.74421
  20145195.371   -19981363.842 7 -15429683.11823
  22173731.137    -6995601.264 6  -5381555.34321
  20169878.598    -3794996.825 6  -2928269.75623
  21782564.949   -10598018.453 6  -6509425.36421
 91  3 20 23 56 29.9960000  0  5G18G 2G11G19G 6
  22259812.668     9737593.591 5   7588106.34821
  20139422.731   -20011697.887 7 -15453319.98823
  22176664.246    -6980186.094 6  -5369543.57421
  20170503.074    -3791721.387 6  -2925717.48223
  21774150.754   -10642235.349 6  -6543879.99421
 91  3 20 23 56 44.9960000  0  5G18G 2G11G19G 6
  22267417.184     9777550.023 5   7619241.07321
  20133664.184   -20041962.298 7 -15476902.58823
  22179621.1994   -6964641.87946  -5357431.24961
  20171137.043    -3788382.956 7  -2923116.12723
  21765735.606   -10686451.038 6  -6578333.66921
 91  3 20 23 56 59.9960000  0  5G18G 2G11G19G 6
  22275028.9964    9817547.62445   7650407.88161
  20127918.699   -20072155.752 7 -15500429.90323
  22182604.277    -6948967.477 6  -5345217.48721
  20171786.262    -3784979.950 6  -2920464.44623
  21757321.9654  -10730664.02046  -6612785.22861
 91  3 20 23 57 14.9960000  0  5G18G 2G11G19G 6
  22282652.5824    9857594.50946   7681613.08561
  20122187.293   -20102270.094 7 -15523895.57323
  22185615.4494   -6933154.83446  -5332896.00961
  20172445.613    -3781504.042 7  -2917755.96123
  21748911.457   -10774866.085 6  -6647228.27621
 91  3 20 23 57 29.9960000  0  5G18G 2G11G19G 6
  22290280.129     9897686.715 6   7712853.60421
  20116471.746   -20132308.912 7 -15547302.39223
  22188648.246    -6917207.868 6  -5320469.84621
  20173121.707    -3777958.707 6  -2914993.38423
  21740499.902   -10819060.658 6  -6681665.49921
 91  3 20 23 57 44.9960000  0  5G18G 2G11G19G 6
  22297917.910     9937821.640 6   7744127.43521
  20110768.176   -20162274.559 7 -15570652.20423
  22191708.6134   -6901129.09946  -5307940.99961
  20173808.926    -3774346.216 7  -2912178.47723
  21732093.785   -10863250.074 6  -6716098.71021
 91  3 20 23 57 59.9960000  0  5G18G 2G11G19G 6
  22305563.0824    9977996.30246   7775432.18061
  20105079.410   -20192169.746 7 -15593947.10623
  22194791.965    -6884921.447 6  -5295311.72621
  20174506.293    -3770669.303 7  -2909313.36923
  21723684.176   -10907436.887 6  -6750529.88621
 91  3 20 23 58 14.9960000  0  5G18G 2G11G19G 6
  22313215.191    10018213.981 6   7806770.48421
  20099404.777   -20221990.837 7 -15617184.27323
  22197902.5044   -6868581.53246  -5282579.36061
  20175220.262    -3766924.054 7  -2906395.01323
  21715277.121   -10951617.381 6  -6784956.13821
 91  3 20 23 58 29.9960000  0  5G18G 2G11G19G 6
  22320874.4734   10058465.73346   7838135.34161
  20093742.676   -20251746.712 7 -15640370.61923
  22201034.5664   -6852118.44046  -5269751.00961
  20175944.3954   -3763119.40247  -2903430.36163
  21706868.551   -10995800.307 6  -6819384.28021
 91  3 20 23 58 44.9960000  0  5G18G 2G11G19G 6
  22328541.949    10098753.513 6   7869528.28121
  20088092.777   -20281435.206 7 -15663504.45823
  22204192.613    -6835530.154 6  -5256825.11421
  20176678.504    -3759252.844 6  -2900417.47623
  21698460.949   -11039983.344 6  -6853812.51021
 91  3 20 23 58 59.9960000  0  5G18G 2G11G19G 6
  22336217.684    10139093.044 6   7900961.56521
  20082459.145   -20311040.408 7 -15686573.39423
  22207376.066    -6818800.820 6  -5243789.31021
  20177427.863    -3755308.152 7  -2897343.70623
  21690057.152   -11084150.442 6  -6888228.32021
 91  3 20 23 59 14.9960000  0  5G18G 2G11G19G 6
  22343903.520    10179475.549 6   7932428.31121
  20076840.223   -20340570.790 7 -15709584.02823
  22210583.7074   -6801939.20946  -5230650.45861
  20178194.035    -3751293.766 6  -2894215.62423
  21681650.090   -11128309.893 6  -6922638.17121
 91  3 20 23 59 29.9960000  0  5G18G 2G11G19G 6
  22351594.9814   10219889.26046   7963919.35961
  20071232.551   -20370037.684 7 -15732545.19623
  22213814.762    -6784957.072 6  -5217417.67121
  20178971.941    -3747221.170 6  -2891042.19223
  21673249.6604  -11172473.09446  -6957050.93761
 91  3 20 23 59 44.9960000  0  5G18G 2G11G19G 6
  22359292.0124   10260348.04146   7995445.53761
  20065640.082   -20399427.245 7 -15755446.10123
  22217073.629    -6767840.580 6  -5204080.20221
  20179757.816    -3743076.133 7  -2887812.31123
  21664847.176   -11216625.905 6  -6991455.61521
 91  3 20 23 59 59.9960000  0  5G18G 2G11G19G 6
  22366999.2774   10300843.01746   8026999.90661
  20060060.801   -20428747.752 7 -15778293.20023
  22220352.191    -6750598.392 6  -5190644.78521
  20180557.660    -3738867.103 7  -2884532.56723
  21656445.746   -11260776.747 6  -7025858.75321
 91  3 21  0  0 14.9960000  0  5G18G 2G11G19G 6
  22374711.8564   10341376.79246   8058584.50161
  20054494.293   -20457996.726 7 -15801084.55723
  22223659.606    -6733228.174 6  -5177109.59921
  20181370.262    -3734591.404 7  -2881200.87423
  21648044.9964  -11304922.87546  -7060258.23861
 91  3 21  0  0 29.9960000  0  5G18G 2G11G19G 6
  22382432.8484   10381948.60646   8090198.75961
  20048942.066   -20487174.444 7 -15823820.39323
  22226989.356    -6715730.332 6  -5163474.96621
  20182200.137    -3730248.952 6  -2877817.16723
  21639642.816   -11349064.465 6  -7094654.17921
 91  3 21  0  0 44.9960000  0  5G18G 2G11G19G 6
  22390157.2704   10422545.54745   8121832.59961
  20043400.051   -20516293.741 7 -15846510.70523
  22230339.566    -6698117.860 6  -5149751.00221
  20183034.699    -3725852.424 7  -2874391.31523
  21631243.2464  -11393214.21446  -7129056.47461
 91  3 21  0  0 59.9960000  0  5G18G 2G11G19G 6
  22397891.4884   10463190.44245   8153503.78961
  20037874.285   -20545331.573 7 -15869137.53723
  22233718.816    -6680367.968 6  -5135919.96421
  20183885.8094   -3721378.76247  -2870905.35163
  21622842.6994  -11437348.84646  -7163446.98361
 91  3 21  0  1 14.9960000  0  5G18G 2G11G19G 6
  22405634.746    10503876.565 5   8185207.09721
  20032364.168   -20574294.250 7 -15891705.80823
  22237120.566    -6662487.300 6  -5121987.02621
  20184750.191    -3716834.443 7  -2867364.34123
  21614446.402   -11481474.831 6  -7197830.75621
 91  3 21  0  1 29.9960000  0  5G18G 2G11G19G 6
  22413381.801    10544593.062 5   8216934.10621
  20026864.441   -20603192.462 7 -15914223.85423
  22240545.754    -6644486.623 6  -5107960.58421
  20185627.5124   -3712229.64447  -2863776.19563
  21606048.715   -11525602.542 6  -7232215.88421
 91  3 21  0  1 44.9960000  0  5G18G 2G11G19G 6
  22421141.0204   10585350.83945   8248693.22261
  20021380.027   -20632015.077 7 -15936682.98523
  22243996.4734   -6626355.10746  -5093832.19461
  20186517.270    -3707553.154 7  -2860132.19723
  21597653.7854  -11569720.76046  -7266593.62461
 91  3 21  0  1 59.9960000  0  5G18G 2G11G19G 6
  22428900.473    10626133.647 5   8280471.86821
  20015906.035   -20660778.039 7 -15959095.64123
  22247469.676    -6608108.880 6  -5079614.40021
  20187417.824    -3702820.779 7  -2856444.64923
  21589258.160   -11613845.210 6  -7300976.20521
 91  3 21  0  2 14.9960000  0  5G18G 2G11G19G 6
  22436668.785    10666942.396 5   8312270.74621
  20010443.496   -20689480.467 7 -15981461.12023
  22250964.9814   -6589747.32846  -5065306.75861
  20188329.606    -3698031.628 7  -2852712.85823
  21580858.449   -11657974.972 6  -7335362.93221
 91  3 21  0  2 29.9960000  0  5G18G 2G11G19G 6
  22444439.9884   10707778.67745   8344091.05861
  20004993.207   -20718120.285 7 -16003777.82223
  22254479.0434   -6571268.63746  -5050907.83861
  20189252.691    -3693183.432 7  -2848935.06223
  21572460.699   -11702107.787 6  -7369752.03221
 91  3 21  0  2 44.9960000  0  5G18G 2G11G19G 6
  22452216.1914   10748648.57846   8375937.57061
  19999557.012   -20746691.097 7 -16026040.74723
  22258019.770    -6552666.545 6  -5036412.75521
  20190185.949    -3688269.701 7  -2845106.19723
  21564063.3094  -11746237.19246  -7404138.48361
 91  3 21  0  2 59.9960000  0  5G18G 2G11G19G 6
  22459996.1294   10789540.29445   8407801.11061
  19994130.910   -20775204.681 7 -16048259.07923
  22261581.5274   -6533952.80346  -5021830.67661
  20191132.199    -3683302.029 6  -2841235.29923
  21555663.5824  -11790374.70146  -7438531.25461
 91  3 21  0  3 14.9960000  0  5G18G 2G11G19G 6
  22467783.9574   10830461.43045   8439687.52661
  19988718.152   -20803653.161 7 -16070426.68123
  22265165.301    -6515119.831 6  -5007155.69021
  20192086.996    -3678272.287 7  -2837316.04523
  21547264.8564  -11834512.31546  -7472924.11361
 91  3 21  0  3 29.9960000  0  5G18G 2G11G19G 6
  22475575.7314   10871415.63345   8471599.74961
  19983316.316   -20832032.680 7 -16092540.54623
  22268770.629    -6496164.213 6  -4992385.12921
  20193059.488    -3673176.603 7  -2833345.40423
  21538866.9104  -11878646.24546  -7507314.08061
 91  3 21  0  3 44.9960000  0  5G18G 2G11G19G 6
  22483375.9184   10912404.78546   8503539.18461
  19977929.473   -20860340.802 7 -16114598.77523
  22272402.074    -6477083.846 6  -4977517.36721
  20194041.066    -3668012.620 7  -2829321.53423
  21530470.676   -11922773.935 6  -7541699.18621
 91  3 21  0  3 59.9960000  0  5G18G 2G11G19G 6
  22491185.3714   10953423.19046   8535501.42661
  19972555.145   -20888583.466 7 -16136606.00023
  22276054.301    -6457884.717 6  -4962557.05621
  20195037.754    -3662786.076 7  -2825248.91923
  21522072.926   -11966901.100 6  -7576083.88621
 91  3 21  0  4 14.9960000  0  5G18G 2G11G19G 6
  22498993.566    10994474.792 5   8567489.53621
  19967194.434   -20916756.011 7 -16158558.58423
  22279734.027    -6438562.543 6  -4947500.87121
  20196042.973    -3657492.357 7  -2821123.96223
  21513676.2154  -12011023.07946  -7610464.56161
 91  3 21  0  4 29.9960000  0  5G18G 2G11G19G 6
  22506809.270    11035550.103 5   8599496.10621
  19961844.410   -20944867.885 7 -16180463.89423
  22283431.8324   -6419126.73746  -4932356.14361
  20197061.387    -3652140.378 7  -2816953.60723
  21505280.5984  -12055148.89646  -7644848.22161
 91  3 21  0  4 44.9960000  0  5G18G 2G11G19G 6
  22514633.5514   11076656.75746   8631527.11161
  19956508.668   -20972911.314 7 -16202315.86823
  22287153.363    -6399569.943 6  -4917117.14221
  20198092.660    -3646722.187 7  -2812731.66723
  21496884.3484  -12099270.81246  -7679228.84761
 91  3 21  0  4 59.9960000  0  5G18G 2G11G19G 6
  22522462.801    11117793.053 6   8663581.20821
  19951184.590   -21000887.845 7 -16224115.71623
  22290897.5434   -6379893.83246  -4901785.17061
  20199137.356    -3641239.536 7  -2808459.49223
  21488487.902   -12143390.134 6  -7713607.43421
 91  3 21  0  5 14.9960000  0  5G18G 2G11G19G 6
  22530296.988    11158958.513 6   8695658.02521
  19945874.691   -21028797.467 7 -16245863.43323
  22294664.4494   -6360098.67146  -4886360.43761
  20200192.293    -3635692.041 7  -2804136.78823
  21480092.5354  -12187506.76546  -7747983.93361
 91  3 21  0  5 29.9950000  0  5G18G 2G11G19G 6
  22538133.468    11200154.798 5   8727758.86821
  19940576.069   -21056633.621 7 -16267553.89723
  22298456.155    -6340181.436 6  -4870840.58721
  20201262.218    -3630075.408 7  -2799760.21223
  21471700.0544  -12231613.09146  -7782352.41361
 91  3 21  0  5 44.9950000  0  5G18G 2G11G19G 6
  22545980.7494   11241389.58745   8759889.72861
  19935294.358   -21084397.641 7 -16289188.15523
  22302265.7884   -6320137.13546  -4855221.71161
  20202341.655    -3624386.418 7  -2795327.26123
  21463307.2964  -12275712.36546  -7816715.38561
 91  3 21  0  5 59.9950000  0  5G18G 2G11G19G 6
  22553827.202    11282643.759 5   8792035.68521
  19930020.7024  -21112103.87647 -16310777.38763
  22306104.5464   -6299983.58746  -4839517.70461
  20203436.226    -3618641.524 7  -2790850.74623
  21454913.2964  -12319817.59946  -7851083.01061
 91  3 21  0  6 14.9950000  0  5G18G 2G11G19G 6
  22561686.4214   11323930.05745   8824206.65961
  19924760.898   -21139739.338 7 -16332311.46523
  22309964.148    -6279707.979 6  -4823718.57821
  20204541.140    -3612827.561 7  -2786320.40023
  21446523.3124  -12363915.83246  -7885445.18661
 91  3 21  0  6 29.9950000  0  5G18G 2G11G19G 6
  22569548.4604   11365239.49345   8856395.68061
  19919513.866   -21167312.815 7 -16353797.25123
  22313841.452    -6259319.468 6  -4807831.47121
  20205660.4914   -3606953.14647  -2781742.96463
  21438130.3124  -12408015.62246  -7919808.57061
 91  3 21  0  6 44.9950000  0  5G18G 2G11G19G 6
  22577414.898    11406584.569 5   8888612.45821
  19914281.148   -21194811.607 7 -16375224.83523
  22317748.2574   -6238805.38946  -4791846.53961
  20206791.898    -3601005.378 7  -2777108.36323
  21429742.3434  -12452104.08246  -7954163.11661
 91  3 21  0  6 59.9950000  0  5G18G 2G11G19G 6
  22585291.468    11447954.857 5   8920848.88621
  19909060.9684  -21222245.72647 -16396602.03363
  22321669.6484   -6218176.14446  -4775771.85961
  20207933.8664   -3594994.15946  -2772424.32263
  21421352.319   -12496191.147 6  -7988516.58421
 91  3 21  0  7 14.9950000  0  5G18G 2G11G19G 6
  22593167.3984   11489351.60645   8953105.94361
  19903852.921   -21249614.012 7 -16417927.92623
  22325620.7024   -6197430.64146  -4759606.60561
  20209090.976    -3588918.206 6  -2767689.83923
  21412963.304   -12540275.362 6  -8022867.82421
 91  3 21  0  7 29.9950000  0  5G18G 2G11G19G 6
  22601051.7334   11530771.01245   8985380.61761
  19898656.233   -21276919.925 7 -16439205.21923
  22329587.3514   -6176572.69146  -4743353.72061
  20210261.444    -3582781.032 6  -2762907.65223
  21404573.3274  -12584360.25246  -8057219.58161
 91  3 21  0  7 44.9950000  0  5G18G 2G11G19G 6
  22608937.5934   11572212.75545   9017672.70061
  19893471.6014  -21304163.54447 -16460433.97263
  22333579.5694   -6155602.49346  -4727013.37961
  20211440.132    -3576582.449 7  -2758077.61523
  21396183.3984  -12628445.63646  -8091571.73661
 91  3 21  0  7 59.9950000  0  5G18G 2G11G19G 6
  22616822.3664   11613675.06945   9049980.81961
  19888300.194   -21331346.354 7 -16481615.33823
  22337590.9834   -6134521.84946  -4710586.97361
  20212633.866    -3570323.964 6  -2753200.89423
  21387793.7334  -12672532.91346  -8125925.35961
 91  3 21  0  8 14.9950000  0  5G18G 2G11G19G 6
  22624721.296    11655160.653 5   9082307.07421
  19883137.835   -21358465.462 7 -16502747.06823
  22341626.0304   -6113327.99446  -4694072.33961
  20213832.812    -3564002.308 7  -2748274.95023
  21379402.976   -12716618.978 6  -8160278.04921
 91  3 21  0  8 29.9950000  0  5G18G 2G11G19G 6
  22632621.890    11696680.157 5   9114659.75921
  19877992.437   -21385509.859 7 -16523820.58423
  22345679.2024   -6092010.36046  -4677461.25861
  20215051.515    -3557606.441 7  -2743291.18223
  21371019.476   -12760692.753 6  -8194621.15721
 91  3 21  0  8 44.9950000  0  5G18G 2G11G19G 6
  22640524.5384   11738225.04745   9147032.24861
  19872859.538   -21412487.791 7 -16544842.30523
  22349759.9524   -6070577.37646  -4660760.29461
  20216279.398    -3551144.401 6  -2738255.84823
  21362632.4524  -12804762.29246  -8228960.96461
 91  3 21  0  8 59.9950000  0  5G18G 2G11G19G 6
  22648438.2024   11779788.60045   9179419.29161
  19867737.483   -21439406.010 7 -16565817.49023
  22353859.015    -6049035.952 6  -4643974.80921
  20217524.460    -3544622.930 6  -2733174.20923
  21354245.210   -12848834.102 6  -8263302.52621
 91  3 21  0  9 14.9950000  0  5G18G 2G11G19G 6
  22656350.233    11821366.310 6   9211817.39021
  19862624.968   -21466268.870 7 -16586749.54123
  22357975.7494   -6027390.71646  -4627108.45561
  20218772.819    -3538046.191 6  -2728049.49923
  21345855.4604  -12892912.44446  -8297649.18261
 91  3 21  0  9 29.9950000  0  5G18G 2G11G19G 6
  22664267.9834   11862965.09146   9244231.85461
  19857524.577   -21493069.020 7 -16607632.72723
  22362116.015    -6005634.463 6  -4610155.60221
  20220040.312    -3531406.806 6  -2722875.97323
  21337467.5234  -12936989.93446  -8331995.17561
 91  3 21  0  9 44.9950000  0  5G18G 2G11G19G 6
  22672187.4914   11904592.11045   9276668.32561
  19852437.569   -21519799.014 7 -16628461.25423
  22366280.015    -5983759.948 6  -4593110.60621
  20221312.249    -3524697.059 6  -2717647.61623
  21329082.7264  -12981058.75546  -8366334.41761
 91  3 21  0  9 59.9950000  0  5G18G 2G11G19G 6
  22680110.554    11946245.329 5   9309125.21121
  19847364.530   -21546460.694 7 -16649236.54323
  22370464.6714   -5961769.11146  -4575974.95461
  20222606.593    -3517918.631 6  -2712365.74323
  21320698.429   -13025120.509 6  -8400668.15221
 91  3 21  0 10 14.9950000  0  5G18G 2G11G19G 6
  22688044.0464   11987919.04545   9341598.04461
  19842302.148   -21573059.636 7 -16669962.94423
  22374670.0304   -5939667.97746  -4558753.36261
  20223905.499    -3511076.981 6  -2707034.60723
  21312313.8044  -13069180.77846  -8435000.72361
 91  3 21  0 10 29.9950000  0  5G18G 2G11G19G 6
  22695977.538    12029619.382 5   9374091.66021
  19837255.155   -21599589.224 7 -16690635.30223
  22378896.4294   -5917450.27946  -4541440.93961
  20225219.749    -3504165.355 6  -2701648.94523
  21303930.905   -13113232.900 6  -8469326.95421
 91  3 21  0 10 44.9950000  0  5G18G 2G11G19G 6
  22703918.8124   12071338.94645   9406600.26161
  19832218.015   -21626056.982 7 -16711259.48523
  22383147.2184   -5895123.76546  -4524043.71161
  20226547.132    -3497191.316 6  -2696214.64923
  21295547.405   -13157284.163 6  -8503652.50121
 91  3 21  0 10 59.9950000  0  5G18G 2G11G19G 6
  22711860.7024   12113077.86945   9439123.92861
  19827192.585   -21652462.268 7 -16731834.98923
  22387417.1794   -5872688.03346  -4506561.38861
  20227887.499    -3490154.207 6  -2690731.21423
  21287165.093   -13201333.863 6  -8537976.83021
 91  3 21  0 11 14.9950000  0  5G18G 2G11G19G 6
  22719806.233    12154836.133 5   9471662.66221
  19822180.562   -21678804.958 7 -16752361.71623
  22391705.194    -5850143.081 6  -4488993.94421
  20229237.718    -3483053.458 6  -2685198.17223
  21278782.374   -13245381.577 6  -8572299.61521
 91  3 21  0 11 29.9950000  0  5G18G 2G11G19G 6
  22727759.0234   12196619.71245   9504221.14661
  19817179.507   -21705078.925 7 -16772834.89423
  22396020.179    -5827483.160 6  -4471336.92721
  20230601.999    -3475882.863 6  -2679610.72323
  21270402.9834  -13289421.03646  -8606615.98561
 91  3 21  0 11 44.9950000  0  5G18G 2G11G19G 6
  22735714.773    12238421.630 5   9536793.90621
  19812191.632   -21731291.012 7 -16793259.85723
  22400350.7024   -5804715.18446  -4453595.70161
  20231979.038    -3468649.224 6  -2673974.13523
  21262022.913   -13333458.879 6  -8640931.08021
 91  3 21  0 11 59.9950000  0  5G18G 2G11G19G 6
  22743675.0694   12280252.33745   9569389.11361
  19807217.3744  -21757430.39947 -16813628.16363
  22404705.7334   -5781828.69346  -4435762.14561
  20233374.202    -3461341.703 6  -2668279.98023
  21253644.890   -13377484.325 6  -8675236.51821
 91  3 21  0 12 14.9950000  0  5G18G 2G11G19G 6
  22751636.5384   12322102.17345   9601999.20861
  19802255.3514  -21783506.18447 -16833946.92063
  22409082.5234   -5758833.02046  -4417843.50061
  20234772.921    -3453969.068 6  -2662535.08723
  21245268.054   -13421506.203 6  -8709539.16921
 91  3 21  0 12 29.9950000  0  5G18G 2G11G19G 6
  22759600.507    12363971.417 5   9634624.43421
  19797306.2494  -21809518.18747 -16854215.97963
  22413480.0304   -5735728.19646  -4399839.81161
  20236186.780    -3446531.090 6  -2656739.28123
  21236889.4294  -13465524.08746  -8743838.71561
 91  3 21  0 12 44.9950000  0  5G18G 2G11G19G 6
  22767575.468    12405861.151 5   9667265.61021
  19792368.4214  -21835465.10347 -16874434.31563
  22417898.5694   -5712513.29446  -4381750.34561
  20237616.780    -3439026.449 6  -2650891.52423
  21228515.687   -13509536.517 6  -8778134.01121
 91  3 21  0 12 59.9950000  0  5G18G 2G11G19G 6
  22775548.1084   12447766.13945   9699918.65861
  19787442.4054  -21861351.89147 -16894605.80063
  22422334.9684   -5689193.47146  -4363579.11161
  20239059.468    -3431459.941 6  -2644995.56323
  21220142.382   -13553548.445 6  -8812428.91621
 91  3 21  0 13 14.9950000  0  5G18G 2G11G19G 6
  22783528.499    12489693.401 5   9732589.09221
  19782530.6484  -21887171.30247 -16914724.78463
  22426793.4524   -5665761.56846  -4345320.55761
  20240508.398    -3423824.112 6  -2639045.59023
  21211768.0934  -13597552.28446  -8846717.53661
 91  3 21  0 13 29.9950000  0  5G18G 2G11G19G 6
  22791508.4994   12531627.08645   9765264.51961
  19777626.2334  -21912938.91347 -16934803.39963
  22431270.616    -5642233.556 6  -4326987.09521
  20241972.921    -3416134.681 6  -2633053.84623
  21203389.507   -13641563.584 6  -8881011.95621
 91  3 21  0 13 44.9950000  0  5G18G 2G11G19G 6
  22799487.249    12573567.580 5   9797945.26021
  19772732.5304  -21938654.18047 -16954841.23663
  22435766.304    -5618608.996 6  -4308578.41921
  20243446.085    -3408390.555 6  -2627019.47923
  21195015.944   -13685581.439 6  -8915311.47121
 91  3 21  0 13 59.9950000  0  5G18G 2G11G19G 6
  22807474.8664   12615522.15145   9830636.96361
  19767851.7964  -21964309.71148 -16974832.52563
  22440281.6484   -5594880.77046  -4290088.96161
  20244932.140    -3400584.334 6  -2620936.72523
  21186639.0544  -13729598.26346  -8949610.19661
 91  3 21  0 14 14.9950000  0  5G18G 2G11G19G 6
  22815465.921    12657497.325 5   9863344.71921
  19762981.3664  -21989898.47647 -16994771.78963
  22444818.1164   -5571042.21146  -4271513.52461
  20246430.616    -3392709.013 6  -2614800.12323
  21178263.3194  -13773607.08146  -8983902.69061
 91  3 21  0 14 29.9950000  0  5G18G 2G11G19G 6
  22823454.5774   12699488.82645   9896065.18961
  19758123.0154  -22015424.37947 -17014662.07263
  22449375.4294   -5547097.47846  -4252855.35361
  20247941.694    -3384768.369 6  -2608612.62823
  21169891.679   -13817611.636 6  -9018191.85121
 91  3 21  0 14 44.9950000  0  5G18G 2G11G19G 6
  22831447.851    12741489.378 5   9928792.72321
  19753276.8514  -22040894.87247 -17034509.17163
  22453950.0074   -5523054.08946  -4234120.30861
  20249462.929    -3376769.626 6  -2602379.85623
  21161516.585   -13861619.091 6  -9052483.27121
 91  3 21  0 14 59.9950000  0  5G18G 2G11G19G 6
  22839438.0074   12783491.58945   9961521.57361
  19748438.2264  -22066317.28547 -17054318.80563
  22458542.9914   -5498919.76446  -4215314.40161
  20250996.210    -3368719.995 6  -2596107.43123
  21153139.2414  -13905636.57046  -9086782.51961
 91  3 21  0 15 14.9950000  0  5G18G 2G11G19G 6
  22847434.577    12825504.254 5   9994258.52821
  19743612.6484  -22091682.18548 -17074083.62463
  22463155.015    -5474685.366 6  -4196430.50821
  20252537.827    -3360610.033 6  -2589788.00123
  21144761.8744  -13949654.68846  -9121082.24661
 91  3 21  0 15 29.9950000  0  5G18G 2G11G19G 6
  22855435.593    12867542.204 5  10027015.21021
  19738799.8274  -22116974.62448 -17093791.98263
  22467789.616    -5450336.222 6  -4177457.21021
  20254097.882    -3352424.581 6  -2583409.74223
  21136389.562   -13993658.208 6  -9155370.59921
 91  3 21  0 15 44.9950000  0  5G18G 2G11G19G 6
  22863436.280    12909596.229 5  10059784.42821
  19733997.7804  -22142203.30748 -17113450.65663
  22472443.0464   -5425881.29146  -4158401.48661
  20255665.960    -3344172.305 6  -2576979.41623
  21128018.069   -14037655.736 6  -9189654.28421
 91  3 21  0 15 59.9950000  0  5G18G 2G11G19G 6
  22871441.5934   12951669.39045  10092568.56161
  19729209.8824  -22167365.11748 -17133057.22963
  22477117.187    -5401317.544 6  -4139260.97421
  20257249.054    -3335849.825 6  -2570494.38523
  21119645.3194  -14081643.75546  -9223930.56561
 91  3 21  0 16 14.9950000  0  5G18G 2G11G19G 6
  22879450.015    12993760.067 5  10125366.31821
  19724434.9054  -22192461.63248 -17152612.91563
  22481811.7024   -5376646.91146  -4120037.17061
  20258846.819    -3327458.544 6  -2563955.74323
  21111275.9994  -14125623.78246  -9258200.62461
 91  3 21  0 16 29.9950000  0  5G18G 2G11G19G 6
  22887466.187    13035878.926 5  10158186.03021
  19719673.7804  -22217482.15748 -17172109.39163
  22486526.0854   -5351858.78546  -4100721.82561
  20260459.062    -3318987.615 6  -2557355.03723
  21102911.1554  -14169584.70446  -9292455.79661
 91  3 21  0 16 44.9950000  0  5G18G 2G11G19G 6
  22895483.101    13078010.603 5  10191015.74921
  19714923.2184  -22242441.75548 -17191558.39063
  22491264.085    -5326968.555 6  -4081326.90621
  20262082.968    -3310452.177 6  -2550704.06523
  21094548.7734  -14213541.59546  -9326707.82261
 91  3 21  0 16 59.9950000  0  5G18G 2G11G19G 6
  22903500.2654   13120147.05645  10223849.19061
  19710183.4444  -22267348.07448 -17210965.87463
  22496018.3584   -5301984.25946  -4061858.68361
  20263718.796    -3301859.768 6  -2544008.69323
  21086182.390   -14257501.980 6  -9360962.56721
 91  3 21  0 17 14.9950000  0  5G18G 2G11G19G 6
  22911520.765    13162288.052 5  10256686.19021
  19705453.8514  -22292201.07648 -17230331.81563
  22500791.4524   -5276906.13246  -4042317.34361
  20265363.280    -3293210.301 6  -2537268.86623
  21077815.6634  -14301465.66246  -9395219.88661
 91  3 21  0 17 29.9950000  0  5G18G 2G11G19G 6
  22919541.3044   13204445.80945  10289536.21761
  19700736.9374  -22316988.19748 -17249646.42363
  22505581.780    -5251721.798 6  -4022693.24721
  20267023.843    -3284490.833 6  -2530474.49423
  21069449.9834  -14345419.89746  -9429469.84161
 91  3 21  0 17 44.9950000  0  5G18G 2G11G19G 6
  22927565.7494   13246615.84645  10322395.82261
  19696032.3194  -22341713.91448 -17268913.17763
  22510395.726    -5226435.959 6  -4002990.03721
  20268695.187    -3275705.860 6  -2523629.08123
  21061087.6404  -14389368.94846  -9463715.75461
 91  3 21  0 17 59.9950000  0  5G18G 2G11G19G 6
  22935599.202    13288803.596 5  10355269.20921
  19691340.7104  -22366372.47348 -17288127.60263
  22515227.8584   -5201043.11946  -3983203.47461
  20270380.483    -3266849.343 6  -2516727.92623
  21052726.7024  -14433306.90146  -9497953.03461
 91  3 21  0 18 14.9950000  0  5G18G 2G11G19G 6
  22943628.288    13330998.763 5  10388148.38521
  19686658.3274  -22390974.03248 -17307297.60963
  22520076.6634   -5175553.61746  -3963341.58161
  20272077.593    -3257931.424 6  -2509778.91623
  21044366.710   -14477243.607 6  -9532189.32221
 91  3 21  0 18 29.9950000  0  5G18G 2G11G19G 6
  22951659.062    13373202.912 5  10421034.62521
  19681987.5384  -22415516.70048 -17326421.72763
  22524949.5154   -5149965.89146  -3943403.15861
  20273787.679    -3248949.998 6  -2502780.42123
  21036005.3044  -14521176.99546  -9566423.03761
 91  3 21  0 18 44.9950000  0  5G18G 2G11G19G 6
  22959693.1084   13415425.59445  10453935.22361
  19677330.2654  -22439990.64848 -17345492.29563
  22529833.8824   -5124270.38146  -3923380.75161
  20275510.226    -3239895.203 6  -2495724.75423
  21027647.5934  -14565097.11646  -9600646.41461
 91  3 21  0 18 59.9950000  0  5G18G 2G11G19G 6
  22967733.2804   13457664.28045  10486848.34461
  19672685.5854  -22464398.32448 -17364511.22163
  22534745.7264   -5098469.72746  -3903276.41561
  20277247.335    -3230769.350 6  -2488613.72323
  21019291.1164  -14609006.10446  -9634861.12361
 91  3 21  0 19 14.9950000  0  5G18G 2G11G19G 6
  22975767.608    13499905.962 5  10519763.73021
  19668051.6714  -22488752.62248 -17383488.55563
  22539674.077    -5072577.089 6  -3883100.40521
  20278993.812    -3221585.109 6  -2481457.18723
  21010934.5934  -14652916.80646  -9669077.16361
 91  3 21  0 19 29.9950000  0  5G18G 2G11G19G 6
  22983810.265    13542151.182 5  10552681.93321
  19663427.0774  -22513052.72148 -17402423.65663
  22544617.5464   -5046591.88346  -3862852.26061
  20280753.069    -3212341.626 6  -2474254.49623
  21002579.8984  -14696828.19646  -9703293.74461
 91  3 21  0 19 44.9950000  0  5G18G 2G11G19G 6
  22991851.9604   13584414.52445  10585614.23561
  19658815.8514  -22537283.50547 -17421304.75063
  22549583.9684   -5020499.40346  -3842520.52661
  20282526.632    -3203023.904 6  -2466993.95623
  20994227.2494  -14740724.98246  -9737498.94161
 91  3 21  0 19 59.9950000  0  4G 2G11G19G 6
  19654214.8584  -22561460.11647 -17440143.63163
  22554567.265    -4994314.924 6  -3822117.08121
  20284311.296    -3193646.696 6  -2459687.05423
  20985873.304   -14784622.109 6  -9771704.40721
 91  3 21  0 20 14.9950000  0  4G 2G11G19G 6
  19649627.1944  -22585569.68647 -17458930.26963
  22559567.5154   -4968025.84546  -3801632.14661
  20286107.077    -3184197.041 6  -2452323.70923
  20977521.679   -14828506.598 6  -9805900.03021
 91  3 21  0 20 29.9950000  0  4G 2G11G19G 6
  19645050.5384  -22609621.03448 -17477671.53963
  22564589.8354   -4941641.18146  -3781072.72261
  20287921.5464   -3174683.68646  -2444910.72963
  20969169.507   -14872386.822 6  -9840092.32421
 91  3 21  0 20 44.9950000  0  4G 2G11G19G 6
  19640485.3664  -22633606.13347 -17496361.18663
  22569631.7804   -4915153.13746  -3760432.75061
  20289742.858    -3165098.546 6  -2437441.81423
  20960823.804   -14916254.665 6  -9874274.98021
 91  3 21  0 20 59.9950000  0  4G 2G11G19G 6
  19635930.4054  -22657545.33547 -17515015.07263
  22574686.7104   -4888582.59846  -3739728.50261
  20291578.319    -3155461.950 6  -2429932.80022
  20952474.9604  -14960130.42546  -9908463.79461
 91  3 21  0 21 14.9950000  0  4G 2G11G19G 6
  19631385.3194  -22681429.78047 -17533626.28963
  22579760.8744   -4861921.06946  -3718953.35261
  20293422.405    -3145764.858 6  -2422376.64322
  20944125.8984  -15004005.19846  -9942651.82761
 91  3 21  0 21 29.9950000  0  4G 2G11G19G 6
  19626853.0854  -22705250.71647 -17552188.01463
  22584855.8194   -4835159.76446  -3698100.45061
  20295283.562    -3135998.186 6  -2414766.27023
  20935779.710   -15047869.719 6  -9976831.89021
 91  3 21  0 21 44.9950000  0  4G 2G11G19G 6
  19622333.3194  -22729003.89947 -17570696.94763
  22589964.2184   -4808294.61946  -3677166.63661
  20297150.944    -3126157.531 6  -2407098.25223
  20927433.1634  -15091719.53846 -10011000.48861
 91  3 21  0 21 59.9950000  0  4G 2G11G19G 6
  19617823.1874  -22752703.95447 -17589164.48663
  22595094.8194   -4781340.49946  -3656163.47961
  20299041.3194   -3116257.52346  -2399383.99063
  20919089.335   -15135569.137 6 -10045168.91921
 91  3 21  0 22 14.9950000  0  4G 2G11G19G 6
  19613323.4524  -22776352.91447 -17607592.21063
  22600240.273    -4754299.924 6  -3635092.97221
  20300931.7104   -3106300.14046  -2391625.02163
  20910743.538   -15179420.456 6 -10079338.70221
 91  3 21  0 22 29.9950000  0  4G 2G11G19G 6
  19608834.0464  -22799939.65747 -17625971.45163
  22605405.4994   -4727161.91246  -3613946.53861
  20302844.593    -3096274.083 6  -2383812.53523
  20902399.9524  -15223262.04446 -10113500.88861
 91  3 21  0 22 44.9950000  0  4G 2G11G19G 6
  19604355.4834  -22823471.08047 -17644307.58663
  22610589.8514   -4699933.50146  -3592729.65161
  20304758.210    -3086186.123 6  -2375951.80523
  20894060.077   -15267100.504 6 -10147660.63521
 91  3 21  0 22 59.9950000  0  4G 2G11G19G 6
  19599888.4214  -22846941.74147 -17662596.37363
  22615785.0624   -4672609.46546  -3571438.26661
  20306691.796    -3076030.718 6  -2368038.52323
  20885719.4444  -15310930.28146 -10181813.62561
 91  3 21  0 23 14.9950000  0  4G 2G11G19G 6
  19595435.4214  -22870348.46347 -17680835.34163
  22621004.9444   -4645187.29046  -3550070.39561
  20308638.483    -3065804.761 6  -2360070.26823
  20877381.507   -15354748.179 6 -10215957.36521
 91  3 21  0 23 29.9950000  0  4G 2G11G19G 6
  19590993.0234  -22893693.67947 -17699026.38263
  22626239.4294   -4617669.48746  -3528628.01461
  20310598.9684   -3055510.54546  -2352048.83063
  20869043.023   -15398556.376 6 -10250093.53621
 91  3 21  0 23 44.9950000  0  4G 2G11G19G 6
  19586558.9374  -22916996.42347 -17717184.32863
  22631491.679    -4590075.497 6  -3507126.28421
  20312566.0854   -3045166.94046  -2343988.90663
  20860705.757   -15442373.797 6 -10284236.90621
 91  3 21  0 23 59.9950000  0  4G 2G11G19G 6
  19582135.7574  -22940237.10848 -17735293.92463
  22636761.710    -4562385.811 6  -3485549.98121
  20314546.233    -3034754.037 6  -2335874.97723
  20852370.491   -15486180.479 6 -10318371.91221
 91  3 21  0 24 14.9950000  0  4G 2G11G19G 6
  19577725.8664  -22963414.52148 -17753354.21163
  22642047.9444   -4534599.48346  -3463898.37461
  20316540.952    -3024270.432 6  -2327705.95823
  20844035.671   -15529974.893 6 -10352497.34521
 91  3 21  0 24 29.9950000  0  4G 2G11G19G 6
  19573326.8984  -22986527.66848 -17771364.41863
  22647353.523    -4506715.838 6  -3442170.93421
  20318553.7734   -3013715.16446  -2319481.10163
  20835703.562   -15573756.081 6 -10386612.47021
 91  3 21  0 24 44.9950000  0  4G 2G11G19G 6
  19568941.3824  -23009581.21148 -17789328.18463
  22652680.788    -4478739.879 6  -3420371.55521
  20320570.8984   -3003092.91846  -2311204.05963
  20827373.648   -15617528.418 6 -10420720.70621
 91  3 21  0 24 59.9950000  0  4G 2G11G19G 6
  19564565.2494  -23032573.47648 -17807244.19463
  22658019.2964   -4450670.11146  -3398499.08461
  20322605.9524   -2992401.84946  -2302873.38262
  20819047.265   -15661289.970 6 -10454820.53821
 91  3 21  0 25 14.9950000  0  4G 2G11G19G 6
  19560199.8744  -23055515.30248 -17825120.90863
  22663377.9764   -4422517.68246  -3376562.19761
  20324652.2964   -2981652.72546  -2294497.47262
  20810717.7964  -15705051.39046 -10488920.27361
 91  3 21  0 25 29.9950000  0  4G 2G11G19G 6
  19555848.1324  -23078384.62348 -17842941.12063
  22668755.2734   -4394260.87446  -3354543.97061
  20326714.9764   -2970823.37746  -2286059.04462
  20802395.468   -15748790.493 6 -10523002.61421
 91  3 21  0 25 44.9950000  0  4G 2G11G19G 6
  19551506.7884  -23101192.48348 -17860713.44663
  22674151.382    -4365910.845 6  -3332453.12221
  20328786.6944   -2959924.69246  -2277566.59463
  20794074.241   -15792517.996 6 -10557075.91521
 91  3 21  0 25 59.9950000  0  4G 2G11G19G 6
  19547177.9764  -23123942.22047 -17878440.48063
  22679562.9914   -4337471.28045  -3310292.51861
  20330876.1404   -2948959.87546  -2269022.61562
  20785755.187   -15836237.131 6 -10591142.68921
 91  3 21  0 26 14.9950000  0  4G 2G11G19G 6
  19542857.7494  -23146640.92748 -17896127.74863
  22684985.0694   -4308949.41645  -3288067.78161
  20332971.694    -2937935.755 6  -2260432.41823
  20777436.8274  -15879954.75846 -10625208.30261
 91  3 21  0 26 29.9950000  0  4G 2G11G19G 6
  19538550.0624  -23169277.62848 -17913766.70263
  22690435.788    -4280334.684 6  -3265770.66821
  20335083.702    -2926841.379 6  -2251787.47022
  20769119.976   -15923659.512 6 -10659263.87921
 91  3 21  0 26 44.9950000  0  4G 2G11G19G 6
  19534255.7884  -23191848.37148 -17931354.26163
  22695896.3664   -4251623.46746  -3243398.35861
  20337206.835    -2915672.768 6  -2243084.67922
  20760805.585   -15967347.550 6 -10693306.42721
 91  3 21  0 26 59.9950000  0  4G 2G11G19G 6
  19529970.4524  -23214362.63148 -17948897.81163
  22701378.132    -4222825.392 6  -3220958.37721
  20339346.687    -2904439.117 6  -2234331.20622
  20752493.108   -16011027.889 6 -10727342.98021
 91  3 21  0 27 14.9950000  0  4G 2G11G19G 6
  19525698.6324  -23236815.62148 -17966393.61963
  22706874.5304   -4193935.71946  -3198446.99361
  20341494.671    -2893135.463 6  -2225523.18723
  20744183.976   -16054695.416 6 -10761369.55221
 91  3 21  0 27 29.9950000  0  4G 2G11G19G 6
  19521438.1404  -23259212.00448 -17983845.31463
  22712389.8744   -4164959.53845  -3175868.23361
  20343659.538    -2881766.531 6  -2216664.30623
  20735876.054   -16098354.644 6 -10795389.65221
 91  3 21  0 27 44.9950000  0  4G 2G11G19G 6
  19517186.0464  -23281551.34448 -18001252.56063
  22717920.460    -4135896.730 5  -3153221.95521
  20345834.8984   -2870331.72946  -2207754.10062
  20727569.952   -16142004.909 6 -10829402.76521
 91  3 21  0 27 59.9950000  0  4G 2G11G19G 6
  19512944.866   -23303839.293 8 -18018619.76523
  22723464.601    -4106753.207 5  -3130512.81321
  20348024.991    -2858836.608 6  -2198796.88922
  20719264.640   -16185651.706 6 -10863413.18121
 91  3 21  0 28 14.9950000  0  4G 2G11G19G 6
  19508714.6484  -23326075.77248 -18035946.86163
  22729027.1014   -4077529.22546  -3107740.94861
  20350223.288    -2847280.944 6  -2189792.49222
  20710958.7184  -16229294.86446 -10897420.74861
 91  3 21  0 28 29.9950000  0  4G 2G11G19G 6
  19504493.4524  -23348253.05348 -18053227.82663
  22734606.749    -4048217.220 6  -3084900.50421
  20352435.624    -2835656.851 6  -2180734.78822
  20702656.819   -16272926.189 6 -10931419.10821
 91  3 21  0 28 44.9950000  0  4G 2G11G19G 6
  19500283.9764  -23370375.34648 -18070465.94963
  22740200.921    -4018821.869 5  -3061995.12221
  20354659.8904   -2823968.48446  -2171626.99862
  20694356.2574  -16316550.06646 -10965411.67761
 91  3 21  0 28 59.9950000  0  4G 2G11G19G 6
  19496085.6324  -23392437.61248 -18087657.29663
  22745808.554    -3989338.362 5  -3039021.03121
  20356898.296    -2812210.943 6  -2162465.30122
  20686056.0234  -16360161.07446 -10999394.20861
 91  3 21  0 29 14.9950000  0  4G 2G11G19G 6
  19491898.9054  -23414436.12548 -18104798.96863
  22751435.1944   -3959763.15045  -3015975.50761
  20359148.0694   -2800380.21246  -2153246.57663
  20677762.319   -16403755.229 6 -11033363.60021
 91  3 21  0 29 29.9950000  0  4G 2G11G19G 6
  19487720.968   -23436385.220 8 -18121902.13323
  22757077.015    -3930110.805 5  -2992869.86021
  20361410.9524   -2788490.40846  -2143981.82563
  20669465.163   -16447346.554 6 -11067330.79421
 91  3 21  0 29 44.9950000  0  4G 2G11G19G 6
  19483554.3274  -23458277.65548 -18138961.14663
  22762740.265    -3900374.354 6  -2969698.66521
  20363685.0464   -2776534.33746  -2134665.43862
  20661171.483   -16490927.574 6 -11101289.95721
 91  3 21  0 29 59.9950000  0  4G 2G11G19G 6
  19479397.3744  -23480124.57348 -18155984.68663
  22768413.898    -3870565.248 6  -2946470.86921
  20365972.866    -2764522.922 6  -2125305.91422
  20652878.273   -16534509.352 6 -11135249.70221
 91  3 21  0 30 14.9950000  0  4G 2G11G19G 6
  19475251.741   -23501915.039 8 -18172964.24323
  22774101.0544   -3840672.88446  -2923178.18261
  20368269.093    -2752445.071 6  -2115894.62122
  20644585.288   -16578080.666 6 -11169201.29921
 91  3 21  0 30 29.9950000  0  4G 2G11G19G 6
  19471117.6634  -23523637.88948 -18189891.11363
  22779806.7024   -3810686.30446  -2899812.09961
  20370584.7024   -2740289.50846  -2106422.77862
  20636297.671   -16621630.120 6 -11203135.86821
 91  3 21  0 30 44.9950000  0  4G 2G11G19G 6
  19466994.343   -23545309.756 8 -18206778.25723
  22785526.5694   -3780622.41345  -2876385.77761
  20372908.0074   -2728072.77746  -2096903.28062
  20628012.257   -16665174.053 6 -11237066.12821
 91  3 21  0 30 59.9950000  0  4G 2G11G19G 6
  19462879.9214  -23566926.31548 -18223622.29963
  22791260.6714   -3750477.11645  -2852895.99461
  20375244.2574   -2715790.52446  -2087332.72563
  20619727.3824  -16708707.91446 -11270988.52661
 91  3 21  0 31 14.9950000  0  4G 2G11G19G 6
  19458775.9994  -23588496.00048 -18240429.81663
  22797016.460    -3720259.258 6  -2829349.69021
  20377593.640    -2703451.099 6  -2077717.61322
  20611444.765   -16752240.125 6 -11304909.63721
 91  3 21  0 31 29.9950000  0  4G 2G11G19G 6
  19454681.1244  -23610008.87448 -18257193.06663
  22802779.538    -3689959.184 5  -2805739.31821
  20379955.4604   -2691044.58346  -2068050.22862
  20603162.546   -16795760.370 6 -11338821.44521
 91  3 21  0 31 44.9950000  0  4G 2G11G19G 6
  19450600.1084  -23631459.03848 -18273907.45163
  22808561.812    -3659571.323 5  -2782060.53921
  20382328.9134   -2678565.08946  -2058325.97662
  20594885.765   -16839262.686 6 -11372719.26722
 91  3 21  0 31 59.9950000  0  4G 2G11G19G 6
  19446530.101   -23652849.045 8 -18290574.96223
  22814362.608    -3629098.276 5  -2758315.39721
  20384715.9684   -2666014.70746  -2048546.48762
  20586609.2574  -16882749.24146 -11406604.81061
 91  3 21  0 32 14.9950000  0  4G 2G11G19G 6
  19442468.812   -23674194.679 8 -18307207.89923
  22820172.804    -3598556.084 5  -2734516.36521
  20387115.9374   -2653409.16946  -2038724.01862
  20578334.898   -16926235.403 6 -11440490.04622
 91  3 21  0 32 29.9950000  0  4G 2G11G19G 6
  19438413.796   -23695498.041 8 -18323807.89723
  22825997.3904   -3567947.29645  -2710665.44861
  20389525.3194   -2640750.47146  -2028860.13062
  20570059.296   -16969723.277 6 -11474376.62822
 91  3 21  0 32 44.9950000  0  4G 2G11G19G 6
  19434369.741   -23716751.317 8 -18340368.86723
  22831838.132    -3537264.140 6  -2686756.58221
  20391943.9444   -2628030.71946  -2018948.66362
  20561783.827   -17013204.654 6 -11508258.14022
 91  3 21  0 32 59.9950000  0  4G 2G11G19G 6
  19430335.4294  -23737949.40548 -18356886.82963
  22837694.3194   -3506502.11846  -2662786.25561
  20394381.608    -2615244.822 6  -2008985.64522
  20553513.202   -17056674.425 7 -11542130.59821
 91  3 21  0 33 14.9950000  0  4G 2G11G19G 6
  19426312.9684  -23759085.30048 -18373356.32663
  22843561.968    -3475654.328 6  -2638749.09321
  20396825.8664   -2602385.56646  -1998965.47562
  20545246.273   -17100125.188 7 -11575988.25822
 91  3 21  0 33 29.9950000  0  4G 2G11G19G 6
  19422302.773   -23780162.051 8 -18389779.74423
  22849449.351    -3444724.068 6  -2614647.66921
  20399284.7414   -2589455.79446  -1988890.35762
  20536979.5464  -17143559.71847 -11609833.25361
 91  3 21  0 33 44.9950000  0  4G 2G11G19G 6
  19418302.9214  -23801185.46848 -18406161.59863
  22855347.0624   -3413717.44146  -2590486.73661
  20401757.0694   -2576461.28446  -1978764.80162
  20528714.546   -17186983.716 7 -11643670.05122
 91  3 21  0 33 59.9950000  0  4G 2G11G19G 6
  19414313.6014  -23822142.97848 -18422492.09763
  22861263.7184   -3382622.13045  -2566256.70061
  20404248.9994   -2563389.40146  -1968578.95062
  20520456.858   -17230384.248 7 -11677488.57221
 91  3 21  0 34 14.9950000  0  4G 2G11G19G 6
  19410336.6244  -23843039.72648 -18438775.24863
  22867198.5694   -3351443.77145  -2541961.96261
  20406746.796    -2550245.342 6  -1958336.85422
  20512200.773   -17273766.473 7 -11711292.82122
 91  3 21  0 34 29.9950000  0  4G 2G11G19G 6
  19406371.0544  -23863882.11548 -18455016.04063
  22873144.5934   -3320188.86445  -2517607.57861
  20409264.7804   -2537035.34346  -1948043.37862
  20503947.773   -17317136.357 7 -11745087.45522
 91  3 21  0 34 44.9950000  0  4G 2G11G19G 6
  19402417.7574  -23884656.91348 -18471204.16563
  22879112.530    -3288844.455 5  -2493183.43321
  20411789.8584   -2523745.93746  -1937688.03262
  20495700.5544  -17360480.43347 -11778861.97462
 91  3 21  0 34 59.9940000  0  4G 2G11G19G 6
  19398474.104   -23905381.253 8 -18487352.97423
  22885089.971    -3257431.454 5  -2468705.85421
  20414333.1904   -2510396.55746  -1927285.95462
  20487453.3544  -17403814.12447 -11812628.38862
 91  3 21  0 35 14.9940000  0  4G 2G11G19G 6
  19394538.768   -23926063.585 8 -18503469.05123
  22891077.4944   -3225951.62645  -2444176.18761
  20416881.5654   -2496990.94246  -1916840.05662
  20479205.4324  -17447148.68047 -11846395.48962
 91  3 21  0 35 29.9940000  0  4G 2G11G19G 6
  19390613.471   -23946687.727 8 -18519539.78623
  22897088.033    -3194392.763 5  -2419584.93321
  20419445.0414   -2483515.18546  -1906339.49762
  20470963.104   -17490466.225 6 -11880149.33022
 91  3 21  0 35 44.9940000  0  4G 2G11G19G 6
  19386697.1664  -23967270.95548 -18535578.64063
  22903099.377    -3162772.279 5  -2394945.66721
  20422018.9864   -2469986.43246  -1895797.64162
  20462720.002   -17533783.730 6 -11913903.14822
 91  3 21  0 35 59.9940000  0  4G 2G11G19G 6
  19382790.6664  -23987794.33548 -18551570.85263
  22909132.205    -3131071.643 5  -2370243.95521
  20424608.166    -2456385.786 6  -1885199.76022
  20454481.619   -17577082.116 6 -11947642.07222
 91  3 21  0 36 14.9940000  0  4G 2G11G19G 6
  19378898.385   -24008246.203 8 -18567507.34923
  22915180.9864   -3099279.28445  -2345470.74961
  20427213.3614   -2442701.35846  -1874536.60162
  20446248.236   -17620349.383 7 -11981356.73722
 91  3 21  0 36 29.9940000  0  4G 2G11G19G 6
  19375014.221   -24028661.207 8 -18583415.12223
  22921245.744    -3067430.147 5  -2320653.31721
  20429824.0724   -2428967.61246  -1863835.01362
  20438012.471   -17663619.904 7 -12015073.94822
 91  3 21  0 36 44.9940000  0  3G 2G19G 6
  19371143.6114  -24049004.67048 -18599267.14463
  20432454.4404   -2415149.62346  -1853067.78562
  20429786.0184  -17706858.67347 -12048766.40562
 91  3 21  0 36 59.9940000  0  3G 2G19G 6
  19367284.0024  -24069283.92548 -18615069.13363
  20435103.4944   -2401254.70346  -1842240.60662
  20421562.8154  -17750072.77947 -12082439.64662
 91  3 21  0 37 14.9940000  0  3G 2G19G 6
  19363429.690   -24089538.590 8 -18630851.96523
  20437750.0804   -2387322.34546  -1831384.26062
  20413334.830   -17793301.568 7 -12116124.33022
 91  3 21  0 37 29.9940000  0  3G 2G19G 6
  19359586.025   -24109737.505 8 -18646591.35523
  20440415.5884   -2373321.34146  -1820474.42762
  20405114.518   -17836513.884 7 -12149796.18222
 91  3 21  0 37 44.9940000  0  3G 2G19G 6
  19355758.893   -24129849.733 8 -18662263.19523
  20443098.9634   -2359220.99146  -1809487.17762
  20396899.205   -17879678.607 7 -12183430.95222
 91  3 21  0 37 59.9940000  0  3G 2G19G 6
  19351940.3224  -24149917.00348 -18677900.00263
  20445794.8614   -2345062.78846  -1798454.85062
  20388687.127   -17922837.100 7 -12217060.87222
 91  3 21  0 38 14.9940000  0  3G 2G19G 6
  19348130.0804  -24169936.20348 -18693499.34363
  20448497.9634   -2330843.34046  -1787374.79362
  20380474.525   -17965985.861 7 -12250683.21322
 91  3 21  0 38 29.9940000  0  3G 2G19G 6
  19344332.346   -24189897.201 8 -18709053.34323
  20451218.6504   -2316552.52546  -1776239.13662
  20372268.205   -18009114.538 6 -12284289.89522
 91  3 21  0 38 44.9940000  0  3G 2G19G 6
  19340543.510   -24209804.314 8 -18724565.35223
  20453950.3304   -2302194.63846  -1765051.20562
  20364064.065   -18052227.388 7 -12317884.23922
 91  3 21  0 38 59.9940000  0  3G 2G19G 6
  19336765.346   -24229659.229 8 -18740036.69323
  20456697.4554   -2287771.38746  -1753812.33962
  20355862.080   -18095325.774 7 -12351467.30722
 91  3 21  0 39 14.9940000  0  3G 2G19G 6
  19333000.635   -24249450.606 8 -18755458.52624
  20459453.5804   -2273271.04846  -1742513.41062
  20347666.041   -18138398.178 7 -12385030.15322
 91  3 21  0 39 29.9940000  0  3G 2G19G 6
  19329243.252   -24269188.108 8 -18770838.38024
  20462226.5184   -2258703.29546  -1731161.94862
  20339471.916   -18181453.830 7 -12418579.93222
 91  3 21  0 39 44.9940000  0  4G15G 2G19G 6
  22641941.7214         -0.75555
  19325495.408   -24288883.886 8 -18786185.71823
  20465009.5724   -2244080.21646  -1719767.37862
  20331281.2294  -18224504.57447 -12452125.89562
 91  3 21  0 39 59.9940000  0  4G15G 2G19G 6
  22634202.658      -40678.620 5
  19321757.752   -24308526.255 8 -18801491.44223
  20467805.072    -2229390.126 6  -1708320.60022
  20323091.9164  -18267538.75847 -12485658.96562
 91  3 21  0 40 14.9940000  0  4G15G 2G19G 6
  22626472.838      -81289.994 5        -0.49431
  19318028.971   -24328119.471 8 -18816758.86524
  20470611.158    -2214637.210 6  -1696824.86922
  20314904.1194  -18310560.13647 -12519182.05162
 91  3 21  0 40 29.9940000  0  4G15G 2G19G 6
  22618761.8154    -121818.03345    -31580.69561
  19314312.697   -24347647.036 8 -18831975.13023
  20473433.6434   -2199804.90446  -1685267.27162
  20306722.6664  -18353552.11547 -12552682.22162
 91  3 21  0 40 44.9940000  0  4G15G 2G19G 6
  22611060.7754    -162278.53245    -63108.27161
  19310607.190   -24367125.423 8 -18847153.07324
  20476267.2214   -2184909.54046  -1673660.52762
  20298544.049   -18396530.890 7 -12586172.10522
 91  3 21  0 40 59.9940000  0  4G15G 2G19G 6
  22603373.815     -202663.022 5    -94576.61921
  19306911.424   -24386546.626 8 -18862286.45523
  20479117.979    -2169942.992 6  -1661998.32222
  20290368.8854  -18439488.15047 -12619645.23362
 91  3 21  0 41 14.9940000  0  4G15G 2G19G 6
  22595703.736     -242973.196 5   -125987.06421
  19303225.190   -24405912.640 8 -18877376.83823
  20481977.760    -2154907.199 6  -1650282.16322
  20282198.9004  -18482425.60347 -12653102.93262
 91  3 21  0 41 29.9940000  0  4G15G 2G19G 6
  22588050.1434    -283216.97545   -157345.76361
  19299549.033   -24425231.980 8 -18892430.84623
  20484850.971    -2139810.464 6  -1638518.51722
  20274029.3614  -18525351.56847 -12686551.66362
 91  3 21  0 41 44.9940000  0  4G15G 2G19G 6
  22580405.963     -323374.018 5   -188636.88921
  19295885.166   -24444484.536 8 -18907432.81723
  20487738.9004   -2124632.68046  -1626691.71362
  20265867.971   -18568245.718 7 -12719975.60322
 91  3 21  0 41 59.9940000  0  4G15G 2G19G 6
  22572771.7684    -363475.67845   -219884.85661
  19292228.674   -24463702.351 8 -18922407.71424
  20490637.6584   -2109405.71846  -1614826.58662
  20257705.400   -18611139.770 7 -12753399.46422
 91  3 21  0 42 14.9940000  0  4G15G 2G19G 6
  22565155.9004    -403505.33845   -251076.70761
  19288581.775   -24482869.147 8 -18937342.85924
  20493546.5024   -2094113.24946  -1602910.40862
  20249545.479   -18654017.102 7 -12786810.29622
 91  3 21  0 42 29.9940000  0  4G15G 2G19G 6
  22557555.213     -443447.168 5   -282200.12421
  19284945.807   -24501969.829 8 -18952226.48824
  20496472.5574   -2078740.05446  -1590931.32962
  20241393.830   -18696862.373 7 -12820196.14522
 91  3 21  0 42 44.9940000  0  4G15G 2G19G 6
  22549971.299     -483303.643 5   -313257.00521
  19281323.783   -24521006.966 8 -18967060.59924
  20499412.6824   -2063288.92346  -1578891.52662
  20233245.611   -18739678.070 7 -12853558.94822
 91  3 21  0 42 59.9940000  0  4G15G 2G19G 6
  22542403.3384    -523079.82145   -344251.33861
  19277712.182   -24539986.018 8 -18981849.44724
  20502365.8934   -2047765.07646  -1566795.06062
  20225102.5024  -18782469.30147 -12886902.70062
 91  3 21  0 43 14.9940000  0  4G15G 2G19G 6
  22534844.5414    -562794.98845   -375198.12561
  19274107.275   -24558926.497 8 -18996608.23924
  20505331.580    -2032187.845 6  -1554657.00222
  20216959.7834  -18825255.23747 -12920242.32562
 91  3 21  0 43 29.9940000  0  4G15G 2G19G 6
  22527301.1904    -602438.08545   -406088.75961
  19270513.643   -24577817.779 8 -19011328.69224
  20508307.5414   -2016546.53646  -1542469.00862
  20208821.541   -18868025.079 7 -12953569.40222
 91  3 21  0 43 44.9940000  0  4G15G 2G19G 6
  22519773.432     -642011.471 5   -436925.09321
  19266927.479   -24596662.653 8 -19026012.98624
  20511296.416    -2000843.917 6  -1530233.24522
  20200685.3154  -18910781.42747 -12986885.96462
 91  3 21  0 43 59.9940000  0  4G15G 2G19G 6
  22512254.979     -681506.963 5   -467700.70721
  19263351.385   -24615453.493 8 -19040655.17524
  20514298.010    -1985072.473 6  -1517943.85322
  20192554.588   -18953516.493 7 -13020185.94322
 91  3 21  0 44 14.9940000  0  4G15G 2G19G 6
  22504751.494     -720927.092 5   -498417.61421
  19259784.986   -24634193.462 8 -19055257.72124
  20517310.400    -1969235.095 6  -1505603.08222
  20184423.3464  -18996233.05647 -13053471.50962
 91  3 21  0 44 29.9940000  0  4G15G 2G19G 6
  22497267.0184    -760268.94845   -529073.53961
  19256228.885   -24652880.096 8 -19069818.71624
  20520337.1664   -1953329.10746  -1493208.84862
  20176299.6824  -19038928.31347 -13086740.47962
 91  3 21  0 44 44.9940000  0  4G15G 2G19G 6
  22489797.6744    -799522.68445   -559660.77861
  19252685.432   -24671503.764 8 -19084330.64424
  20523378.8854   -1937344.96146  -1480753.71362
  20168180.4084  -19081592.36347 -13119985.12762
 91  3 21  0 44 59.9940000  0  4G15G 2G19G 6
  22482344.627     -838690.002 5   -590180.64721
  19249152.861   -24690066.677 8 -19098795.23124
  20526437.4794   -1921284.68646  -1468239.24962
  20160067.9244  -19124227.11747 -13153206.95462
 91  3 21  0 45 14.9940000  0  4G15G 2G19G 6
  22474901.018     -877795.723 5   -620652.53821
  19245626.674   -24708593.923 8 -19113232.02724
  20529503.0574   -1905173.31346  -1455684.96962
  20151955.8694  -19166857.57647 -13186425.43262
 91  3 21  0 45 29.9940000  0  4G15G 2G19G 6
  22467478.158     -916810.664 5   -651053.68321
  19242112.908   -24727056.748 8 -19127618.62124
  20532584.1584   -1888982.25846  -1443068.59362
  20143849.8074  -19209454.59247 -13219617.84462
 91  3 21  0 45 44.9940000  0  4G15G 2G19G 6
  22460068.8074    -955752.55145   -681397.91561
  19238608.869   -24745473.411 8 -19141969.24524
  20535675.4944   -1872729.60746  -1430404.22662
  20135745.4164  -19252036.18247 -13252798.23662
 91  3 21  0 45 59.9940000  0  4G15G 2G19G 6
  22452667.604     -994619.963 5   -711684.11621
  19235113.455   -24763842.954 8 -19156283.15824
  20538781.791    -1856414.342 6  -1417691.07922
  20127645.994   -19294601.093 7 -13285965.64322
 91  3 21  0 46 14.9940000  0  4G15G 2G19G 6
  22445295.1434   -1033391.03145   -741895.24061
  19231631.080   -24782143.910 8 -19170543.62024
  20541900.947    -1840014.973 6  -1404912.40222
  20119553.0494  -19337127.68447 -13319103.18562
 91  3 21  0 46 29.9940000  0  4G15G 2G19G 6
  22437932.650    -1072070.276 5   -772034.82121
  19228160.619   -24800381.301 8 -19184754.55524
  20545039.205    -1823536.119 6  -1392071.78722
  20111468.4714  -19379620.66047 -13352214.52762
 91  3 21  0 46 44.9940000  0  4G15G 2G19G 6
  22430587.557    -1110673.156 5   -802114.89121
  19224698.752   -24818571.128 8 -19198928.42324
  20548183.900    -1806993.675 6  -1379181.62022
  20103384.9164  -19422095.67547 -13385311.87262
 91  3 21  0 46 59.9940000  0  4G15G 2G19G 6
  22423252.7444   -1149198.24345   -832134.34761
  19221246.955   -24836712.247 8 -19213064.33824
  20551347.400    -1790386.826 6  -1366241.26022
  20095303.9164  -19464551.46347 -13418394.24862
 91  3 21  0 47 14.9940000  0  4G15G 2G19G 6
  22415941.4794   -1187638.93945   -862088.05261
  19217804.838   -24854798.398 8 -19227157.42324
  20554518.682    -1773709.011 6  -1353245.60422
  20087231.2524  -19506981.33647 -13451456.42062
 91  3 21  0 47 29.9940000  0  5G15G 2G13G19G 6
  22408638.6504   -1226002.31745   -891981.48061
  19214372.846   -24872837.053 8 -19241213.50324
  22359755.3854         -0.65854
  20557707.025    -1756967.649 6  -1340200.43122
  20079161.0574  -19549392.62047 -13484504.11462
 91  3 21  0 47 44.9940000  0  5G15G 2G13G19G 6
  22401353.5804   -1264290.23645   -921816.13961
  19210948.697   -24890830.541 8 -19255234.38324
  22345837.9244     -73152.21945
  20560900.900    -1740165.018 6  -1327107.51522
  20071093.8074  -19591787.32047 -13517538.87562
 91  3 21  0 47 59.9940000  0  5G15G 2G13G19G 6
  22394084.6904   -1302503.22445   -951592.38361
  19207532.705   -24908779.727 8 -19269220.74924
  22331921.8074    -146285.39145
  20564109.518    -1723301.898 6  -1313967.46622
  20063027.1974  -19634166.00047 -13550561.16462
 91  3 21  0 48 14.9940000  0  5G15G 2G13G19G 6
  22386828.557    -1340636.776 5   -981306.73821
  19204126.8224  -24926680.63148 -19283169.49364
  22318007.190     -219395.644 5
  20567332.385    -1706374.358 6  -1300777.22622
  20054968.2444  -19676524.43647 -13583567.68062
 91  3 21  0 48 29.9940000  0  5G15G 2G13G19G 6
  22379583.541    -1378685.651 5  -1010955.10721
  19200729.9084  -24944528.33348 -19297076.78364
  22304099.752     -292477.720 5
  20570566.744    -1689377.416 6  -1287532.90422
  20046912.018   -19718857.500 7 -13616554.42922
 91  3 21  0 48 44.9940000  0  5G15G 2G13G19G 6
  22372356.627    -1416655.452 5  -1040541.86321
  19197343.010   -24962329.117 8 -19310947.50724
  22290198.1504    -365537.19545        -0.06571
  20573813.268    -1672317.167 6  -1274239.25222
  20038860.4714  -19761170.98047 -13649525.91362
 91  3 21  0 48 59.9940000  0  5G15G 2G13G19G 6
  22365150.744    -1454538.633 5  -1070061.10321
  19193966.393   -24980075.566 8 -19324775.89124
  22276303.2214    -438566.33845    -56905.60461
  20577072.768    -1655186.182 6  -1260890.47522
  20030814.2134  -19803457.36947 -13682476.28162
 91  3 21  0 49 14.9940000  0  5G15G 2G13G19G 6
  22357958.111    -1492337.129 5  -1099514.36821
  19190599.135   -24997769.913 8 -19338563.67124
  22262407.869     -511567.185 5   -113789.07721
  20580346.721    -1637986.833 6  -1247488.43222
  20022771.315   -19845718.775 7 -13715407.19922
 91  3 21  0 49 29.9940000  0  5G15G 2G13G19G 6
  22350781.971    -1530059.928 5  -1128908.64521
  19187239.596   -25015421.855 8 -19352318.40924
  22248522.502     -584548.685 5   -170657.47421
  20583634.408    -1620728.435 6  -1234040.38022
  20014732.2834  -19887964.39147 -13748325.79762
 91  3 21  0 49 44.9940000  0  5G15G 2G13G19G 6
  22343618.5414   -1567690.79245  -1158231.28761
  19183892.729   -25033015.616 8 -19366027.81024
  22234639.9084    -657494.49845   -227498.08661
  20586929.0574   -1603395.07846  -1220533.92362
  20006700.0104  -19930178.20847 -13781219.61662
 91  3 21  0 49 59.9940000  0  5G15G 2G13G19G 6
  22336476.018    -1605225.135 5  -1187478.72821
  19180555.315   -25050546.843 8 -19379688.48924
  22220764.5254    -730399.95745   -284307.22661
  20590242.229    -1585982.490 6  -1206965.73022
  19998673.4164  -19972355.65347 -13814085.09862
 91  3 21  0 50 14.9940000  0  5G15G 2G13G19G 6
  22329352.213    -1642667.987 5  -1216654.87221
  19177229.7684  -25068020.76548 -19393304.50264
  22206895.783     -803269.866 4   -341088.68721
  20593570.158    -1568495.898 6  -1193339.85922
  19990653.1044  -20014501.65447 -13846926.06862
 91  3 21  0 50 29.9940000  0  5G15G 2G13G19G 6
  22322238.8774   -1680034.99445  -1245771.90161
  19173912.611   -25085453.563 8 -19406888.47724
  22193031.7444    -876120.04945   -397854.75761
  20596910.510    -1550951.476 6  -1179668.93122
  19982635.5494  -20056632.19947 -13879754.99762
 91  3 21  0 50 44.9940000  0  5G15G 2G13G19G 6
  22315149.143    -1717302.709 5  -1274811.58321
  19170607.572   -25102822.562 8 -19420422.74324
  22179179.557     -948927.498 4   -454587.56021
  20600262.5724   -1533326.31546  -1165935.08362
  19974626.0804  -20098724.17847 -13912553.88562
 91  3 21  0 50 59.9940000  0  5G15G 2G13G19G 6
  22308070.3544   -1754472.19145  -1303774.72061
  19167313.877   -25120128.833 8 -19433908.12724
  22165329.158    -1021692.444 4   -511287.21921
  20603632.377    -1515621.437 6  -1152139.11722
  19966623.9714  -20140778.40847 -13945323.35762
 91  3 21  0 51 14.9940000  0  5G15G 2G13G19G 6
  22301016.025    -1791575.931 5  -1332686.61621
  19164025.283   -25137405.255 8 -19447370.26024
  22151489.025    -1094447.477 4   -567979.14321
  20607008.213    -1497869.928 6  -1138306.81622
  19958621.6504  -20182827.63547 -13978088.92662
 91  3 21  0 51 29.9940000  0  5G15G 2G13G19G 6
  22293974.8224   -1828586.96345  -1361526.26761
  19160749.565   -25154625.661 8 -19460788.73424
  22137651.408    -1167165.846 5   -624642.52521
  20610401.721    -1480045.391 6  -1124417.61422
  19950624.6194  -20224845.23547 -14010829.86362
 91  3 21  0 51 44.9940000  0  5G15G 2G13G19G 6
  22286942.7054   -1865507.09245  -1390295.08261
  19157482.815   -25171792.110 8 -19474165.16924
  22123817.900    -1239849.594 5   -681278.92421
  20613805.119    -1462149.870 6  -1110473.09622
  19942635.393   -20266833.287 7 -14043547.76422
 91  3 21  0 51 59.9940000  0  5G15G 2G13G19G 6
  22279933.838    -1902350.084 5  -1419003.80421
  19154224.393   -25188918.575 8 -19487510.44524
  22109993.885    -1312512.006 5   -737898.68821
  20617223.182    -1444197.205 6  -1096484.04922
  19934648.2684  -20308805.10547 -14076253.02162
 91  3 21  0 52 14.9940000  0  5G15G 2G13G19G 6
  22272940.174    -1939109.800 5  -1447647.62921
  19150973.565   -25205999.413 8 -19500820.17224
  22096170.510    -1385147.029 5   -794497.15121
  20620652.252    -1426181.741 6  -1082446.07222
  19926664.8934  -20350754.94047 -14108941.14262
 91  3 21  0 52 29.9940000  0  5G15G 2G13G19G 6
  22265960.346    -1975776.430 5  -1476218.92221
  19147733.002   -25223025.471 8 -19514087.20724
  22082358.0724   -1457744.69845   -851066.43061
  20624096.729    -1408094.342 6  -1068352.03721
  19918689.4714  -20392673.34447 -14141604.76662
 91  3 21  0 52 44.9940000  0  5G15G 2G13G19G 6
  22259004.9404   -2012355.59845  -1504722.07161
  19144502.994   -25240002.567 8 -19527316.09124
  22068546.025    -1530310.564 5   -907610.98521
  20627545.2604   -1389940.81446  -1054206.47562
  19910717.7214  -20434565.83547 -14174248.20362
 91  3 21  0 52 59.9940000  0  5G15G 2G13G19G 6
  22252054.643    -2048846.611 5  -1533156.53121
  19141281.611   -25256930.125 8 -19540506.36924
  22054746.1584   -1602843.70145   -964130.01661
  20631014.002    -1371720.504 6  -1040008.87721
  19902750.2054  -20476431.69847 -14206870.88762
 91  3 21  0 53 14.9940000  0  5G15G 2G13G19G 6
  22245126.877    -2085256.966 5  -1561528.12221
  19138068.330   -25273816.332 8 -19553664.43424
  22040943.1584   -1675351.73145  -1020629.49361
  20634493.0414   -1353441.19446  -1025765.29462
  19894786.3224  -20518278.56947 -14239478.77862
 91  3 21  0 53 29.9940000  0  5G15G 2G13G19G 6
  22238216.2214   -2121566.69745  -1589821.31861
  19134866.299   -25290641.805 8 -19566775.17524
  22027154.119    -1747814.679 5  -1077093.87921
  20637986.900    -1335083.531 6  -1011460.67422
  19886831.7994  -20560086.75247 -14272056.51762
 91  3 21  0 53 44.9940000  0  5G15G 2G13G19G 6
  22231325.0414   -2157792.64645  -1618049.24061
  19131672.9324  -25307423.61648 -19579851.90464
  22013369.721    -1820249.564 5  -1133536.31221
  20641493.049    -1316664.827 6   -997108.48822
  19878879.1114  -20601873.22747 -14304617.34062
 91  3 21  0 53 59.9940000  0  5G15G 2G13G19G 6
  22224445.690    -2193936.967 5  -1646213.54221
  19128488.283   -25324164.451 8 -19592896.69924
  21999591.822    -1892658.413 5  -1189958.53121
  20645009.1354   -1298187.55646   -982710.67062
  19870932.588   -20643640.499 7 -14337163.21422
 91  3 21  0 54 14.9940000  0  5G15G 2G13G19G 6
  22217585.377    -2229987.908 5  -1674305.07821
  19125311.658   -25340852.667 8 -19605900.48524
  21985822.369    -1965029.221 5  -1246351.08321
  20648537.619    -1279640.123 6   -968258.17822
  19862990.3694  -20685376.63447 -14369684.81662
 91  3 21  0 54 29.9940000  0  5G15G 2G13G19G 6
  22210744.916    -2265938.278 5  -1702318.24121
  19122146.830   -25357481.633 8 -19618858.10324
  21972059.408    -2037354.964 5  -1302708.53021
  20652081.518    -1261015.909 6   -953745.84922
  19855054.604   -20727074.712 7 -14402176.76922
 91  3 21  0 54 44.9940000  0  5G15G 2G13G19G 6
  22203923.736    -2301805.970 5  -1730266.97921
  19118991.041   -25374069.812 8 -19631783.93424
  21958299.861    -2109653.495 5  -1359044.72421
  20655636.518    -1242333.309 6   -939188.03022
  19847121.869   -20768752.821 7 -14434653.16722
 91  3 21  0 54 59.9940000  0  5G15G 2G13G19G 6
  22197110.1274   -2337582.28545  -1758144.53861
  19115843.721   -25390608.774 8 -19644671.42424
  21944548.2364   -2181915.61045  -1415352.58361
  20659206.393    -1223583.722 6   -924578.00322
  19839196.049   -20810402.119 7 -14467107.11022
 91  3 21  0 55 14.9940000  0  5G15G 2G13G19G 6
  22190319.2914   -2373266.31945  -1785950.18261
  19112705.518   -25407097.772 8 -19657519.97324
  21930806.197    -2254140.321 5  -1471631.29921
  20662785.2444   -1204766.23046   -909915.06462
  19831276.783   -20852021.596 7 -14499537.81322
 91  3 21  0 55 29.9940000  0  5G15G 2G13G19G 6
  22183544.1664   -2408863.79445  -1813688.38761
  19109575.908   -25423543.017 8 -19670334.42824
  21917066.0654   -2326333.38945  -1527885.35261
  20666379.557    -1185887.127 6   -895204.12422
  19823362.7524  -20893617.28247 -14531949.98062
 91  3 21  0 55 44.9940000  0  5G15G 2G13G19G 6
  22176787.072    -2444372.430 5  -1841357.36421
  19106456.565   -25439942.731 8 -19683113.40924
  21903333.6824   -2398492.70745  -1584113.12061
  20669982.908    -1166944.625 6   -880443.78222
  19815451.2994  -20935187.04447 -14564341.94062
 91  3 21  0 55 59.9940000  0  5G15G 2G13G19G 6
  22170049.213    -2479786.314 5  -1868952.51721
  19103343.635   -25456291.348 8 -19695852.57624
  21889607.361    -2470612.315 5  -1640309.91321
  20673599.650    -1147933.142 6   -865629.69022
  19807546.690   -20976725.139 7 -14596709.23022
 91  3 21  0 56 14.9940000  0  5G15G 2G13G19G 6
  22163324.6664   -2515114.31545  -1896480.73061
  19100241.0654  -25472598.18648 -19708559.19364
  21875888.869    -2542700.912 5  -1696482.58621
  20677230.682    -1128861.887 6   -850769.02922
  19799646.6664  -21018240.49247 -14629058.80062
 91  3 21  0 56 29.9940000  0  5G15G 2G13G19G 6
  22156624.322    -2550341.145 5  -1923930.12221
  19097148.8694  -25488848.39848 -19721221.68664
  21862180.4794   -2614743.15945  -1752619.12761
  20680872.588    -1109715.930 6   -835850.15022
  19791754.440   -21059718.035 7 -14661378.90522
 91  3 21  0 56 44.9940000  0  5G15G 2G13G19G 6
  22149937.9084   -2585471.38045  -1951304.23661
  19094065.572   -25505046.797 8 -19733843.79524
  21848476.2294   -2686743.81545  -1808723.26061
  20684529.7914   -1090500.26146   -820876.95462
  19783867.682   -21101162.376 7 -14693673.14622
 91  3 21  0 56 59.9940000  0  5G15G 2G13G19G 6
  22143268.8304   -2620510.77445  -1978607.56261
  19090994.486   -25521199.636 8 -19746430.40624
  21834784.596    -2758708.460 5  -1864799.32221
  20688200.0184   -1071221.01746   -805854.22362
  19775985.908   -21142579.354 7 -14725946.07022
 91  3 21  0 57 14.9940000  0  5G15G 2G13G19G 6
  22136620.463    -2655455.707 5  -2005837.28721
  19087928.221   -25537303.622 8 -19758978.95424
  21821097.6354   -2830633.25345  -1920844.35461
  20691880.252    -1051874.696 6   -790779.22922
  19768111.205   -21183965.417 7 -14758194.89722
 91  3 21  0 57 29.9940000  0  5G15G 2G13G19G 6
  22129990.447    -2690305.258 5  -2032992.67521
  19084874.072   -25553358.161 8 -19771488.96524
  21807418.3774   -2902517.21645  -1976857.56861
  20695577.361    -1032460.534 6   -775651.36322
  19760241.0804  -21225319.59347 -14790418.86862
 91  3 21  0 57 44.9940000  0  5G15G 2G13G19G 6
  22123375.932    -2725054.224 5  -2060069.70321
  19081827.315   -25569358.267 8 -19783956.56024
  21793749.838    -2974355.125 5  -2032834.88321
  20699283.166    -1012973.863 6   -760466.99321
  19752378.4714  -21266636.75747 -14822614.00862
 91  3 21  0 57 59.9940000  0  5G15G 2G13G19G 6
  22116785.127    -2759700.486 5  -2087066.70521
  19078794.322   -25585302.333 8 -19796380.49424
  21780086.8614   -3046144.81545  -2088774.62461
  20703009.4164    -993412.95946   -745224.77162
  19744522.4404  -21307915.04447 -14854778.83662
 91  3 21  0 58 14.9940000  0  5G15G 2G13G19G 6
  22110208.5574   -2794262.63245  -2113998.15461
  19075766.5574  -25601209.30948 -19808775.53264
  21766432.4794   -3117904.92545  -2144691.31661
  20706739.3384    -973796.52946   -729939.28161
  19736672.111   -21349173.024 7 -14886927.84322
 91  3 21  0 58 29.9940000  0  5G15G 2G13G19G 6
  22103647.432    -2828726.759 5  -2140853.23821
  19072748.3154  -25617065.95648 -19821131.34964
  21752783.2604   -3189621.37645  -2200574.00661
  20710485.955     -954111.284 6   -714600.17021
  19728826.6354  -21390397.00947 -14919050.36162
 91  3 21  0 58 44.9940000  0  5G15G 2G13G19G 6
  22097109.916    -2863096.370 5  -2167634.65821
  19069740.9944  -25632875.95448 -19833450.81764
  21739142.705    -3261297.290 5  -2256425.07721
  20714241.760     -934360.899 6   -699210.30922
  19720989.4634  -21431590.44347 -14951149.08062
 91  3 21  0 58 59.9940000  0  5G15G 2G13G19G 6
  22090588.4244   -2897364.56545  -2194337.05261
  19066742.1504  -25648632.72048 -19845728.80564
  21725512.2994   -3332926.00745  -2312239.39361
  20718017.494     -914538.866 6   -683764.62121
  19713157.1824  -21472746.51047 -14983218.67862
 91  3 21  0 59 14.9940000  0  5G15G 2G13G19G 6
  22084085.7994   -2931529.27845  -2220958.82061
  19063755.768   -25664334.764 8 -19857964.15124
  21711893.4474   -3404505.57445  -2368015.41661
  20721798.846     -894643.688 6   -668261.94121
  19705332.3934  -21513863.62047 -15015257.92462
 91  3 21  0 59 29.9940000  0  5G15G 2G13G19G 6
  22077600.541    -2965603.919 5  -2247510.41021
  19060774.377   -25679995.902 8 -19870167.61424
  21698278.0254   -3476049.30945  -2423763.48661
  20725600.885     -874689.305 5   -652713.11821
  19697511.6974  -21554955.11947 -15047277.20762
 91  3 21  0 59 44.9940000  0  5G15G 2G13G19G 6
  22071138.635    -2999574.299 5  -2273980.75421
  19057804.291   -25695602.373 8 -19882328.47724
  21684672.8694   -3547542.60145  -2479472.27361
  20729408.494     -854661.631 6   -637107.18022
  19689700.9864  -21596006.67047 -15079265.36362
 91  3 21  0 59 59.9940000  0  5G15G 2G13G19G 6
  22064693.8854   -3033432.61045  -2300363.76561
  19054846.775   -25711146.494 8 -19894440.76124
  21671079.3384   -3618978.03745  -2535135.99061
  20733238.252     -834553.240 6   -621438.35222
  19681897.3074  -21637010.71147 -15111216.50262
 91  3 21  1  0 14.9940000  0  5G15G 2G13G19G 6
  22058270.7364   -3067189.02145  -2326667.37861
  19051898.033   -25726638.919 8 -19906512.75824
  21657494.291    -3690365.437 5  -2590762.26421
  20737074.869     -814374.454 6   -605714.66821
  19674102.7364  -21677977.46247 -15143138.57862
 91  3 21  1  0 29.9940000  0  5G15G 2G13G19G 6
  22051867.299    -3100839.007 5  -2352888.05121
  19048961.580   -25742075.356 8 -19918541.13824
  21643919.994    -3761700.055 5  -2646347.41021
  20740928.932     -794121.126 6   -589932.90421
  19666313.940   -21718902.410 7 -15175028.07223
 91  3 21  1  0 44.9940000  0  5G15G 2G13G19G 6
  22045481.479    -3134394.461 5  -2379035.05221
  19046031.690   -25757467.936 8 -19930535.33924
  21630351.408    -3832993.738 5  -2701900.68421
  20744796.182     -773805.465 6   -574102.56221
  19658533.0334  -21759797.54247 -15206894.33862
 91  3 21  1  0 59.9940000  0  5G15G 2G13G19G 6
  22039111.8854   -3167866.87945  -2405117.36161
  19043109.424   -25772828.848 8 -19942504.85724
  21616788.861    -3904258.261 5  -2757431.21421
  20748672.3544    -753439.60146   -558233.09561
  19650753.9164  -21800674.51747 -15238746.46463
 91  3 21  1  1 14.9940000  0  5G15G 2G13G19G 6
  22032758.1114   -3201252.99945  -2431132.41361
  19040192.994   -25788155.021 8 -19954447.31024
  21603235.2754   -3975489.94945  -2812936.14961
  20752558.2214    -733020.27146   -542321.97261
  19642978.8694  -21841530.02347 -15270581.85763
 91  3 21  1  1 29.9940000  0  5G15G 2G13G19G 6
  22026424.7754   -3234527.03445  -2457060.13761
  19037287.690   -25803420.896 8 -19966342.78624
  21589691.768    -4046662.636 5  -2868395.10221
  20756457.799     -712521.794 6   -526349.17121
  19635214.2684  -21882338.06347 -15302380.27463
 91  3 21  1  1 44.9940000  0  5G15G 2G13G19G 6
  22020112.2914   -3267699.49945  -2482908.71661
  19034391.971   -25818637.483 8 -19978199.85024
  21576156.807    -4117787.048 5  -2923816.46021
  20760372.932     -691955.284 6   -510323.36421
  19627454.8384  -21923109.54147 -15334150.19063
 91  3 21  1  1 59.9940000  0  5G15G 2G13G19G 6
  22013822.0104   -3300763.47745  -2508672.76461
  19031506.619   -25833798.497 8 -19990013.60624
  21562633.111    -4188856.522 5  -2979195.03221
  20764303.080     -671314.225 5   -494239.46321
  19619704.9554  -21963837.79947 -15365886.43063
 91  3 21  1  2 14.9940000  0  5G15G 2G13G19G 6
  22007544.9714   -3333738.12945  -2534367.20461
  19028628.760   -25848923.551 8 -20001799.33824
  21549111.6504   -4259890.11145  -3034545.60361
  20768237.932     -650618.345 6   -478112.85021
  19611958.9244  -22004541.95847 -15397603.88662
 91  3 21  1  2 29.9940000  0  5G15G 2G13G19G 6
  22001293.3224   -3366614.16245  -2559984.78961
  19025759.158   -25864003.441 8 -20013549.88924
  21535607.877    -4330878.069 5  -3089860.61921
  20772186.049     -629858.487 6   -461936.38421
  19604219.900   -22045212.651 7 -15429295.26123
 91  3 21  1  2 44.9940000  0  5G15G 2G13G19G 6
  21995050.7604   -3399408.67345  -2585538.86461
  19022894.877   -25879055.476 8 -20025278.72824
  21522104.369    -4401837.424 5  -3145153.39121
  20776146.971     -609052.105 5   -445723.66321
  19596482.307   -22085867.128 7 -15460973.99223
 91  3 21  1  2 59.9940000  0  5G15G 2G13G19G 6
  21988832.440    -3432085.681 5  -2611001.37921
  19020042.150   -25894044.301 8 -20036958.31224
  21508610.9714   -4472732.25345  -3200395.85661
  20780121.815     -588163.555 5   -429446.92322
  19588755.721   -22126469.527 7 -15492612.15622
 91  3 21  1  3 14.9940000  0  5G15G 2G13G19G 6
  21982632.330    -3464656.059 5  -2636380.80121
  19017199.572   -25908981.010 8 -20048597.28624
  21495131.916    -4543573.461 5  -3255596.51021
  20784110.705     -567203.999 5   -413114.85722
  19581038.5024  -22167030.62847 -15524218.13963
 91  3 21  1  3 29.9940000  0  5G15G 2G13G19G 6
  21976456.3694   -3497120.01745  -2661677.28861
  19014367.361   -25923866.309 8 -20060196.19824
  21481662.682    -4614361.200 5  -3310755.53721
  20788112.861     -546174.097 5   -396727.96722
  19573326.8464  -22207550.81347 -15555792.24362
 91  3 21  1  3 44.9940000  0  5G15G 2G13G19G 6
  21970296.283    -3529478.712 5  -2686891.75421
  19011545.205   -25938701.622 8 -20071756.16124
  21468199.1274   -4685096.27345  -3365873.50561
  20792128.5884    -525075.24145   -380287.35862
  19565624.854   -22248031.270 7 -15587335.38122
 91  3 21  1  3 59.9940000  0  5G15G 2G13G19G 6
  21964158.315    -3561735.234 5  -2712026.61321
  19008730.955   -25953490.478 8 -20083279.92824
  21454750.088    -4755781.909 5  -3420952.94921
  20796157.635     -503910.927 5   -363795.73622
  19557927.7994  -22288475.17547 -15618850.04463
 91  3 21  1  4 14.9930000  0  5G15G 2G13G19G 6
  21958041.8884   -3593893.45645  -2737084.87761
  19005924.497   -25968238.372 8 -20094771.77124
  21441307.0134   -4826419.27345  -3475994.79261
  20800190.1144    -482688.82545   -347259.09462
  19550237.4824  -22328885.96947 -15650338.91962
 91  3 21  1  4 29.9930000  0  5G15G 2G13G19G 6
  21951939.4504   -3625942.88845  -2762058.35961
  19003127.849   -25982932.417 8 -20106221.65124
  21427874.958    -4897002.729 5  -3530994.64321
  20804244.794     -461391.357 5   -330663.72922
  19542556.9034  -22369253.95347 -15681794.42662
 91  3 21  1  4 44.9930000  0  5G15G 2G13G19G 6
  21945862.591    -3657893.620 5  -2786954.94221
  19000339.567   -25997584.105 8 -20117638.53224
  21414451.9664   -4967539.77045  -3585958.29861
  20808313.013     -440032.676 5   -314020.64922
  19534880.5444  -22409588.80647 -15713224.10762
 91  3 21  1  4 59.9930000  0  5G15G 2G13G19G 6
  21939800.653    -3689742.055 5  -2811771.81921
  18997559.732   -26012190.476 8 -20129020.09824
  21401040.7864   -5038026.86645  -3640883.04861
  20812388.333     -418609.803 5   -297327.54722
  19527211.0994  -22449887.20147 -15744625.39662
 91  3 21  1  5 14.9930000  0  5G15G 2G13G19G 6
  21933764.2324   -3721469.20645  -2836494.17961
  18994792.482   -26026733.180 8 -20140352.05924
  21387639.0754   -5108445.16645  -3695754.19061
  20816481.302     -397104.212 6   -280569.99222
  19519553.5674  -22490130.30847 -15775983.60362
 91  3 21  1  5 29.9930000  0  5G15G 2G13G19G 6
  21927742.6384   -3753104.58145  -2861145.02861
  18992031.700   -26041241.898 8 -20151657.53824
  21374246.880    -5178823.954 5  -3750594.53521
  20820583.935     -375545.717 6   -263771.21821
  19511901.1224  -22530347.57647 -15807321.67063
 91  3 21  1  5 44.9930000  0  5G15G 2G13G19G 6
  21921741.708    -3784636.561 5  -2885715.29821
  18989278.239   -26055705.267 8 -20162927.67524
  21360862.005    -5249151.187 5  -3805394.71221
  20824696.192     -353922.711 6   -246922.17021
  19504255.6224  -22570527.32647 -15838630.50663
 91  3 21  1  5 59.9930000  0  5G15G 2G13G19G 6
  21915761.146    -3816068.131 5  -2910207.32721
  18986534.669   -26070126.667 8 -20174165.10524
  21347488.325    -5319430.151 5  -3860157.27921
  20828825.6694    -332238.63346   -230025.52561
  19496614.1774  -22610672.64047 -15869912.50763
 91  3 21  1  6 14.9930000  0  5G15G 2G13G19G 6
  21909801.3104   -3847384.38645  -2934609.51161
  18983800.747   -26084491.674 8 -20185358.60024
  21334126.341    -5389645.732 5  -3914870.47821
  20832963.7244    -310479.06046   -213070.04861
  19488986.0054  -22650768.84347 -15901156.24263
 91  3 21  1  6 29.9930000  0  5G15G 2G13G19G 6
  21903860.114    -3878594.553 5  -2958929.04221
  18981075.833   -26098809.626 7 -20196515.42524
  21320772.6464   -5459806.99745  -3969541.35761
  20837118.364     -288653.338 6   -196063.03721
  19481363.6534  -22690825.01947 -15932368.78763
 91  3 21  1  6 44.9930000  0  5G15G 2G13G19G 6
  21897944.6614   -3909689.76545  -2983158.98961
  18978362.091   -26113072.014 7 -20207628.95524
  21307434.942    -5529904.891 5  -4024162.82421
  20841287.716     -266752.763 6   -178997.69421
  19473749.6144  -22730832.13747 -15963543.10263
 91  3 21  1  6 59.9930000  0  5G15G 2G13G19G 6
  21892051.3104   -3940675.20145  -3007303.39961
  18975658.4424  -26127284.39348 -20218703.50964
  21294108.653    -5599944.545 5  -4078738.91521
  20845464.794     -244783.261 6   -161878.64421
  19466144.4894  -22770795.64747 -15994683.43563
 91  3 21  1  7 14.9930000  0  5G15G 2G13G19G 6
  21886169.5214   -3971562.27545  -3031371.16961
  18972960.341   -26141458.544 8 -20229748.27724
  21280789.739    -5669937.250 5  -4133278.44621
  20849656.677     -222756.476 6   -144714.95821
  19458545.919   -22810726.969 7 -16025798.69523
 91  3 21  1  7 29.9930000  0  5G15G 2G13G19G 6
  21880313.9114   -4002327.85445  -3055344.25561
  18970274.833   -26155571.907 8 -20240745.67924
  21267482.9744   -5739860.34145  -4187763.73461
  20853867.185     -200649.693 6   -127488.94321
  19450956.646   -22850603.304 7 -16056871.11223
 91  3 21  1  7 44.9930000  0  5G15G 2G13G19G 6
  21874480.786    -4032987.319 5  -3079234.67021
  18967599.013   -26169640.071 8 -20251707.86624
  21254187.5834   -5809728.66745  -4242206.33961
  20858084.458     -178478.406 6   -110212.66421
  19443377.177   -22890439.779 7 -16087912.46923
 91  3 21  1  7 59.9930000  0  5G15G 2G13G19G 6
  21868667.857    -4063542.407 5  -3103043.74021
  18964929.911   -26183664.927 8 -20262636.31024
  21240897.700    -5879543.521 5  -4296607.26921
  20862313.646     -156244.615 5    -92887.68421
  19435803.114   -22930238.036 7 -16118924.04623
 91  3 21  1  8 14.9930000  0  5G15G 2G13G19G 6
  21862872.989    -4093991.560 5  -3126770.27721
  18962268.669   -26197645.450 8 -20273530.20124
  21227623.8964   -5949303.73945  -4350965.64761
  20866557.3574    -133947.50345    -75513.36761
  19428237.3644  -22969996.83947 -16149904.87763
 91  3 21  1  8 29.9930000  0  5G15G 2G13G19G 6
  21857099.232    -4124329.526 5  -3150410.17021
  18959617.810   -26211576.657 8 -20284385.66524
  21214361.9584   -6019003.95645  -4405277.26961
  20870811.896     -111581.905 5    -58085.68421
  19420681.0754  -23009710.76947 -16180850.73963
 91  3 21  1  8 44.9930000  0  5G15G 2G13G19G 6
  21851345.669    -4154574.567 5  -3173977.66021
  18956972.372   -26225476.908 8 -20295217.00924
  21201105.482    -6088661.874 5  -4459555.93921
  20875079.638      -89165.981 5    -40618.78521
  19413127.958   -23049397.889 7 -16211775.71323
 91  3 21  1  8 59.9930000  0  5G15G 2G13G19G 6
  21845607.216    -4184709.314 5  -3197459.20921
  18954337.208   -26239329.467 8 -20306011.19124
  21187865.2784   -6158260.38245  -4513788.31261
  20879358.692      -66683.250 5    -23099.82721
  19405584.2864  -23089041.27447 -16242666.60363
 91  3 21  1  9 14.9930000  0  5G15G 2G13G19G 6
  21839897.4664   -4214727.18745  -3220849.68561
  18951711.911   -26253127.884 8 -20316763.18124
  21174631.5054   -6227792.85145  -4567969.20561
  20883647.7944     -44127.31745     -5523.83361
  19398049.333   -23128634.251 7 -16273518.22123
 91  3 21  1  9 29.9930000  0  5G15G 2G13G19G 6
  21834203.911    -4244650.974 5  -3244166.84621
  18949091.513   -26266895.281 8 -20327491.00524
  21161407.513    -6297281.627 5  -4622116.04721
  20887953.075      -21521.212 5     12091.27121
  19390520.622   -23168199.492 7 -16304348.22323
 91  3 21  1  9 44.9930000  0  5G15G 2G13G19G 6
  21828529.5214   -4274459.96245  -3267394.55761
  18946480.989   -26280611.399 8 -20338178.87224
  21148195.5134   -6366706.02145  -4676212.74561
  20892266.021        1155.446 5     29761.34721
  19383000.8104  -23207716.36547 -16335140.53263
 91  3 21  1  9 59.9930000  0  5G15G 2G13G19G 6
  21822880.427    -4304154.382 5  -3290532.99221
  18943881.067   -26294276.900 8 -20348827.29824
  21134996.3254   -6436066.26045  -4730259.44961
  20896597.0134      23902.14645     47486.00861
  19375489.3724  -23247185.22347 -16365895.42863
 91  3 21  1 10 14.9930000  0  5G15G 2G13G19G 6
  21817249.935    -4333744.488 5  -3313590.14621
  18941287.341   -26307902.499 8 -20359444.62524
  21121809.036    -6505372.687 6  -4784264.22621
  20900934.138       46708.041 5     65256.78921
  19367986.2554  -23286616.40647 -16396620.96663
 91  3 21  1 10 29.9930000  0  5G15G 2G13G19G 6
  21811640.1694   -4363226.90545  -3336563.38361
  18938702.372   -26321484.934 8 -20370028.32324
  21108630.638    -6574621.678 6  -4838224.26321
  20905293.817       69576.236 5     83076.10621
  19360490.2474  -23326006.52147 -16427314.49463
 91  3 21  1 10 44.9930000  0  5G15G 2G13G19G 6
  21806050.0834   -4392599.40745  -3359450.98261
  18936126.771   -26335022.199 8 -20380576.81824
  21095464.7164   -6643810.94446  -4892137.74761
  20909650.3174      92508.66145    100945.47061
  19353003.474   -23365353.211 7 -16457974.20623
 91  3 21  1 10 59.9930000  0  5G15G 2G13G19G 6
  21800483.044    -4421847.793 5  -3382241.85421
  18933561.544   -26348500.290 8 -20391079.20624
  21082313.982    -6712925.906 6  -4945993.32721
  20914030.8884     115519.20745    118875.70561
  19345526.896   -23404642.321 7 -16488589.04123
 91  3 21  1 11 14.9930000  0  5G15G 2G13G19G 6
  21794938.982    -4450992.085 5  -3404951.62221
  18931004.349   -26361939.699 8 -20401551.46124
  21069171.075    -6781986.569 6  -4999806.59821
  20918420.255      138587.613 5    136851.03421
  19338057.8724  -23443893.81847 -16519174.56463
 91  3 21  1 11 29.9930000  0  5G15G 2G13G19G 6
  21789410.7244   -4480037.70945  -3427584.50961
  18928451.653   -26375346.169 8 -20411998.04524
  21056038.2474   -6850998.39746  -5053581.84661
  20922822.341      161708.125 5    154866.96821
  19330593.771   -23483113.221 7 -16549735.08923
 91  3 21  1 11 44.9930000  0  5G15G 2G13G19G 6
  21783906.6614   -4508966.68245  -3450126.50361
  18925912.138   -26388702.230 8 -20422405.34024
  21042918.013    -6919943.490 6  -5107305.06521
  20927231.974      184898.250 5    172937.14921
  19323140.0364  -23522282.67447 -16580256.68463
 91  3 21  1 11 59.9930000  0  5G15G 2G13G19G 6
  21778421.3494   -4537780.64545  -3472578.87561
  18923380.2394  -26402009.73848 -20432774.80764
  21029808.0284   -6988823.22946  -5160977.37661
  20931659.1774     208156.21345    191060.19761
  19315695.6614  -23561403.62847 -16610740.48263
 91  3 21  1 12 14.9930000  0  5G15G 2G13G19G 6
  21772962.075    -4566474.985 5  -3494938.02621
  18920857.552   -26415264.292 8 -20443103.00424
  21016715.4424   -7057632.57746  -5214594.83561
  20936096.6224     231486.26945    209239.42561
  19308260.989   -23600471.550 7 -16641182.96423
 91  3 21  1 12 29.9930000  0  5G15G 2G13G19G 6
  21767522.7714   -4595058.81145  -3517211.07461
  18918341.755   -26428475.213 8 -20453397.21424
  21003629.9974   -7126380.56746  -5268164.50061
  20940551.755      254878.996 5    227467.47821
  19300835.208   -23639495.453 7 -16671591.14823
 91  3 21  1 12 44.9930000  0  5G15G 2G13G19G 6
  21762104.7394   -4623522.44045  -3539390.45361
  18915839.286   -26441633.395 8 -20463650.31924
  20990561.4034   -7195057.76046  -5321678.97261
  20945014.427      278343.549 5    245751.49221
  19293418.857   -23678465.894 7 -16701957.67223
 91  3 21  1 12 59.9930000  0  5G15G 2G13G19G 6
  21756709.6304   -4651867.92545  -3561477.78861
  18913346.536   -26454741.023 8 -20473864.03324
  20977508.763    -7263665.929 6  -5375139.67221
  20949491.1534     301877.94345    264089.92661
  19286013.622   -23717384.645 7 -16732283.92523
 91  3 21  1 13 14.9930000  0  5G15G 2G13G19G 6
  21751336.247    -4680110.082 6  -3583484.59521
  18910856.317   -26467813.258 8 -20484050.17124
  20964462.7244   -7332219.82946  -5428558.09261
  20953981.661      325466.741 5    282470.75621
  19278614.130   -23756266.856 7 -16762581.69323
 91  3 21  1 13 29.9930000  0  5G15G 2G13G19G 6
  21745985.8024   -4708231.55446  -3605397.36261
  18908378.591   -26480833.137 8 -20494195.50524
  20951428.5214   -7400702.05246  -5481920.65161
  20958483.919      349127.061 5    300907.30821
  19271225.6774  -23795095.06647 -16792837.38063
 91  3 21  1 13 44.9930000  0  5G15G 2G13G19G 6
  21740658.396    -4736235.425 6  -3627218.48921
  18905910.489   -26493804.184 8 -20504302.79324
  20938410.8574   -7469115.43446  -5535229.56961
  20962997.732      372855.419 5    319396.90121
  19263846.6074  -23833872.29547 -16823053.34463
 91  3 21  1 13 59.9930000  0  5G15G 2G13G19G 6
  21735347.4504   -4764131.87446  -3648955.90961
  18903450.802   -26506736.518 8 -20514379.92024
  20925403.4194   -7537469.94146  -5588492.60761
  20967524.802      396641.499 5    337931.45721
  19256475.2554  -23872608.53947 -16853237.37063
 91  3 21  1 14 14.9930000  0  5G15G 2G13G19G 6
  21730063.6384   -4791909.37146  -3670600.65161
  18900999.411   -26519619.057 8 -20524418.24624
  20912409.9274   -7605754.21246  -5641700.93261
  20972067.060      420496.321 5    356519.58021
  19249113.466   -23911292.539 7 -16883380.69223
 91  3 21  1 14 29.9930000  0  5G15G 2G13G19G 6
  21724797.1224   -4819582.27046  -3692163.85661
  18898553.544   -26532466.353 8 -20534429.10724
  20899426.708    -7673982.245 6  -5694865.43021
  20976616.771      444405.489 5    375150.05321
  19241759.880   -23949938.333 7 -16913494.25223
 91  3 21  1 14 44.9930000  0  5G15G 2G13G19G 6
  21719555.419    -4847137.683 6  -3713635.53021
  18896118.099   -26545265.898 8 -20544402.76124
  20886455.396    -7742141.308 6  -5747976.15821
  20981177.583      468381.308 5    393832.46021
  19234415.9824  -23988533.27547 -16943568.17663
 91  3 21  1 14 59.9930000  0  5G15G 2G13G19G 6
  21714331.880    -4874579.554 6  -3735018.72221
  18893689.653   -26558022.051 8 -20554342.60624
  20873497.1224   -7810235.12946  -5801036.06761
  20985749.880      492419.439 5    412563.41921
  19227080.2554  -24027081.27847 -16973605.51963
 91  3 21  1 15 14.9930000  0  5G15G 2G13G19G 6
  21709130.052    -4901913.393 6  -3756317.74221
  18891270.458   -26570740.612 8 -20564253.15324
  20860552.7394   -7878268.75246  -5854049.07161
  20990337.583      516514.327 5    431338.60021
  19219750.9354  -24065587.72847 -17003610.47763
 91  3 21  1 15 29.9930000  0  5G15G 2G13G19G 6
  21703953.3024   -4929116.72146  -3777515.05761
  18888861.599   -26583399.281 8 -20574117.03124
  20847618.1694   -7946219.95546  -5906997.85361
  20994940.107      540687.905 5    450175.09221
  19212436.6694  -24104030.34947 -17033565.70263
 91  3 21  1 15 44.9930000  0  5G15G 2G13G19G 6
  21698798.747    -4956208.465 6  -3798625.42121
  18886461.341   -26596017.299 8 -20583949.22824
  20834703.458    -8014107.324 6  -5959896.87521
  20999549.153      564921.370 5    469058.25221
  19205129.630   -24142427.812 7 -17063485.75323
 91  3 21  1 15 59.9930000  0  5G15G 2G13G19G 6
  21693663.2474   -4983188.37046  -3819648.66361
  18884067.958   -26608594.856 8 -20593749.89924
  20821795.3644   -8081930.56646  -6012745.95561
  21004171.013      589214.415 5    487987.85721
  19197831.528   -24180779.971 7 -17093370.49823
 91  3 21  1 16 14.9930000  0  5G15G 2G13G19G 6
  21688552.599    -5010051.279 6  -3840580.71321
  18881682.333   -26621126.903 8 -20603515.10924
  20808902.372    -8149684.433 6  -6065540.95421
  21008805.661      613571.883 5    506967.65421
  19190543.138   -24219081.541 7 -17123215.81923
 91  3 21  1 16 29.9930000  0  5G15G 2G13G19G 6
  21683464.6694   -5036789.23146  -3861415.38961
  18879306.661   -26633605.970 8 -20613239.04124
  20796024.4584   -8217360.91946  -6118275.67361
  21013458.341      638001.217 5    526003.45521
  19183264.3494  -24257324.69347 -17153015.61863
 91  3 21  1 16 44.9930000  0  5G15G 2G13G19G 6
  21678397.958    -5063410.198 6  -3882158.91721
  18876941.403   -26646040.255 8 -20622928.07324
  20783158.9664   -8284967.79146  -6170956.13361
  21018114.646      662494.112 5    545088.77421
  19175996.6924  -24295517.28947 -17182776.02363
 91  3 21  1 16 59.9930000  0  5G15G 2G13G19G 6
  21673352.552    -5089916.691 6  -3902813.24721
  18874583.232   -26658432.718 8 -20632584.51024
  20770305.8254   -8352507.56746  -6223584.32461
  21022790.3174     687047.71145    564221.39061
  19168740.1224  -24333661.91647 -17212499.05663
 91  3 21  1 17 14.9930000  0  5G15G 2G13G19G 6
  21668332.411    -5116316.079 6  -3923384.12221
  18872231.505   -26670790.721 8 -20642214.10224
  20757465.692    -8419987.281 6  -6276165.69721
  21027471.677      711654.585 5    583395.52121
  19161489.0674  -24371765.70647 -17242190.25963
 91  3 21  1 17 29.9930000  0  5G15G 2G13G19G 6
  21663327.2244   -5142598.17046  -3943863.60261
  18869888.153   -26683104.433 8 -20651809.18524
  20744637.958    -8487396.828 6  -6328692.41321
  21032168.997      736324.427 5    602618.72021
  19154246.935   -24409818.624 7 -17271841.83223
 91  3 21  1 17 44.9930000  0  5G15G 2G13G19G 6
  21658347.482    -5168762.391 6  -3964251.23221
  18867553.536   -26695373.396 8 -20661369.39124
  20731822.0134   -8554735.12346  -6381163.59861
  21036872.427      761057.807 5    621891.43621
  19147015.482   -24447819.766 7 -17301453.06923
 91  3 21  1 17 59.9930000  0  5G15G 2G13G19G 6
  21653393.005    -5194808.820 6  -3984547.07021
  18865227.528   -26707597.910 8 -20670894.96724
  20719022.1384   -8622002.18046  -6433579.27361
  21041592.028      785854.352 5    641213.37221
  19139794.200   -24485769.351 7 -17331024.12423
 91  3 21  1 18 14.9930000  0  5G15G 2G13G19G 6
  21648460.997    -5220736.829 6  -4004750.63321
  18862909.857   -26719777.824 8 -20680385.79024
  20706234.8024   -8689197.46946  -6485939.01461
  21046322.849      810714.218 5    660584.64621
  19132582.161   -24523666.653 7 -17360554.44423
 91  3 21  1 18 29.9930000  0  5G15G 2G13G19G 6
  21643546.8644   -5246555.82646  -4024869.25761
  18860597.708   -26731922.483 8 -20689849.14324
  20693462.974    -8756330.027 6  -6538249.90021
  21051063.9744     835627.70245    679997.69261
  19125378.982   -24561521.057 7 -17390051.33023
 91  3 21  1 18 44.9930000  0  5G15G 2G13G19G 6
  21638657.060    -5272254.050 6  -4044893.76221
  18858296.083   -26744020.862 8 -20699276.43024
  20680698.3884   -8823388.11246  -6590502.76661
  21055815.896      860606.190 5    699461.40121
  19118185.896   -24599320.917 7 -17419505.71323
 91  3 21  1 18 59.9930000  0  5G15G 2G13G19G 6
  21633788.919    -5297831.631 6  -4064824.26621
  18856003.083   -26756073.672 8 -20708668.21024
  20667953.192    -8890372.085 6  -6642697.86421
  21060582.872      885649.064 5    718975.27821
  19111002.778   -24637066.516 7 -17448917.82123
 91  3 21  1 19 14.9930000  0  5G15G 2G13G19G 6
  21628944.505    -5323289.130 6  -4084661.20921
  18853718.9894  -26768081.21348 -20718024.70764
  20655220.0054   -8957282.12846  -6694835.35861
  21065361.2244     910755.64245    738538.78661
  19103830.786   -24674758.144 7 -17478287.86323
 91  3 21  1 19 29.9930000  0  5G15G 2G13G19G 6
  21624121.8644   -5348629.88346  -4104407.16161
  18851442.403   -26780047.233 8 -20727348.86024
  20642503.474    -9024121.331 6  -6746917.65721
  21070149.810      935922.449 5    758149.22721
  19096666.247   -24712399.038 7 -17507618.37623
 91  3 21  1 19 44.9930000  0  5G15G 2G13G19G 6
  21619319.239    -5373861.439 6  -4124068.04121
  18849170.372   -26791979.593 8 -20736646.78124
  20629793.3414   -9090897.12746  -6798950.54561
  21074947.958      961141.321 5    777800.24821
  19089512.6924  -24749996.88147 -17536915.34463
 91  3 21  1 19 59.9930000  0  5G15G 2G13G19G 6
  21614541.599    -5398973.963 6  -4143636.15921
  18846907.138   -26803868.632 8 -20745910.94524
  20617100.974    -9157599.481 6  -6850926.18921
  21079757.872      986421.957 5    797499.39121
  19082368.403   -24787541.561 7 -17566170.88323
 91  3 21  1 20 14.9930000  0  5G15G 2G13G19G 6
  21609787.200    -5423966.451 6  -4163110.75321
  18844653.6614  -26815713.85648 -20755140.96064
  20604420.528    -9224227.743 6  -6902844.13321
  21084579.825     1011764.929 5    817247.11021
  19075233.614   -24825032.371 7 -17595384.45023
 91  3 21  1 20 29.9930000  0  5G15G 2G13G19G 6
  21605055.935    -5448827.953 6  -4182483.27721
  18842409.607   -26827504.385 8 -20764328.36324
  20591756.732    -9290770.559 6  -6954695.48221
  21089419.474     1037180.955 5    837051.75521
  19068111.8104  -24862457.98747 -17624547.21263
 91  3 21  1 20 44.9930000  0  5G15G 2G13G19G 6
  21600345.9274   -5473568.01446  -4201761.17461
  18840174.607   -26839250.119 8 -20773480.86324
  20579109.6854   -9357237.06446  -7006487.34561
  21094266.802     1062660.351 5    856905.77621
  19061000.810   -24899828.016 7 -17653666.65923
 91  3 21  1 20 59.9930000  0  5G15G 2G13G19G 6
  21595659.622    -5498191.420 5  -4220948.17021
  18837947.107   -26850955.732 8 -20782602.10024
  20566476.0834   -9423631.84546  -7058223.36161
  21099128.349     1088198.252 5    876805.38321
  19053899.763   -24937146.940 7 -17682746.28423
 91  3 21  1 21 14.9930000  0  5G15G 2G13G19G 6
  21590999.1694   -5522694.57046  -4240041.45361
  18835727.411   -26862618.368 8 -20791689.84224
  20553856.0444   -9489951.60246  -7109900.89961
  21103997.646     1113797.494 5    896752.78521
  19046808.583   -24974411.611 7 -17711783.63823
 91  3 21  1 21 29.9930000  0  5G15G 2G13G19G 6
  21586358.482    -5547073.739 5  -4259038.12621
  18833517.638   -26874234.359 8 -20800741.24924
  20541251.3884   -9556192.16746  -7161516.70761
  21108882.099     1139461.776 5    916750.88521
  19039728.224   -25011617.981 7 -17740775.57123
 91  3 21  1 21 44.9930000  0  5G15G 2G13G19G 6
  21581740.044    -5571348.305 6  -4277953.28821
  18831312.177   -26885823.428 8 -20809771.67723
  20528655.341    -9622372.603 6  -7213085.67621
  21113773.575     1165171.295 5    936784.23621
  19032654.583   -25048785.308 7 -17769737.08023
 91  3 21  1 21 59.9930000  0  5G15G 2G13G19G 6
  21577143.3804   -5595503.92046  -4296775.78361
  18829113.857   -26897371.251 8 -20818769.96524
  20516076.474    -9688478.437 6  -7264596.53421
  21118679.7084    1190940.06545    956863.74761
  19025592.122   -25085899.131 7 -17798656.89923
 91  3 21  1 22 14.9930000  0  5G15G 2G13G19G 6
  21572570.0054   -5619540.84546  -4315505.77561
  18826924.083   -26908878.437 8 -20827736.58124
  20503511.232    -9754510.237 6  -7316049.69721
  21123591.669     1216767.554 5    976989.01621
  19018540.630   -25122959.774 7 -17827535.26723
 91  3 21  1 22 29.9930000  0  5G15G 2G13G19G 6
  21568018.669    -5643452.924 6  -4334138.48921
  18824743.692   -26920339.079 8 -20836666.92924
  20490959.3884   -9820461.72546  -7367440.28961
  21128520.1534    1242659.52045    997164.53961
  19011498.8494  -25159961.09247 -17856367.40863
 91  3 21  1 22 44.9930000  0  5G15G 2G13G19G 6
  21563491.9034   -5667235.46145  -4352670.25961
  18822573.013   -26931748.766 8 -20845557.56924
  20478427.013    -9886327.840 6  -7418764.34221
  21133459.239     1268620.564 5   1017393.87821
  19004469.122   -25196898.151 7 -17885149.47823
 91  3 21  1 22 59.9930000  0  5G15G 2G13G19G 6
  21558985.7004   -5690912.37145  -4371119.73861
  18820406.122   -26943131.533 8 -20854427.23624
  20465905.536    -9952131.868 6  -7470040.03421
  21138410.747     1294626.687 5   1037658.33621
  18997448.099   -25233794.708 7 -17913899.99023
 91  3 21  1 23 14.9930000  0  5G15G 2G13G19G 6
  21554506.7474   -5714457.49345  -4389466.52261
  18818249.3964  -26954461.68248 -20863255.89864
  20453398.067   -10017848.106 6  -7521247.30021
  21143371.185     1320703.324 5   1057977.74521
  18990440.6854  -25270624.74847 -17942598.66363
 91  3 21  1 23 29.9930000  0  5G15G 2G13G19G 6
  21550047.0604   -5737879.86345  -4407717.66461
  18816101.817   -26965748.465 8 -20872050.76724
  20440908.3724  -10083485.54846  -7572393.17961
  21148343.005     1346841.197 5   1078344.86921
  18983443.341   -25307397.273 7 -17971252.52423
 91  3 21  1 23 44.9930000  0  5G15G 2G13G19G 6
  21545614.7164   -5761187.34745  -4425879.27661
  18813960.435   -26977000.158 8 -20880818.30324
  20428430.263   -10149051.554 6  -7623483.40621
  21153330.185     1373032.149 5   1098753.35521
  18976454.607   -25344120.065 7 -17999867.63223
 91  3 21  1 23 59.9930000  0  5G15G 2G13G19G 6
  21541201.0284   -5784378.05445  -4443949.88961
  18811827.419   -26988215.031 8 -20889557.14424
  20415967.9664  -10214544.25746  -7674516.50161
  21158326.325     1399277.590 5   1119204.29921
  18969476.653   -25380791.163 7 -18028442.46123
 91  3 21  1 24 14.9930000  0  5G15G 2G13G19G 6
  21536811.2244   -5807442.34545  -4461922.00761
  18809702.060   -26999383.605 8 -20898259.91324
  20403519.435   -10279953.916 6  -7725484.89421
  21163329.474     1425587.106 5   1139705.16721
  18962509.9424  -25417400.91447 -18056969.48063
 91  3 21  1 24 29.9930000  0  5G15G 2G13G19G 6
  21532441.3804   -5830399.54345  -4479810.66861
  18807581.755   -27010525.346 8 -20906941.76924
  20391086.146   -10345299.763 6  -7776403.55121
  21168347.513     1451941.099 5   1160240.69721
  18955550.482   -25453968.413 7 -18085463.58323
 91  3 21  1 24 44.9930000  0  5G15G 2G13G19G 6
  21528094.903    -5853234.504 5  -4497604.08821
  18805469.958   -27021625.472 8 -20915591.19524
  20378667.489   -10410566.336 6  -7827260.45521
  21173371.278     1478354.308 5   1180822.36421
  18948603.567   -25490478.518 7 -18113912.96123
 91  3 21  1 24 59.9930000  0  5G15G 2G13G19G 6
  21523775.411    -5875952.492 6  -4515306.35921
  18803364.310   -27032689.499 8 -20924212.49224
  20366260.8804  -10475758.96946  -7878059.73261
  21178412.1304    1504821.26445   1201445.91061
  18941665.317   -25526936.530 7 -18142321.74923
 91  3 21  1 25 14.9930000  0  5G15G 2G13G19G 6
  21519475.224    -5898536.914 6  -4532904.55221
  18801269.028   -27043700.970 8 -20932792.83624
  20353872.263   -10540860.705 6  -7928788.18821
  21183455.427     1531358.429 5   1222124.16521
  18934741.036   -25563325.599 7 -18170676.81523
 91  3 21  1 25 29.9930000  0  5G15G 2G13G19G 6
  21515201.1614   -5921005.98646  -4550412.85961
  18799179.505   -27054678.364 8 -20941346.62524
  20341497.1534  -10605889.52546  -7979459.81761
  21188517.810     1557947.192 5   1242842.62921
  18927825.4824  -25599663.97047 -18198992.37263
 91  3 21  1 25 44.9930000  0  5G15G 2G13G19G 6
  21510950.3174   -5943344.12846  -4567819.14361
  18797099.9504  -27065606.41648 -20949861.96264
  20329137.8104  -10670829.90446  -8030062.53861
  21193587.778     1584602.795 5   1263613.17421
  18920923.4274  -25635935.95947 -18227256.20263
 91  3 21  1 25 59.9930000  0  5G15G 2G13G19G 6
  21506722.3174   -5965563.07245  -4585132.54061
  18795028.888   -27076496.960 8 -20958348.08024
  20316794.4744  -10735693.14646  -8080605.15761
  21198673.685     1611313.174 5   1284426.39921
  18914031.4824  -25672153.07347 -18255477.27363
 91  3 21  1 26 14.9930000  0  5G15G 2G13G19G 6
  21502510.411    -5987675.001 5  -4602362.57621
  18792960.692   -27087362.344 8 -20966814.59324
  20304463.2864  -10800491.45146  -8131097.16361
  21203762.513     1638065.934 5   1305272.65421
  18907148.091   -25708327.406 7 -18283665.01324
 91  3 21  1 26 29.9930000  0  5G15G 2G13G19G 6
  21498332.060    -6009646.818 5  -4619483.41821
  18790904.052   -27098169.716 8 -20975235.90324
  20292153.567   -10865191.659 6  -8181512.74021
  21208869.083     1664894.015 5   1326177.60021
  18900277.5914  -25744425.85347 -18311793.61264
 91  3 21  1 26 44.9930000  0  5G15G 2G13G19G 6
  21494175.6224   -6031488.99045  -4636503.23361
  18788855.513   -27108930.002 8 -20983620.52624
  20279857.646   -10929804.116 6  -8231859.94221
  21213984.5914    1691786.38945   1347132.63761
  18893421.4744  -25780458.91847 -18339871.25564
 91  3 21  1 26 59.9930000  0  5G15G 2G13G19G 6
  21490042.9194   -6053214.76945  -4653432.35761
  18786814.685   -27119656.697 8 -20991978.97524
  20267575.974   -10994341.650 6  -8282148.75921
  21219118.3334    1718729.55045   1368127.24961
  18886575.6304  -25816439.66247 -18367908.14864
 91  3 21  1 27 14.9930000  0  5G15G 2G13G19G 6
  21485928.2164   -6074818.92945  -4670266.71661
  18784780.138   -27130344.794 8 -21000307.34524
  20255310.372   -11058799.214 6  -8332375.26821
  21224251.239     1745728.473 5   1389165.32521
  18879737.7324  -25852362.92647 -18395900.24364
 91  3 21  1 27 29.9930000  0  5G15G 2G13G19G 6
  21481842.091    -6096300.475 5  -4687005.53121
  18782754.294   -27140993.301 8 -21008604.86024
  20243059.755   -11123175.371 6  -8382538.34821
  21229397.9504    1772784.19445   1410247.64461
  18872914.739   -25888227.394 7 -18423846.53824
 91  3 21  1 27 44.9930000  0  5G15G 2G13G19G 6
  21477782.3414   -6117651.22246  -4703642.41661
  18780736.653   -27151594.190 8 -21016865.27324
  20230828.0444  -11187461.63346  -8432631.38161
  21234559.6614    1799904.56645   1431380.36161
  18866101.544   -25924024.702 7 -18451740.48924
 91  3 21  1 27 59.9930000  0  5G15G 2G13G19G 6
  21473740.763    -6138872.704 6  -4720178.58221
  18778727.552   -27162149.146 8 -21025089.89424
  20218610.810   -11251659.549 6  -8482655.56121
  21239735.911     1827087.777 5   1452562.04521
  18859301.247   -25959756.193 7 -18479583.15824
 91  3 21  1 28 14.9930000  0  5G15G 2G13G19G 6
  21469729.646    -6159950.228 6  -4736602.57421
  18776731.2634  -27172643.69648 -21033267.45064
  20206413.4114  -11315754.33146  -8532599.38461
  21244920.357     1854348.163 5   1473803.84921
  18852517.7244  -25995407.18547 -18507363.09464
 91  3 21  1 28 29.9930000  0  5G15G 2G13G19G 6
  21465741.1694   -6180902.69746  -4752929.11961
  18774742.3884  -27183097.50348 -21041413.26664
  20194229.364   -11379765.000 6  -8582477.66621
  21250119.1144    1881666.31345   1495090.67361
  18845744.966   -26030996.910 7 -18535095.29724
 91  3 21  1 28 44.9930000  0  5G15G 2G13G19G 6
  21461778.5444   -6201733.97746  -4769161.21861
  18772760.575   -27193514.424 8 -21049530.32624
  20182066.5134  -11443695.10346  -8632293.14761
  21255328.2634    1909038.17045   1516419.35161
  18838984.036   -26066528.956 7 -18562782.54924
 91  3 21  1 28 59.9930000  0  5G15G 2G13G19G 6
  21457837.9584   -6222444.57246  -4785299.27561
  18770784.513   -27203894.889 8 -21057618.97324
  20169912.5834  -11507544.77146  -8682045.99061
  21260547.153     1936462.956 5   1537789.25621
  18832232.6224  -26102003.62847 -18590425.09364
 91  3 21  1 29 14.9930000  0  5G15G 2G13G19G 6
  21453918.9354   -6243036.98546  -4801345.24861
  18768815.864   -27214241.687 8 -21065681.39224
  20157778.6614  -11571316.25046  -8731737.88861
  21265775.825     1963937.765 5   1559198.15721
  18825492.708   -26137423.224 7 -18618024.72324
 91  3 21  1 29 29.9930000  0  5G15G 2G13G19G 6
  21450024.3804   -6263497.00446  -4817288.06361
  18766857.216   -27224540.923 8 -21073706.75824
  20145662.8574  -11634995.18046  -8781357.67361
  21271016.177     1991476.679 5   1580656.98721
  18818765.661   -26172773.508 7 -18645570.34624
 91  3 21  1 29 44.9930000  0  5G15G 2G13G19G 6
  21446159.263    -6283823.214 6  -4833126.60721
  18764905.974   -27234791.574 8 -21081694.26024
  20133562.0054  -11698580.26346  -8830904.32561
  21276270.2244    2019080.76745   1602166.61461
  18812052.942   -26208053.132 7 -18673060.90724
 91  3 21  1 29 59.9930000  0  5G15G 2G13G19G 6
  21442312.8644   -6304022.53546  -4848866.28661
  18762963.192   -27245000.616 8 -21089649.33324
  20121479.0214  -11762078.51246  -8880383.32561
  21281531.825     2046742.732 4   1623721.34621
  18805350.716   -26243268.740 7 -18700501.59624
 91  3 21  1 30 14.9930000  0  5G15G 2G13G19G 6
  21438490.442    -6324107.505 6  -4864516.83121
  18761025.083   -27255180.549 8 -21097581.72524
  20109410.794   -11825501.734 6  -8929803.85921
  21286803.5214    2074450.02844   1645311.41061
  18798660.052   -26278432.609 7 -18727901.96524
 91  3 21  1 30 29.9930000  0  5G15G 2G13G19G 6
  21434696.9894   -6344067.20246  -4880069.77461
  18759095.732   -27265320.553 8 -21105483.01324
  20097354.7164  -11888838.97346  -8979157.39961
  21292089.466     2102213.344 4   1666945.11021
  18791980.3884  -26313533.81847 -18755253.50764
 91  3 21  1 30 44.9930000  0  5G15G 2G13G19G 6
  21430916.3724   -6363910.97046  -4895532.38061
  18757172.302   -27275430.177 8 -21113360.62224
  20085319.0754  -11952099.07646  -9028450.83061
  21297380.8254    2130023.35445   1688615.17961
  18785309.919   -26348581.324 7 -18782563.19524
 91  3 21  1 30 59.9930000  0  5G15G 2G13G19G 6
  21427167.107    -6383621.508 6  -4910891.17421
  18755256.232   -27285492.566 8 -21121201.43124
  20073300.396   -12015265.185 6  -9077671.00721
  21302685.560     2157896.693 5   1710334.59521
  18778654.544   -26383558.003 7 -18809817.70024
 91  3 21  1 31 14.9930000  0  5G15G 2G13G19G 6
  21423444.3414   -6403196.27746  -4926144.17661
  18753350.857   -27295505.581 8 -21129003.76124
  20061296.9354  -12078334.39646  -9126815.68561
  21308001.989     2185835.480 5   1732105.02621
  18772012.653   -26418461.321 7 -18837015.03924
 91  3 21  1 31 29.9930000  0  5G15G 2G13G19G 6
  21419745.2864   -6422634.72146  -4941290.95061
  18751455.950   -27305468.737 8 -21136767.23824
  20049315.4114  -12141305.95246  -9175884.27261
  21313331.442     2213840.143 5   1753926.78421
  18765385.880   -26453290.507 7 -18864154.61523
 91  3 21  1 31 44.9930000  0  5G15G 2G13G19G 6
  21416068.4424   -6441948.32246  -4956340.44761
  18749567.419   -27315393.499 8 -21144500.79424
  20037348.075   -12204191.092 6  -9224885.54121
  21318667.2944    2241899.10444   1775790.85361
  18758768.833   -26488056.879 7 -18891245.24723
 91  3 21  1 31 59.9930000  0  5G15G 2G13G19G 6
  21412417.3644   -6461124.99446  -4971283.25161
  18747688.341   -27325268.007 8 -21152195.19424
  20025399.2164  -12266977.62946  -9273809.94861
  21324023.2324    2270024.13744   1797706.39861
  18752167.528   -26522748.127 7 -18918277.34823
 91  3 21  1 32 14.9930000  0  5G15G 2G13G19G 6
  21408796.325    -6480160.135 6  -4986115.76721
  18745819.122   -27335088.292 8 -21159847.34424
  20013471.9894  -12329661.10646  -9322654.06161
  21329388.2554    2298219.16244   1819676.49361
  18745581.052   -26557359.941 7 -18945247.55023
 91  3 21  1 32 29.9930000  0  5G15G 2G13G19G 6
  21405197.0754   -6499070.47346  -5000851.03461
  18743958.075   -27344870.846 8 -21167470.09624
  20001560.7474  -12392257.82546  -9371430.57061
  21334763.138     2326467.334 5   1841688.00521
  18739006.833   -26591908.616 7 -18972168.54623
 91  3 21  1 32 44.9930000  0  5G15G 2G13G19G 6
  21401627.5134   -6517846.75146  -5015481.84161
  18742104.333   -27354606.399 8 -21175056.22024
  19989665.466   -12454758.194 6  -9420131.98821
  21340150.7864    2354777.78145   1863748.03861
  18732446.646   -26626384.597 7 -18999032.89623
 91  3 21  1 32 59.9930000  0  5G15G 2G13G19G 6
  21398074.9974   -6536495.61746  -5030013.35961
  18740259.099   -27364302.282 8 -21182611.42724
  19977788.8574  -12517168.99946  -9468763.63961
  21345547.075     2383143.476 5   1885851.12021
  18725898.591   -26660794.711 7 -19025845.92323
 91  3 21  1 33 14.9920000  0  5G15G 2G13G19G 6
  21394547.6334   -6555019.42345  -5044447.43461
  18738421.289   -27373961.421 8 -21190138.01324
  19965929.3754  -12579489.35146  -9517324.79361
  21350957.047     2411558.859 5   1907992.93021
  18719362.789   -26695139.991 7 -19052608.43323
 91  3 21  1 33 29.9920000  0  5G15G 2G13G19G 6
  21391050.6804   -6573410.05646  -5058777.74361
  18736592.414   -27383574.608 8 -21197628.79124
  19954088.789   -12641716.797 6  -9565813.55321
  21356373.984     2440038.153 4   1930184.52821
  18712841.555   -26729414.271 7 -19079315.60923
 91  3 21  1 33 44.9920000  0  5G15G 2G13G19G 6
  21387576.219    -6591679.232 6  -5073013.39921
  18734770.086   -27393154.393 8 -21205093.54424
  19942263.2504  -12703859.90846  -9614236.59261
  21361802.445     2468566.037 4   1952413.99121
  18706330.141   -26763628.169 7 -19105975.74623
 91  3 21  1 33 59.9920000  0  5G15G 2G13G19G 6
  21384126.031    -6609806.015 6  -5087138.09621
  18732956.133   -27402680.273 8 -21212516.29424
  19930455.8834  -12765898.02046  -9662577.82661
  21367247.0944    2497162.82545   1974697.14661
  18699834.547   -26797760.904 7 -19132572.63523
 91  3 21  1 34 14.9920000  0  5G15G 2G13G19G 6
  21380704.3054   -6627779.25946  -5101143.15361
  18731156.844   -27412140.954 8 -21219888.23524
  19918674.5474  -12827819.16446  -9710827.91161
  21372703.2274    2525840.12745   1997043.03361
  18693356.578   -26831800.657 7 -19159097.07223
 91  3 21  1 34 29.9920000  0  5G15G 2G13G19G 6
  21377306.938    -6645636.111 6  -5115057.53521
  18729361.844   -27421573.720 8 -21227238.42624
  19906904.8674  -12889660.32046  -9759015.68561
  21378167.1024    2554560.17645   2019422.22661
  18686888.3914  -26865784.67147 -19185578.08563
 91  3 21  1 34 44.9920000  0  5G15G 2G13G19G 6
  21373934.1804   -6663370.29846  -5128876.31961
  18727572.719   -27430972.565 8 -21234562.18324
  19895152.9844  -12951415.24346  -9807136.24361
  21383641.891     2583328.923 5   2041839.39521
  18680434.063   -26899706.461 7 -19212010.60723
 91  3 21  1 34 59.9920000  0  5G15G 2G13G19G 6
  21370584.6094   -6680959.22146  -5142581.90861
  18725795.336   -27440315.215 8 -21241842.14824
  19883422.1254  -13013061.22046  -9855171.91961
  21389130.867     2612168.620 5   2064311.83521
  18673996.039   -26933543.466 7 -19238377.05123
 91  3 21  1 35 14.9920000  0  5G15G 2G13G19G 6
  21367262.4304   -6698418.45446  -5156186.43761
  18724024.805   -27449617.279 8 -21249090.49124
  19871709.484   -13074613.682 6  -9903134.73221
  21394624.539     2641063.582 5   2086827.35121
  18667569.320   -26967310.965 7 -19264689.35023
 91  3 21  1 35 29.9920000  0  5G15G 2G13G19G 6
  21363968.906    -6715733.489 6  -5169678.60921
  18722265.258   -27458864.299 8 -21256295.94024
  19860015.5944  -13136057.75046  -9951013.08961
  21400141.6094    2670028.28544   2109397.20961
  18661160.281   -27000994.246 7 -19290936.00823
 91  3 21  1 35 44.9920000  0  5G15G 2G13G19G 6
  21360694.9454   -6732917.68746  -5183068.83461
  18720512.813   -27468070.099 8 -21263469.26924
  19848341.414   -13197406.667 6  -9998817.29021
  21405662.078     2699048.984 4   2132010.69321
  18654763.281   -27034606.599 7 -19317127.40324
 91  3 21  1 35 59.9920000  0  5G15G 2G13G19G 6
  21357451.0784   -6749982.72446  -5196366.19161
  18718766.977   -27477246.148 8 -21270619.41424
  19836684.344   -13258671.888 6 -10046556.28021
  21411194.899     2728113.761 5   2154658.51021
  18648378.750   -27068159.475 7 -19343272.45324
 91  3 21  1 36 14.9920000  0  5G15G 2G13G19G 6
  21354226.867    -6766915.434 5  -5209560.44621
  18717028.859   -27486379.565 8 -21277736.34224
  19825044.039   -13319840.217 6 -10094219.77721
  21416735.3444    2757235.39444   2177350.64061
  18642006.719   -27101639.633 7 -19369360.84024
 91  3 21  1 36 29.9920000  0  5G15G 2G13G19G 6
  21351029.524    -6783718.370 6  -5222653.58921
  18715298.149   -27495473.011 8 -21284822.12524
  19813421.9614  -13380913.98646 -10141809.57761
  21422290.391     2786411.177 4   2200084.96421
  18635649.406   -27135049.483 7 -19395394.44324
 91  3 21  1 36 44.9920000  0  5G15G 2G13G19G 6
  21347858.359    -6800392.166 6  -5235646.10821
  18713575.352   -27504526.976 8 -21291877.14824
  19801817.922   -13441893.474 6 -10189325.92921
  21427847.508     2815640.556 4   2222861.03821
  18629304.547   -27168389.245 7 -19421373.42924
 91  3 21  1 36 59.9920000  0  5G15G 2G13G19G 6
  21344709.8054   -6816932.13445  -5248534.33261
  18711860.609   -27513537.209 8 -21298898.09124
  19790231.6094  -13502773.91946 -10236765.08861
  21433426.203     2844927.697 4   2245682.14621
  18622975.164   -27201654.306 7 -19447294.20524
 91  3 21  1 37 14.9920000  0  5G15G 2G13G19G 6
  21341587.328    -6833339.915 6  -5261319.56521
  18710154.359   -27522505.784 8 -21305886.57125
  19778664.156   -13563556.847 6 -10284128.26521
  21439007.0004    2874270.51344   2268546.64161
  18616658.649   -27234846.235 7 -19473157.99724
 91  3 21  1 37 29.9920000  0  5G15G 2G13G19G 6
  21338486.2744   -6849623.06646  -5274007.67961
  18708454.141   -27531440.296 8 -21312848.51225
  19767116.9774  -13624249.60346 -10331421.17561
  21444603.4924    2903661.34944   2291448.55061
  18610355.703   -27267972.314 7 -19498970.47824
 91  3 21  1 37 44.9920000  0  5G15G 2G13G19G 6
  21335412.500    -6865788.798 6  -5286604.28021
  18706760.024   -27540348.104 8 -21319789.64025
  19755581.797   -13684859.066 6 -10378649.18021
  21450203.5944    2933092.64644   2314381.97461
  18604062.852   -27301039.731 7 -19524737.25524
 91  3 21  1 37 59.9920000  0  5G15G 2G13G19G 6
  21332365.5394   -6881807.69546  -5299086.46461
  18705075.524   -27549199.821 8 -21326687.06625
  19744070.0474  -13745355.68146 -10425789.25561
  21455815.6644    2962593.77944   2337369.82061
  18597787.164   -27334018.730 7 -19550435.13224
 91  3 21  1 38 14.9920000  0  5G15G 2G13G19G 6
  21329343.563    -6897662.878 6  -5311441.08121
  18703403.930   -27557978.678 8 -21333527.71725
  19732583.4304  -13805722.61246 -10472828.27561
  21461443.234     2992181.242 4   2360424.94121
  18591530.953   -27366892.397 7 -19576050.92624
 91  3 21  1 38 29.9920000  0  5G15G 2G13G19G 6
  21326356.7744   -6913382.63746  -5323690.17861
  18701742.328   -27566713.278 8 -21340333.87325
  19721113.2344  -13865987.79846 -10519788.01661
  21467089.813     3021826.346 4   2383524.96321
  18585291.703   -27399688.895 7 -19601606.58924
 91  3 21  1 38 44.9920000  0  5G15G 2G13G19G 6
  21323382.8134   -6928981.04746  -5335844.73061
  18700085.602   -27575417.751 8 -21347116.55125
  19709662.2584  -13926165.28346 -10566679.40861
  21472732.3754    3051514.88544   2406658.84161
  18579061.188   -27432422.154 7 -19627112.96924
 91  3 21  1 38 59.9920000  0  5G15G 2G13G19G 6
  21320447.883    -6944439.672 6  -5347890.34221
  18698438.859   -27584073.609 8 -21353861.35425
  19698230.274   -13986236.374 6 -10613487.91321
  21478397.758     3081265.224 4   2429840.86821
  18572848.141   -27465073.410 7 -19652555.46424
 91  3 21  1 39 14.9920000  0  5G15G 2G13G19G 6
  21317528.5474   -6959773.24846  -5359838.51661
  18696798.055   -27592695.965 8 -21360580.04625
  19686818.4774  -14046215.57546 -10660224.80661
  21484065.680     3111062.297 4   2453059.32421
  18566648.281   -27497657.310 7 -19677945.46824
 91  3 21  1 39 29.9920000  0  5G15G 2G13G19G 6
  21314631.313    -6974972.988 6  -5371682.39121
  18695164.758   -27601276.180 8 -21367265.90925
  19675422.656   -14106093.905 6 -10706883.10321
  21489752.6094    3140914.52344   2476320.75661
  18560462.703   -27530164.922 7 -19703276.02324
 91  3 21  1 39 44.9920000  0  5G15G 2G13G19G 6
  21311767.797    -6990044.344 6  -5383426.24721
  18693537.625   -27609819.662 8 -21373923.14425
  19664045.727   -14165876.339 6 -10753466.67621
  21495438.297     3170816.405 5   2499620.87521
  18554289.656   -27562601.299 7 -19728551.07324
 91  3 21  1 39 59.9920000  0  5G15G 2G13G19G 6
  21308923.172    -7004994.633 6  -5395075.76721
  18691918.422   -27618333.845 8 -21380557.54825
  19652689.0084  -14225569.91146 -10799981.00461
  21501138.617     3200760.556 5   2522953.93121
  18548127.539   -27594973.665 7 -19753776.24324
 91  3 21  1 40 14.9920000  0  5G15G 2G13G19G 6
  21306100.9144   -7019813.13946  -5406622.59861
  18690305.649   -27626808.374 8 -21387161.05925
  19641346.453   -14285164.198 6 -10846417.97421
  21506846.6804    3230757.18545   2546327.88361
  18541982.891   -27627271.322 7 -19778943.19624
 91  3 21  1 40 29.9920000  0  5G15G 2G13G19G 6
  21303309.2744   -7034484.99145  -5418055.15861
  18688703.500   -27635228.357 8 -21393722.05625
  19630028.055   -14344643.970 6 -10892765.71521
  21512566.5474    3260820.98244   2569754.17161
  18535854.352   -27659479.112 7 -19804040.12124
 91  3 21  1 40 44.9920000  0  5G15G 2G13G19G 6
  21300544.016    -7049026.508 6  -5429386.15221
  18687109.305   -27643610.380 8 -21400253.47725
  19618728.1024  -14404025.31046 -10939036.76061
  21518296.3054    3290935.29844   2593219.82761
  18529739.000   -27691613.366 7 -19829079.74424
 91  3 21  1 40 59.9920000  0  5G15G 2G13G19G 6
  21297799.891    -7063440.868 6  -5440618.07321
  18685521.000   -27651957.711 8 -21406757.86725
  19607447.7894  -14463311.37146 -10985233.55561
  21524034.5314    3321096.68644   2616722.14761
  18523637.430   -27723676.954 7 -19854064.31024
 91  3 21  1 41 14.9920000  0  5G15G 2G13G19G 6
  21295080.477    -7077721.720 6  -5451745.95621
  18683939.711   -27660263.869 8 -21413230.18025
  19596185.4384  -14522495.42746 -11031350.87561
  21529783.3834    3351311.46944   2640266.09161
  18517550.859   -27755663.152 7 -19878988.57323
 91  3 21  1 41 29.9920000  0  5G15G 2G13G19G 6
  21292389.2664   -7091877.19746  -5462776.13361
  18682365.328   -27668537.398 8 -21419677.05825
  19584939.672   -14581585.804 6 -11077395.19321
  21535545.508     3381570.849 4   2663844.79521
  18511476.727   -27787580.352 7 -19903859.07623
 91  3 21  1 41 44.9920000  0  5G15G 2G13G19G 6
  21289721.7114   -7105890.23746  -5473695.32161
  18680799.914   -27676761.247 8 -21426085.22625
  19573717.977   -14640564.895 6 -11123352.78921
  21541312.0394    3411892.19044   2687471.79261
  18505419.899   -27819410.985 7 -19928662.12223
 91  3 21  1 41 59.9920000  0  5G15G 2G13G19G 6
  21287078.7744   -7119775.40746  -5484514.87561
  18679241.883   -27684950.171 8 -21432466.19125
  19562512.438   -14699447.027 6 -11169234.83621
  21547095.859     3442260.623 5   2711135.45221
  18499375.266   -27851169.553 7 -19953409.00923
 91  3 21  1 42 14.9920000  0  5G15G 2G13G19G 6
  21284463.6414   -7133519.79746  -5495224.72561
  18677691.438   -27693091.310 8 -21438809.91025
  19551328.242   -14758219.158 6 -11215031.17021
  21552882.9224    3472688.68945   2734845.60461
  18493348.461   -27882842.907 7 -19978089.49423
 91  3 21  1 42 29.9920000  0  5G15G 2G13G19G 6
  21281873.3054   -7147121.95546  -5505823.75061
  18676152.695   -27701183.177 8 -21445115.23225
  19540164.195   -14816879.439 6 -11260740.34321
  21558685.6414    3503177.71744   2758603.24361
  18487337.969   -27914429.220 7 -20002702.16023
 91  3 21  1 42 44.9920000  0  5G15G 2G13G19G 6
  21279315.9774   -7160586.74346  -5516315.72561
  18674621.719   -27709231.050 8 -21451386.27925
  19529021.320   -14875432.814 6 -11306366.20721
  21564494.016     3533722.244 4   2782404.11521
  18481343.899   -27945933.525 7 -20027250.91623
 91  3 21  1 42 59.9920000  0  5G15G 2G13G19G 6
  21276774.0864   -7173919.14246  -5526704.54161
  18673098.6254  -27717239.68848 -21457626.74765
  19517898.531   -14933883.667 6 -11351912.19021
  21570317.1564    3564317.53744   2806244.54961
  18475361.774   -27977360.266 7 -20051739.24323
 91  3 21  1 43 14.9920000  0  5G15G 2G13G19G 6
  21274264.1254   -7187120.62746  -5536991.35361
  18671580.484   -27725210.714 8 -21463837.91325
  19506795.039   -14992233.647 6 -11397379.56321
  21576152.4144    3594961.85845   2830123.20861
  18469397.399   -28008710.726 7 -20076168.12023
 91  3 21  1 43 29.9920000  0  5G15G 2G13G19G 6
  21271776.6334   -7200188.40145  -5547173.97761
  18670070.578   -27733141.486 8 -21470017.71425
  19495710.359   -15050479.626 6 -11442765.90121
  21581989.336     3625657.626 4   2854041.94021
  18463445.352   -28039981.911 7 -20100535.22323
 91  3 21  1 43 44.9920000  0  5G15G 2G13G19G 6
  21269314.3994   -7213119.45845  -5557250.07061
  18668569.469   -27741029.143 8 -21476163.91325
  19484648.5004  -15108618.30546 -11488068.63661
  21587842.8754    3656407.57544   2878002.90661
  18457511.063   -28071170.763 7 -20124838.17523
 91  3 21  1 43 59.9920000  0  5G15G 2G13G19G 6
  21266882.3134   -7225917.45745  -5567222.47561
  18667076.305   -27748877.639 8 -21482279.60225
  19473603.875   -15166653.516 6 -11533290.75621
  21593707.102     3687207.842 4   2902003.06321
  18451592.211   -28102280.813 7 -20149079.72223
 91  3 21  1 44 14.9920000  0  5G15G 2G13G19G 6
  21264475.0244   -7238574.02846  -5577084.68661
  18665592.305   -27756678.807 8 -21488358.41025
  19462581.813   -15224576.650 7 -11578425.52821
  21599573.563     3718066.324 3   2926048.58221
  18445685.797   -28133303.838 7 -20173253.45823
 91  3 21  1 44 29.9920000  0  5G15G 2G13G19G 6
  21262092.0164   -7251090.71146  -5586837.89061
  18664115.422   -27764434.127 8 -21494401.48825
  19451580.7894  -15282389.00347 -11623473.98361
  21605460.5314    3748981.53743   2950138.31761
  18439799.664   -28164240.815 7 -20197360.15423
 91  3 21  1 44 44.9920000  0  5G15G 2G13G19G 6
  21259736.031    -7263481.232 6  -5596492.79421
  18662645.195   -27772157.218 8 -21500419.46625
  19440597.234   -15340103.798 7 -11668446.41521
  21611349.156     3779939.554 3   2974261.41321
  18433927.258   -28195105.160 7 -20221410.24623
 91  3 21  1 44 59.9920000  0  5G15G 2G13G19G 6
  21257400.945    -7275746.158 6  -5606049.82321
  18661182.367   -27779848.980 8 -21506413.02625
  19429632.9694  -15397721.69547 -11713343.35361
  21617248.406     3810939.404 3   2998417.10321
  18428067.070   -28225897.455 7 -20245404.18923
 91  3 21  1 45 14.9920000  0  5G15G 2G13G19G 6
  21255091.4304   -7287882.95746  -5615507.01061
  18659725.109   -27787506.720 8 -21512380.07025
  19418687.4454  -15455239.70447 -11758162.45361
  21623157.1174    3841983.77143   3022607.47061
  18422221.789   -28256614.493 7 -20269339.49623
 91  3 21  1 45 29.9920000  0  5G15G 2G13G19G 6
  21252808.6564   -7299876.59746  -5624852.63361
  18658278.649   -27795115.779 8 -21518309.18625
  19407763.508   -15512643.128 7 -11802892.28521
  21629074.1024    3873086.90343   3046843.64761
  18416394.352   -28287241.678 7 -20293204.78723
 91  3 21  1 45 44.9920000  0  5G15G 2G13G19G 6
  21250548.8524   -7311725.97346  -5634085.85961
  18656839.766   -27802674.940 8 -21524199.41725
  19396861.9924  -15569930.25747 -11847531.49261
  21635004.7424    3904250.12643   3071126.64261
  18410582.703   -28317777.313 7 -20316998.73923
 91  3 21  1 45 59.9920000  0  5G15G 2G13G19G 6
  21248319.500    -7323433.272 5  -5643208.37321
  18655410.852   -27810186.191 8 -21530052.31725
  19385983.3994  -15627102.70947 -11892081.33361
  21640951.242     3935471.308 3   3095454.78021
  18404789.102   -28348223.225 7 -20340722.77623
 91  3 21  1 46 14.9920000  0  5G15G 2G13G19G 6
  21246120.6024   -7335015.48545  -5652233.41661
  18653986.734   -27817666.773 8 -21535881.31725
  19375122.7974  -15684177.42447 -11936555.00961
  21646895.727     3966733.015 3   3119814.48621
  18399009.344   -28378596.391 7 -20364390.12623
 91  3 21  1 46 29.9920000  0  5G15G 2G13G19G 6
  21243939.7974   -7346468.53045  -5661157.81661
  18652569.742   -27825112.814 8 -21541683.40825
  19364279.7664  -15741150.33447 -11980949.36061
  21652853.649     3998038.886 3   3144208.63421
  18393243.617   -28408892.545 7 -20387997.47423
 91  3 21  1 46 44.9920000  0  5G15G 2G13G19G 6
  21241788.1254   -7357772.32945  -5669965.91661
  18651161.899   -27832504.346 8 -21547443.02325
  19353461.1254  -15798001.09947 -12025248.52461
  21658826.625     4029409.010 4   3168652.84521
  18387496.781   -28439091.481 7 -20411529.05923
 91  3 21  1 46 59.9920000  0  5G15G 2G13G19G 6
  21239659.031    -7368956.811 5  -5678681.04221
  18649760.859   -27839871.270 8 -21553183.46425
  19342660.7974  -15854759.56146 -12069475.78261
  21664800.524     4060813.209 3   3193123.60221
  18381764.649   -28469222.782 7 -20435007.95223
 91  3 21  1 47 14.9920000  0  5G15G 2G13G19G 6
  21237558.1954   -7380007.36745  -5687291.81261
  18648366.906   -27847199.288 8 -21558893.58525
  19331879.4774  -15911410.87146 -12113619.54761
  21670787.484     4092265.673 4   3217631.99221
  18376045.680   -28499271.657 7 -20458422.61523
 91  3 21  1 47 29.9920000  0  5G15G 2G13G19G 6
  21235477.3444   -7390920.71145  -5695795.64861
  18646980.789   -27854485.077 8 -21564570.79725
  19321120.7194  -15967951.20646 -12157676.81861
  21676780.1724    4123769.89244   3242180.69961
  18370343.906   -28529234.411 7 -20481770.15923
 91  3 21  1 47 44.9920000  0  5G15G 2G13G19G 6
  21233427.6094   -7401710.01746  -5704202.86061
  18645599.781   -27861741.883 8 -21570225.42825
  19310381.1884  -16024393.86347 -12201657.98261
  21682779.656     4155312.170 4   3266759.05021
  18364654.164   -28559124.342 7 -20505060.96623
 91  3 21  1 47 59.9920000  0  5G15G 2G13G19G 6
  21231403.9694   -7412362.01346  -5712503.05861
  18644226.188   -27868956.476 8 -21575847.16825
  19299658.774   -16080725.292 6 -12245552.47521
  21688795.5164    4186905.69243   3291377.32561
  18358983.969   -28588927.734 7 -20528284.34523
 91  3 21  1 48 14.9920000  0  5G15G 2G13G19G 6
  21229401.375    -7422868.458 6  -5720689.84521
  18642862.180   -27876120.620 8 -21581429.59925
  19288964.0164  -16136937.23146 -12289353.86161
  21694817.3914    4218558.49843   3316041.80861
  18353330.750   -28618636.241 7 -20551433.78523
 91  3 21  1 48 29.9920000  0  5G15G 2G13G19G 6
  21227427.734    -7433243.772 6  -5728774.46621
  18641505.969   -27883249.017 8 -21586984.17625
  19278287.7894  -16193043.95446 -12333073.25261
  21700850.6954    4250255.83243   3340740.97561
  18347694.594   -28648264.167 7 -20574520.43623
 91  3 21  1 48 44.9920000  0  5G15G 2G13G19G 6
  21225478.6804   -7443491.95846  -5736760.00061
  18640153.945   -27890345.564 8 -21592513.93425
  19267628.891   -16249049.141 7 -12376713.52721
  21706887.0164    4281993.52043   3365471.59061
  18342069.969   -28677815.259 7 -20597547.21123
 91  3 21  1 48 59.9920000  0  5G15G 2G13G19G 6
  21223551.766    -7453608.443 6  -5744642.93021
  18638812.836   -27897405.685 8 -21598015.30125
  19256992.063   -16304947.753 7 -12420270.76821
  21712937.2744    4313775.94343   3390237.05961
  18336460.6024  -28707284.58847 -20620510.27363
 91  3 21  1 49 14.9920000  0  5G15G 2G13G19G 6
  21221650.984    -7463588.916 6  -5752419.88021
  18637476.9384  -27904425.30648 -21603485.11065
  19246376.7274  -16360735.26147 -12463741.42261
  21718992.797     4345607.121 3   3415040.54221
  18330872.063   -28736667.678 7 -20643406.14623
 91  3 21  1 49 29.9920000  0  5G15G 2G13G19G 6
  21219785.008    -7473428.152 6  -5760086.77321
  18636148.977   -27911399.196 7 -21608919.29125
  19235782.1254  -16416406.05147 -12507121.13661
  21725066.6254    4377492.45243   3439886.20961
  18325296.242   -28765958.833 7 -20666230.37523
 91  3 21  1 49 44.9920000  0  5G15G 2G13G19G 6
  21217934.3834   -7483139.57445  -5767654.08661
  18634828.195   -27918340.751 8 -21614328.26925
  19225207.2034  -16471973.57447 -12550420.38061
  21731139.352     4409418.078 4   3464763.30621
  18319736.633   -28795171.339 7 -20688993.31723
 91  3 21  1 49 59.9920000  0  5G15G 2G13G19G 6
  21216105.703    -7492713.135 5  -5775113.96021
  18633515.984   -27925239.926 8 -21619704.22725
  19214654.4774  -16527427.37847 -12593631.02061
  21737224.8284    4441394.07944   3489679.62161
  18314194.766   -28824294.936 7 -20711686.98423
 91  3 21  1 50 14.9920000  0  5G15G 2G13G19G 6
  21214318.109    -7502131.491 5  -5782452.89721
  18632215.195   -27932079.509 8 -21625033.74825
  19204127.3284  -16582750.21147 -12636739.60161
  21743320.125     4473437.267 4   3514648.29321
  18308673.281   -28853312.131 7 -20734297.74123
 91  3 21  1 50 29.9920000  0  5G15G 2G13G19G 6
  21212552.070    -7511421.982 6  -5789692.19221
  18630917.234   -27938887.175 7 -21630338.39925
  19193619.5554  -16637969.36047 -12679767.38761
  21749422.2194    4505519.95244   3539647.76161
  18303166.727   -28882250.186 7 -20756846.83323
 91  3 21  1 50 44.9920000  0  5G15G 2G13G19G 6
  21210806.774    -7520582.984 6  -5796830.58321
  18629629.578   -27945661.126 7 -21635616.78125
  19183132.7744  -16693082.73747 -12722712.74961
  21755537.250     4537643.945 4   3564679.41921
  18297675.195   -28911107.107 7 -20779332.69424
 91  3 21  1 50 59.9920000  0  5G15G 2G13G19G 6
  21209092.1724   -7529606.67646  -5803861.98261
  18628347.672   -27952393.406 7 -21640862.69425
  19172666.3444  -16748082.02747 -12765569.21861
  21761661.242     4569816.878 3   3589749.16921
  18292201.000   -28939874.667 7 -20801748.93023
 91  3 21  1 51 14.9920000  0  5G15G 2G13G19G 6
  21207399.867    -7538479.391 6  -5810775.73821
  18627077.219   -27959070.526 7 -21646065.62025
  19162223.5084  -16802953.44947 -12808326.04761
  21767795.7424    4602052.14544   3614867.51961
  18286746.219   -28968539.034 7 -20824084.75424
 91  3 21  1 51 29.9920000  0  5G15G 2G13G19G 6
  21205740.289    -7547198.024 6  -5817569.42521
  18625819.547   -27965689.391 7 -21651223.15425
  19151806.719   -16857693.730 7 -12850980.69821
  21773938.977     4634352.602 4   3640036.65321
  18281311.399   -28997096.977 7 -20846337.64523
 91  3 21  1 51 44.9920000  0  5G15G 2G13G19G 6
  21204110.9844   -7555787.29046  -5824262.29861
  18624563.789   -27972274.896 7 -21656354.68725
  19141410.9844  -16912327.27747 -12893552.17361
  21780096.1884    4666693.61144   3665237.40261
  18275892.281   -29025572.976 7 -20868526.69324
 91  3 21  1 51 59.9920000  0  5G15G 2G13G19G 6
  21202499.758    -7564244.883 6  -5830852.58221
  18623317.3754  -27978824.71447 -21661458.41465
  19131035.0704  -16966851.98747 -12936038.84061
  21786261.734     4699076.883 3   3690471.08021
  18270488.844   -29053964.528 7 -20890649.92824
 91  3 21  1 52 14.9920000  0  5G15G 2G13G19G 6
  21200913.2814   -7572570.10946  -5837339.72961
  18622078.656   -27985338.331 7 -21666533.93225
  19120680.2114  -17021266.92947 -12978439.97361
  21792428.836     4731502.988 4   3715738.14221
  18265104.7194  -29082270.66247 -20912706.61663
 91  3 21  1 52 29.9920000  0  5G15G 2G13G19G 6
  21199353.445    -7580755.031 6  -5843717.55221
  18620848.961   -27991807.635 7 -21671574.93225
  19110346.3444  -17075563.95547 -13020749.22461
  21798610.563     4763979.767 4   3741044.69021
  18259734.9064  -29110483.15547 -20934690.33664
 91  3 21  1 52 44.9920000  0  5G15G 2G13G19G 6
  21197819.9844   -7588812.09546  -5849995.74361
  18619622.484   -27998245.220 7 -21676591.20725
  19100033.8914  -17129755.03547 -13062975.91661
  21804795.844     4796494.591 4   3766380.87121
  18254381.930   -29138614.239 7 -20956610.60624
 91  3 21  1 52 59.9920000  0  5G15G 2G13G19G 6
  21196315.805    -7596728.163 5  -5856164.06921
  18618405.703   -28004637.700 7 -21681572.34225
  19089745.2584  -17183826.57847 -13105109.47361
  21810994.344     4829060.638 3   3791756.98621
  18249046.969   -29166650.248 7 -20978456.80124
 91  3 21  1 53 14.9920000  0  5G15G 2G13G19G 6
  21194831.156    -7604506.986 5  -5862225.46621
  18617196.938   -28010989.312 8 -21686521.62625
  19079478.0474  -17237782.56247 -13147152.97261
  21817201.375     4861673.626 4   3817169.64521
  18243729.469   -29194595.130 7 -21000231.99224
 91  3 21  1 53 29.9920000  0  5G15G 2G13G19G 6
  21193377.3594   -7612156.62345  -5868186.19761
  18615995.227   -28017308.002 8 -21691445.26025
  19069230.8524  -17291630.88347 -13189112.57961
  21823414.2974    4894325.30944   3842612.48161
  18238426.7664  -29222456.60047 -21021942.18964
 91  3 21  1 53 44.9920000  0  5G15G 2G13G19G 6
  21191953.391    -7619673.381 5  -5874043.39621
  18614798.875   -28023589.754 7 -21696340.10025
  19059004.758   -17345367.244 7 -13230984.96021
  21829633.172     4927019.590 4   3868088.49921
  18233141.531   -29250230.425 7 -21043584.08724
 91  3 21  1 53 59.9920000  0  5G15G 2G13G19G 6
  21190549.055    -7627049.311 5  -5879790.82321
  18613612.227   -28029827.067 7 -21701200.33125
  19048802.133   -17398983.739 7 -13272763.93921
  21835867.3994    4959763.87043   3893603.48661
  18227874.5944  -29277908.78947 -21065151.59964
 91  3 21  1 54 14.9920000  0  5G15G 2G13G19G 6
  21189163.1254   -7634298.26645  -5885439.31961
  18612432.133   -28036033.683 7 -21706036.63725
  19038619.5004  -17452493.79147 -13314459.96861
  21842102.1094    4992544.30743   3919146.63161
  18222624.461   -29305504.934 7 -21086655.04424
 91  3 21  1 54 29.9920000  0  5G15G 2G13G19G 6
  21187815.000    -7641401.452 6  -5890974.22621
  18611260.883   -28042190.697 7 -21710834.29225
  19028461.9694  -17505878.19947 -13356058.09061
  21848351.250     5025379.661 3   3944732.58921
  18217391.6254  -29332999.85747 -21108079.61964
 91  3 21  1 54 44.9920000  0  5G15G 2G13G19G 6
  21186487.8364   -7648372.43846  -5896406.12061
  18610095.492   -28048312.008 7 -21715604.11925
  19018324.820   -17559150.794 7 -13397569.08821
  21854606.242     5058255.863 3   3970350.37821
  18212175.609   -29360406.947 7 -21129435.74824
 91  3 21  1 54 59.9920000  0  5G15G 2G13G19G 6
  21185189.469    -7655221.147 6  -5901742.72121
  18608934.352   -28054407.175 7 -21720353.57725
  19008204.9614  -17612321.02147 -13439000.31761
  21860875.578     5091162.911 3   3995992.16321
  18206973.891   -29387735.901 7 -21150730.98724
 91  3 21  1 55 14.9920000  0  5G15G 2G13G19G 6
  21183904.422    -7661937.356 6  -5906976.09221
  18607783.953   -28060466.243 7 -21725074.91225
  18998108.484   -17665378.565 7 -13480343.74021
  21867136.734     5124110.711 3   4021665.72921
  18201791.789   -29414976.457 7 -21171957.35124
 91  3 21  1 55 29.9920000  0  5G15G 2G13G19G 6
  21182657.2504   -7668514.30146  -5912100.92261
  18606637.649   -28066482.358 7 -21729762.77325
  18988034.5164  -17718316.36947 -13521593.85861
  21873416.6174    5157105.94043   4047376.25161
  18196625.914   -29442121.320 7 -21193109.14724
 91  3 21  1 55 44.9920000  0  5G15G 2G13G19G 6
  21181431.7424   -7674950.54346  -5917116.12061
  18605500.461   -28072454.300 7 -21734416.22025
  18977983.930   -17771133.008 7 -13562749.56921
  21879706.524     5190149.852 3   4073124.72621
  18191478.422   -29469168.948 7 -21214185.17824
 91  3 21  1 55 59.9920000  0  5G15G 2G13G19G 6
  21180227.117    -7681273.178 6  -5922042.79921
  18604367.445   -28078409.098 7 -21739056.30325
  18967951.6884  -17823855.07947 -13603831.58961
  21886003.609     5223215.174 4   4098889.86021
  18186345.383   -29496146.108 7 -21235206.29224
 91  3 21  1 56 14.9920000  0  4G15G 2G13G 6
  21179050.0394   -7687459.25745  -5926863.07261
  18603241.758   -28084323.521 7 -21743664.93625
  18957941.7584  -17876459.01147 -13644821.55261
  18181229.414   -29523029.332 7 -21256154.21924
 91  3 21  1 56 29.9920000  0  4G15G 2G13G 6
  21177897.4534   -7693512.26445  -5931579.66661
  18602123.922   -28090201.190 7 -21748244.91824
  18947952.344   -17928948.518 7 -13685722.34921
  18176131.031   -29549822.065 7 -21277031.63224
 91  3 21  1 56 44.9920000  0  4G15G 2G13G 6
  21176778.250    -7699412.479 5
  18601017.430   -28096022.344 8
  18937989.625   -17981303.446 7 -13726518.28421
  18171054.211   -29576504.042 7 -21297822.74324
 91  3 21  1 56 59.9920000  0  4G15G 2G13G 6
  21175683.703    -7705162.262 5
  18599918.149   -28101789.610 8
  18928051.9304  -18033526.24247 -13767211.25462
  18165996.375   -29603077.722 7 -21318529.45624
 91  3 21  1 57 14.9920000  0  4G15G 2G13G 6
  21174609.6644   -7710787.15045  -5945040.50961
  18598825.984   -28107528.500 8 -21761746.66124
  18918133.8524  -18085642.11247 -13807820.91161
  18160956.1564  -29629568.38547 -21339171.49064
 91  3 21  1 57 29.9920000  0  4G15G 2G13G 6
  21173563.1724   -7716276.99745  -5949318.27861
  18597742.031   -28113228.776 7 -21766188.42324
  18908239.0084  -18137640.59847 -13848339.09661
  18155932.961   -29655965.433 7 -21359740.57324
 91  3 21  1 57 44.9920000  0  4G15G 2G13G 6
  21172543.914    -7721638.864 6  -5953496.31721
  18596662.524   -28118897.434 7 -21770605.54024
  18898365.547   -18189528.584 7 -13888771.18521
  18150926.039   -29682275.667 7 -21380242.01124
 91  3 21  1 57 59.9920000  0  4G15G 2G13G 6
  21171549.852    -7726882.694 6  -5957582.37121
  18595588.227   -28124544.433 7 -21775005.77924
  18888511.211   -18241315.666 7 -13929124.64121
  18145934.289   -29708508.969 7 -21400683.50124
 91  3 21  1 58 14.9920000  0  4G15G 2G13G 6
  21170574.274    -7731991.362 6  -5961563.10921
  18594521.234   -28130152.528 8 -21779375.71024
  18878678.649   -18292984.519 7 -13969385.97721
  18140959.328   -29734647.562 7 -21421051.19524
 91  3 21  1 58 29.9920000  0  4G15G 2G13G 6
  21169631.774    -7736948.464 6  -5965425.73921
  18593465.711   -28135705.396 8 -21783702.59824
  18868870.625   -18344518.644 7 -14009542.32121
  18136005.781   -29760675.111 7 -21441332.35824
 91  3 21  1 58 44.9920000  0  4G15G 2G13G 6
  21168717.891    -7741776.913 6  -5969188.12621
  18592412.7664  -28141226.04047 -21788004.38864
  18859084.641   -18395940.669 7 -14049611.33221
  18131071.6174  -29786614.04047 -21461544.47064
 91  3 21  1 58 59.9920000  0  4G15G 2G13G 6
  21167818.2584   -7746464.22845  -5972840.53061
  18591372.953   -28146701.826 7 -21792271.21224
  18849323.734   -18447237.877 7 -14089583.07821
  18126153.9384  -29812451.65347 -21481677.63664
 91  3 21  1 59 14.9920000  0  4G15G 2G13G 6
  21166956.8054   -7751007.71845  -5976380.87461
  18590340.516   -28152130.276 7 -21796501.14924
  18839587.875   -18498407.560 7 -14129455.45421
  18121257.2424  -29838185.00147 -21501729.55864
 91  3 21  1 59 29.9920000  0  4G15G 2G13G 6
  21166116.680    -7755422.916 5  -5979821.24421
  18589312.234   -28157526.710 7 -21800706.14224
  18829871.086   -18549464.650 7 -14169240.10421
  18116376.2194  -29863829.37047 -21521712.14164
 91  3 21  1 59 44.9920000  0  4G15G 2G13G 6
  21165299.984    -7759703.476 5  -5983156.69021
  18588294.1254  -28162884.95548 -21804881.37664
  18820176.578   -18600402.967 7 -14208932.18221
  18111514.9774  -29889378.25047 -21541620.32064
 91  3 21  1 59 59.9920000  0  4G15G 2G13G 6
  21164514.117    -7763843.909 5  -5986382.95821
  18587279.906   -28168199.251 7 -21809022.36124
  18810509.352   -18651216.533 7 -14248527.06821
  18106672.7424  -29914825.68347 -21561449.44764
 91  3 21  2  0 14.9920000  0  4G15G 2G13G 6
  21163755.172    -7767841.837 5  -5989498.18121
  18586278.906   -28173467.416 8 -21813127.40324
  18800862.7034  -18701902.82547 -14288022.78061
  18101849.7664  -29940169.11747 -21581197.54764
 91  3 21  2  0 29.9920000  0  4G15G 2G13G 6
  21163019.031    -7771713.741 6  -5992515.23021
  18585281.789   -28178705.735 8 -21817209.18424
  18791237.9384  -18752477.77847 -14327431.73362
  18097043.8914  -29965424.72047 -21600877.19964
 91  3 21  2  0 44.9920000  0  4G15G 2G13G 6
  21162305.9774   -7775450.64145  -5995427.05661
  18584293.055   -28183905.073 8 -21821260.59824
  18781636.383   -18802932.000 7 -14366746.61222
  18092258.063   -29990582.916 7 -21620480.94324
 91  3 21  2  0 59.9920000  0  4G15G 2G13G 6
  21161620.594    -7779051.975 6  -5998233.26621
  18583309.922   -28189065.206 8 -21825281.45624
  18772058.953   -18853265.279 7 -14405967.24022
  18087486.938   -30015643.414 7 -21640008.56224
 91  3 21  2  1 14.9920000  0  4G15G 2G13G 6
  21160961.164    -7782528.084 6  -6000941.87121
  18582334.367   -28194196.313 8 -21829279.70224
  18762501.086   -18903487.611 7 -14445101.41722
  18082735.8444  -30040615.95647 -21659467.64764
 91  3 21  2  1 29.9920000  0  4G15G 2G13G 6
  21160326.609    -7785852.651 6  -6003532.39621
  18581367.7274  -28199271.96848 -21833234.72564
  18752970.875   -18953572.606 7 -14484128.58222
  18078005.086   -30065474.081 7 -21678837.57324
 91  3 21  2  1 44.9920000  0  4G15G 2G13G 6
  21159717.742    -7789041.233 6  -6006016.95821
  18580411.1954  -28204307.76248 -21837158.69864
  18743461.180   -19003535.329 7 -14523060.47122
  18073293.352   -30090232.926 7 -21698130.13924
 91  3 21  2  1 59.9910000  0  4G15G 2G13G 6
  21159132.730    -7792106.875 6  -6008405.72421
  18579456.823   -28209316.611 8 -21841061.67224
  18733976.839   -19053385.574 7 -14561904.70622
  18068599.6514  -30114903.88747 -21717354.22664
 91  3 21  2  2 14.9910000  0  4G15G 2G13G 6
  21158583.316    -7795022.385 6  -6010677.52421
  18578514.3944  -28214271.39648 -21844922.51664
  18724515.816   -19103101.863 7 -14600644.57222
  18063926.0424  -30139462.22947 -21736490.55764
 91  3 21  2  2 29.9910000  0  4G15G 2G13G 6
  21158050.7224   -7797813.59546  -6012852.44361
  18577576.4644  -28219197.87048 -21848761.29964
  18715076.745   -19152707.058 7 -14639297.86922
  18059268.3624  -30163932.02447 -21755557.89464
 91  3 21  2  2 44.9910000  0  4G15G 2G13G 6
  21157539.995    -7800473.680 5  -6014925.20221
  18576645.651   -28224089.153 8 -21852572.67124
  18705659.855   -19202193.968 7 -14677858.99122
  18054630.6204  -30188306.25647 -21774550.76164
 91  3 21  2  2 59.9910000  0  4G15G 2G13G 6
  21157064.4644   -7802995.80545  -6016890.45561
  18575722.417   -28228938.618 8 -21856351.45324
  18696266.206   -19251555.528 7 -14716322.43422
  18050011.105   -30212577.975 7 -21793463.74624
 91  3 21  2  3 14.9910000  0  4G15G 2G13G 6
  21156610.3704   -7805381.54145  -6018749.44761
  18574808.503   -28233747.403 8 -21860098.54024
  18686896.6754  -19300792.89047 -14754689.11362
  18045412.8944  -30236748.04047 -21812297.52564
 91  3 21  2  3 29.9910000  0  4G15G 2G13G 6
  21156181.3944   -7807633.53945  -6020504.21361
  18573899.120   -28238518.130 8 -21863815.96724
  18677550.7224  -19349908.62647 -14792961.01962
  18040830.5504  -30260819.10647 -21831054.16164
 91  3 21  2  3 44.9910000  0  4G15G 2G13G 6
  21155781.0894   -7809746.73345  -6022150.82561
  18573000.292   -28243245.351 8 -21867499.49324
  18668227.956   -19398897.183 7 -14831133.81621
  18036271.4954  -30284785.44547 -21849729.20064
 91  3 21  2  3 59.9910000  0  4G15G 2G13G 6
  21155405.401    -7811719.909 5  -6023688.32721
  18572107.886   -28247928.450 8 -21871148.64324
  18658931.0034  -19447757.60947 -14869206.77262
  18031729.589   -30308646.009 7 -21868321.80224
 91  3 21  2  4 14.9910000  0  4G15G 2G13G 6
  21155051.7224   -7813556.67345  -6025119.52561
  18571225.784   -28252570.733 8 -21874765.98124
  18649656.7694  -19496492.96547 -14907182.27561
  18027209.1594  -30332403.93347 -21886834.43064
 91  3 21  2  4 29.9910000  0  4G15G 2G13G 6
  21154727.4174   -7815256.49845  -6026444.03361
  18570351.097   -28257171.624 8 -21878351.06424
  18640406.1284  -19545102.63847 -14945059.84761
  18022707.1594  -30356058.29247 -21905266.36164
 91  3 21  2  4 44.9910000  0  4G15G 2G13G 6
  21154427.526    -7816828.018 6  -6027668.54021
  18569480.4174  -28261739.65948 -21881910.54664
  18631179.5264  -19593594.80947 -14982845.86461
  18018223.9334  -30379617.62447 -21923624.24764
 91  3 21  2  4 59.9910000  0  4G15G 2G13G 6
  21154157.4414   -7818259.25546  -6028783.76061
  18568620.066   -28266263.157 8 -21885435.32124
  18621974.8234  -19641957.51147 -15020530.98861
  18013761.855   -30403069.624 7 -21941898.49323
 91  3 21  2  5 14.9910000  0  4G15G 2G13G 6
  21153909.316    -7819563.480 6  -6029800.00321
  18567765.355   -28270755.257 8 -21888935.63824
  18612794.5114  -19690203.82647 -15058125.43161
  18009316.847   -30426427.455 7 -21960099.35923
 91  3 21  2  5 29.9910000  0  4G15G 2G13G 6
  21153687.7534   -7820731.33945  -6030709.98861
  18566919.3554  -28275206.14348 -21892403.83364
  18603635.9564  -19738323.84547 -15095621.45861
  18004891.034   -30449680.956 7 -21978218.92823
 91  3 21  2  5 44.9910000  0  4G15G 2G13G 6
  21153496.339    -7821753.159 5  -6031506.16121
  18566081.066   -28279606.194 8 -21895832.42124
  18594505.6204  -19786307.81347 -15133011.46961
  18000490.003   -30472820.265 7 -21996249.51323
 91  3 21  2  5 59.9910000  0  4G15G 2G13G 6
  21153327.620    -7822638.883 6  -6032196.28721
  18565250.347   -28283965.395 8 -21899229.17424
  18585398.4804  -19834165.53647 -15170303.11061
  17996105.3704  -30495855.20847 -22014198.78263
 91  3 21  2  6 14.9910000  0  4G15G 2G13G 6
  21153181.4094   -7823382.77246  -6032775.90861
  18564430.378   -28288277.831 8 -21902589.49524
  18576315.7614  -19881890.73347 -15207491.47761
  17991743.792   -30518779.538 7 -22032061.85523
 91  3 21  2  6 29.9910000  0  4G15G 2G13G 6
  21153069.6834   -7823993.26745  -6033251.58861
  18563617.175   -28292552.084 8 -21905920.05324
  18567257.1594  -19929491.87047 -15244583.18761
  17987401.5504  -30541601.53747 -22049845.19163
 91  3 21  2  6 44.9910000  0  4G15G 2G13G 6
  21152977.784    -7824455.967 5  -6033612.11321
  18562813.362   -28296773.656 8 -21909209.57224
  18558226.3084  -19976954.30747 -15281566.80561
  17983079.9644  -30564306.68447 -22067537.47763
 91  3 21  2  6 59.9910000  0  4G15G 2G13G 6
  21152921.925    -7824768.121 5  -6033855.32921
  18562020.487   -28300939.668 8 -21912455.79124
  18549220.7844  -20024275.06147 -15318440.02662
  17978782.5424  -30586891.74247 -22085136.18464
 91  3 21  2  7 14.9910000  0  4G15G 2G13G 6
  21152884.886    -7824953.319 5
                                 -21915676.87424
  18540238.6674  -20071477.31447 -15355220.90962
  17974502.4254  -30609379.74647 -22102659.27163
 91  3 21  2  7 29.9910000  0  4G15G 2G13G 6
  21152876.8004   -7825018.22146
                                 -21918878.02664
  18531277.667   -20118567.550 7 -15391914.49922
  17970240.3864  -30631777.10747 -22120111.72163
 91  3 21  2  7 44.9910000  0  4G15G 2G13G 6
  21152885.4094   -7824945.97146
  18559678.667   -28313247.412 8 -21922046.16024
  18522340.8394  -20165528.53847 -15428507.37662
  17965998.862   -30654066.674 7 -22137480.17323
 91  3 21  2  7 59.9910000  0  4G15G 2G13G 6
  21152923.651    -7824732.896 6
  18558914.034   -28317266.921 8 -21925178.22524
  18513430.6364  -20212356.35847 -15464996.49462
  17961778.7924  -30676244.50147 -22154761.55363
 91  3 21  2  8 14.9910000  0  4G15G 2G13G 6
  21152993.0034   -7824390.08946
  18558156.3234  -28321251.43048 -21928283.01164
  18504541.3554  -20259062.17247 -15501390.53962
  17957576.745   -30698321.621 7 -22171964.46423
 91  3 21  2  8 29.9910000  0  4G15G 2G13G 6
  21153086.5344   -7823901.83646  -6033180.11861
  18557407.128   -28325184.899 8 -21931348.03124
  18495680.5344  -20305629.77747 -15537676.89162
  17953398.769   -30720281.799 7 -22189076.25424
 91  3 21  2  8 44.9910000  0  4G15G 2G13G 6
  21153207.1594   -7823278.19546  -6032694.13761
  18556665.4334  -28329077.31748 -21934381.05864
  18486843.9254  -20352069.25147 -15573863.39962
  17949238.737   -30742134.770 7 -22206104.49923
 91  3 21  2  8 59.9910000  0  4G15G 2G13G 6
  21153351.800    -7822523.119 6  -6032105.72321
  18555932.558   -28332932.652 8 -21937385.19024
  18478031.5664  -20398384.05747 -15609952.76462
  17945102.1444  -30763884.16747 -22223052.04463
 91  3 21  2  9 14.9910000  0  4G15G 2G13G 6
  21153517.5504   -7821638.07146  -6031416.04161
  18555204.917   -28336752.151 8 -21940361.40224
  18469241.0814  -20444575.25147 -15645945.80762
  17940982.7454  -30785531.11547 -22239919.76163
 91  3 21  2  9 29.9910000  0  4G15G 2G13G 6
  21153707.9564   -7820619.84445  -6030622.58361
  18554486.4174  -28340532.67648 -21943307.24064
  18460475.0664  -20490639.61747 -15681840.03262
  17936883.1054  -30807072.07147 -22256704.88163
 91  3 21  2  9 44.9910000  0  4G15G 2G13G 6
  21153925.409    -7819470.376 5  -6029726.87221
  18553773.4414  -28344275.99548 -21946224.08064
  18451732.6834  -20536579.05847 -15717636.90762
  17932803.6204  -30828508.88747 -22273408.86563
 91  3 21  2  9 59.9910000  0  4G15G 2G13G 6
  21154169.2064   -7818190.02645  -6028729.17061
  18553069.1054  -28347982.46347 -21949112.20664
  18443015.1914  -20582393.51647 -15753336.39662
  17928744.5034  -30849841.38847 -22290031.55763
 91  3 21  2 10 14.9910000  0  4G15G 2G13G 6
  21154440.987    -7816775.133 5  -6027626.63021
  18552371.0894  -28351648.20247 -21951968.59764
  18434321.2304  -20628079.23947 -15788935.57562
  17924705.1364  -30871065.59247 -22306569.85963
 91  3 21  2 10 29.9910000  0  4G15G 2G13G 6
  21154736.292    -7815221.861 5  -6026416.26821
  18551681.886   -28355269.096 7 -21954790.05024
  18425654.1594  -20673631.82947 -15824431.01062
  17920687.8554  -30892177.23147 -22323020.44663
 91  3 21  2 10 44.9910000  0  4G15G 2G13G 6
  21155057.745    -7813532.028 5  -6025099.50321
  18551001.4874  -28358847.19847 -21957578.14864
  18417010.300   -20719053.167 7 -15859824.17622
  17916691.3004  -30913178.19647 -22339384.79663
 91  3 21  2 10 59.9910000  0  4G15G 2G13G 6
  21155403.628    -7811716.978 5  -6023685.15521
  18550327.097   -28362393.583 7 -21960341.53924
  18408388.722   -20764354.201 7 -15895123.60222
  17912712.8624  -30934079.22247 -22355671.26963
 91  3 21  2 11 14.9910000  0  4G15G 2G13G 6
  21155772.7064   -7809773.06045  -6022170.39161
  18549658.401   -28365904.787 7 -21963077.52224
  18399791.730   -20809531.420 7 -15930326.55222
  17908756.222   -30954876.664 7 -22371877.02624
 91  3 21  2 11 29.9910000  0  4G15G 2G13G 6
  21156165.526    -7807701.794 5  -6020556.38521
  18548996.269   -28369381.974 7 -21965786.99824
  18391218.644   -20854585.645 7 -15965433.66022
  17904818.8944  -30975571.38847 -22388002.74863
 91  3 21  2 11 44.9910000  0  4G15G 2G13G 6
  21156591.1594   -7805491.96645  -6018834.39861
  18548343.198   -28372813.874 8 -21968461.17724
  18382669.698   -20899505.431 7 -16000436.01322
  17900901.691   -30996151.909 7 -22404039.47624
 91  3 21  2 11 59.9910000  0  4G15G 2G13G 6
  21157032.0264   -7803152.48445  -6017011.40361
  18547696.730   -28376209.266 7 -21971106.91524
  18374145.386   -20944299.664 7 -16035340.52821
  17897005.0344  -31016626.78047 -22419993.88164
 91  3 21  2 12 14.9910000  0  4G15G 2G13G 6
  21157504.3004   -7800669.45745  -6015076.53661
  18547060.886   -28379554.054 8 -21973713.21824
  18365647.691   -20988954.185 7 -16070136.17821
  17893132.4094  -31036981.79047 -22435854.89164
 91  3 21  2 12 29.9910000  0  4G15G 2G13G 6
  21158002.2614   -7798047.17145  -6013033.16761
  18546434.237   -28382852.189 8 -21976283.17424
  18357176.128   -21033472.789 7 -16104825.92621
  17889280.4564  -31057220.79747 -22451625.50564
 91  3 21  2 12 44.9910000  0  4G15G 2G13G 6
  21158531.6514   -7795283.43145  -6010879.56561
  18545814.862   -28386101.667 8 -21978815.20924
  18348730.651   -21077853.070 7 -16139407.88121
  17885452.042   -31077341.128 7 -22467303.64624
 91  3 21  2 12 59.9910000  0  4G15G 2G13G 6
  21159081.3394   -7792383.19245  -6008619.60261
  18545205.308   -28389307.464 8 -21981313.21124
  18340310.019   -21122100.088 7 -16173885.99821
  17881644.8624  -31097347.79747 -22482893.21964
 91  3 21  2 13 14.9910000  0  4G15G 2G13G 6
  21159660.5114   -7789337.43345  -6006246.26161
  18544604.534   -28392460.171 8 -21983769.84224
  18331916.448   -21166204.305 7 -16208252.84121
  17877862.300   -31117231.333 7 -22498386.84524
 91  3 21  2 13 29.9910000  0  4G15G 2G13G 6
  21160264.4174   -7786162.18545  -6003772.00261
  18544012.5734  -28395575.85948 -21986197.62264
  18323549.019   -21210181.436 7 -16242520.65421
  17874097.9724  -31137007.38047 -22513796.71464
 91  3 21  2 13 44.9910000  0  4G15G 2G13G 6
  21160892.9564   -7782853.86345  -6001194.05061
  18543426.784   -28398651.083 8 -21988593.87424
  18315206.2844  -21254027.92147 -16276686.66461
  17870355.0034  -31156672.21047 -22529119.92064
 91  3 21  2 13 59.9910000  0  4G15G 2G13G 6
  21161550.972    -7779404.353 5  -5998506.09721
  18542851.308   -28401677.168 8 -21990951.84024
  18306887.667   -21297735.203 7 -16310744.20421
  17866636.026   -31176217.239 7 -22544349.77123
 91  3 21  2 14 14.9910000  0  4G15G 2G13G 6
  21162235.1834   -7775823.47845  -5995715.77561
  18542282.026   -28404663.935 8 -21993279.16624
  18298594.511   -21341312.930 7 -16344700.79621
  17862939.6124  -31195651.84947 -22559493.58663
 91  3 21  2 14 29.9910000  0  4G15G 2G13G 6
  21162937.1204   -7772116.45945  -5992827.15761
  18541722.245   -28407616.373 8 -21995579.74824
  18290326.222   -21384766.058 7 -16378560.29721
  17859259.5584  -31214980.92147 -22574555.16163
 91  3 21  2 14 44.9910000  0  4G15G 2G13G 6
  21163667.8394   -7768276.90645  -5989835.25661
  18541165.472   -28410528.193 8 -21997848.67824
  18282082.9484  -21428088.13947 -16412317.67862
  17855603.034   -31234197.928 7 -22589529.41423
 91  3 21  2 14 59.9910000  0  4G15G 2G13G 6
  21164429.3554   -7764293.12545  -5986730.98461
  18540623.089   -28413387.483 8 -22000076.67624
  18273866.511   -21471266.974 7 -16445963.43622
  17851969.9954  -31253290.80947 -22604406.94963
 91  3 21  2 15 14.9910000  0  4G15G 2G13G 6
  21165210.9334   -7760170.27945  -5983518.33761
  18540087.1984  -28416199.16748 -22002267.57064
  18265676.089   -21514307.450 7 -16479501.39322
  17848359.8554  -31272264.19647 -22619191.37163
 91  3 21  2 15 29.9910000  0  4G15G 2G13G 6
  21166024.5264   -7755908.53945  -5980197.47161
  18539562.808   -28418963.367 8 -22004421.47124
  18257511.011   -21557209.531 7 -16512931.50822
  17844770.9014  -31291118.00247 -22633882.60963
 91  3 21  2 15 44.9910000  0  4G15G 2G13G 6
  21166858.7614   -7751516.89645  -5976775.37661
  18539042.0344  -28421688.73448 -22006545.10464
  18249372.105   -21599982.057 7 -16546260.67122
  17841204.9484  -31309860.77147 -22648487.32463
 91  3 21  2 15 59.9910000  0  4G15G 2G13G 6
  21167714.5664   -7747002.32445  -5973257.50361
  18538530.956   -28424382.272 8 -22008643.94424
  18241256.831   -21642631.859 7 -16579494.20822
  17837656.2764  -31328499.35547 -22663010.85863
 91  3 21  2 16 14.9910000  0  4G15G 2G13G 6
  21168606.0584   -7742343.22245  -5969627.01261
  18538026.5264  -28427022.23147 -22010701.02664
  18233168.386   -21685137.034 7 -16612615.04622
  17834134.9954  -31347011.81047 -22677436.10863
 91  3 21  2 16 29.9910000  0  4G15G 2G13G 6
  21169511.425    -7737574.664 5  -5965911.20721
  18537528.331   -28429643.684 8 -22012743.69124
  18225099.644   -21727532.151 7 -16645650.12322
  17830629.7534  -31365432.82447 -22691790.11464
 91  3 21  2 16 44.9910000  0  4G15G 2G13G 6
  21170445.6364   -7732662.81345  -5962083.75961
  18537039.612   -28432212.619 7 -22014745.43324
  18217059.847   -21769783.275 7 -16678573.00022
  17827148.026   -31383728.366 7 -22706046.33924
 91  3 21  2 16 59.9910000  0  4G15G 2G13G 6
  21171410.894    -7727609.014 5  -5958145.71321
  18536560.808   -28434730.362 7 -22016707.29624
  18209046.589   -21811891.657 7 -16711384.65422
  17823689.7144  -31401899.31147 -22720205.47664
 91  3 21  2 17 14.9910000  0  4G15G 2G13G 6
  21172395.3234   -7722421.44645  -5954103.42661
  18536089.6514  -28437204.57647 -22018635.22364
  18201060.120   -21853864.995 7 -16744091.07622
  17820252.9334  -31419953.32247 -22734273.50563
 91  3 21  2 17 29.9910000  0  4G15G 2G13G 6
  21173404.4874   -7717108.38345  -5949963.34861
  18535625.542   -28439643.513 7 -22020535.67424
  18193095.792   -21895711.436 7 -16776698.61522
  17816838.5114  -31437898.42147 -22748256.66363
 91  3 21  2 17 44.9910000  0  4G15G 2G13G 6
  21174443.1284   -7711661.28645  -5945718.82861
  18535170.050   -28442038.648 7 -22022401.98724
  18185159.144   -21937422.400 7 -16809200.59222
  17813445.909   -31455725.755 7 -22762148.05023
 91  3 21  2 17 59.9910000  0  4G15G 2G13G 6
  21175506.659    -7706073.310 5  -5941364.53621
  18534725.573   -28444383.137 8 -22024228.84224
  18177249.792   -21978990.865 7 -16841591.52922
  17810078.6674  -31473428.28947 -22775942.20163
 91  3 21  2 18 14.9910000  0  4G15G 2G13G 6
  21176595.5504   -7700359.73545  -5936912.37661
  18534285.3474  -28446692.02447 -22026027.94164
  18169364.191   -22020431.864 7 -16873883.14122
  17806730.5584  -31491020.94147 -22789650.72763
 91  3 21  2 18 29.9910000  0  4G15G 2G13G 6
  21177700.4334   -7694530.57545  -5932370.13861
  18533851.323   -28448974.874 8 -22027806.76724
  18161499.0894  -22061755.04747 -16906082.95262
  17803401.9644  -31508513.27547 -22803281.08363
 91  3 21  2 18 44.9910000  0  4G15G 2G13G 6
  21178841.6124   -7688558.32945  -5927716.41061
  18533424.831   -28451204.021 8 -22029543.74024
  18153663.972   -22102932.218 7 -16938168.98822
  17800097.9334  -31525877.24747 -22816811.41263
 91  3 21  2 18 59.9910000  0  4G15G 2G13G 6
  21179999.3784   -7682464.52845  -5922967.96161
  18533007.941   -28453400.914 8 -22031255.58424
  18145851.3944  -22143984.84647 -16970157.98262
  17796814.5264  -31543134.14347 -22830258.31064
 91  3 21  2 19 14.9910000  0  4G15G 2G13G 6
  21181182.2534   -7676227.82045  -5918108.16161
  18532600.3554  -28455543.99348 -22032925.48764
  18138067.409   -22184891.619 7 -17002033.31322
  17793554.4724  -31560262.37747 -22843604.95264
 91  3 21  2 19 29.9910000  0  4G15G 2G13G 6
  21182399.9094   -7669857.25845  -5913144.05861
  18532200.855   -28457642.351 8 -22034560.54924
  18130308.691   -22225661.393 7 -17033801.89422
  17790317.6834  -31577270.74347 -22856858.19364
 91  3 21  2 19 44.9910000  0  4G15G 2G13G 6
  21183627.8084   -7663374.40945  -5908092.45061
  18531804.995   -28459717.673 8 -22036177.65524
  18122572.472   -22266315.653 7 -17065480.46022
  17787099.7924  -31594180.59547 -22870034.66464
 91  3 21  2 19 59.9910000  0  4G15G 2G13G 6
  21184888.816    -7656764.521 5  -5902941.86821
  18531420.183   -28461754.568 8 -22037764.82724
  18114860.542   -22306838.971 7 -17097056.99622
  17783904.2614  -31610976.48947 -22883122.33764
 91  3 21  2 20 14.9910000  0  4G15G 2G13G 6
  21186173.112    -7650025.356 5  -5897690.54821
  18531037.542   -28463750.536 8 -22039320.10224
  18107174.737   -22347229.075 7 -17128529.73222
  17780730.0584  -31627655.89347 -22896119.24364
 91  3 21  2 20 29.9910000  0  4G15G 2G13G 6
  21187480.823    -7643142.670 5  -5892327.41021
  18530669.0734  -28465691.30948 -22040832.36464
  18099516.495   -22387471.440 7 -17159887.34722
  17777580.2534  -31644204.17947 -22909013.97364
 91  3 21  2 20 44.9910000  0  4G15G 2G13G 6
  21188812.737    -7636134.189 5  -5886866.22721
  18530307.698   -28467594.650 8 -22042315.46524
  18091884.261   -22427583.546 7 -17191143.45822
  17774453.7844  -31660638.86547 -22921820.18664
 91  3 21  2 20 59.9910000  0  4G15G 2G13G 6
  21190169.3164   -7629007.05445  -5881312.61361
  18529951.0894  -28469467.28248 -22043774.62664
  18084274.112   -22467572.239 7 -17222303.40722
  17771345.3944  -31676966.61747 -22934543.07564
 91  3 21  2 21 14.9910000  0  4G15G 2G13G 6
  21191553.558    -7621737.099 5  -5875647.69321
  18529604.7844  -28471284.93148 -22045190.94664
  18076691.823   -22507413.026 7 -17253348.10222
  17768264.4564  -31693162.83947 -22947163.47064
 91  3 21  2 21 29.9910000  0  4G15G 2G13G 6
  21192962.347    -7614341.665 5  -5869885.01221
  18529265.308   -28473064.678 8 -22046577.73924
  18069135.925   -22547123.130 7 -17284290.97422
  17765203.066   -31709244.700 7 -22959694.76624
 91  3 21  2 21 44.9910000  0  4G15G 2G13G 6
  21194391.105    -7606825.740 5  -5864028.42821
  18528933.042   -28474811.667 8 -22047939.00624
  18061602.878   -22586707.407 7 -17315135.78922
  17762163.3474  -31725216.90147 -22972140.60563
 91  3 21  2 21 59.9910000  0  4G15G 2G13G 6
  21195843.980    -7599187.724 5  -5858076.70921
  18528607.269   -28476523.929 8 -22049273.21124
  18054095.198   -22626163.937 7 -17345881.06422
  17759145.6364  -31741077.28947 -22984499.31963
 91  3 21  2 22 14.9910000  0  4G15G 2G13G 6
  21197327.167    -7591399.657 5  -5852008.06321
  18528293.003   -28478173.301 8 -22050558.41124
  18046616.620   -22665464.634 7 -17376504.91122
  17756153.7064  -31756797.68247 -22996748.93763
 91  3 21  2 22 29.9910000  0  4G15G 2G13G 6
  21198835.776    -7583475.181 5  -5845833.12221
  18527989.0194  -28479773.24348 -22051805.09164
  18039164.2224  -22704622.76847 -17407017.67362
  17753186.7614  -31772391.39147 -23008899.84663
 91  3 21  2 22 44.9910000  0  4G15G 2G13G 6
  21200370.339    -7575408.199 5  -5839547.13621
  18527695.120   -28481317.454 8 -22053008.34624
  18031741.0894  -22743632.06147 -17437414.45862
  17750244.3394  -31787851.93547 -23020946.99464
 91  3 21  2 22 59.9910000  0  4G15G 2G13G 6
  21201929.566    -7567223.295 6  -5833169.26921
  18527406.4334  -28482830.38848 -22054187.22664
  18024340.7374  -22782516.79747 -17467714.18262
  17747324.1674  -31803203.49547 -23032909.21364
 91  3 21  2 23 14.9910000  0  4G15G 2G13G 6
  21203509.472    -7558909.541 5  -5826691.00521
  18527128.136   -28484300.962 8 -22055333.10624
  18016966.7304  -22821265.99647 -17497908.30162
  17744425.3944  -31818434.98147 -23044777.87164
 91  3 21  2 23 29.9910000  0  4G15G 2G13G 6
  21205110.566    -7550490.446 5  -5820130.65021
  18526851.316   -28485752.460 8 -22056464.12724
  18009616.464   -22859902.765 7 -17528014.80422
  17741545.1594  -31833569.41547 -23056570.89764
 91  3 21  2 23 44.9910000  0  4G15G 2G13G 6
  21206737.901    -7541929.810 5  -5813459.99721
  18526585.558   -28487148.589 8 -22057551.99724
  18002291.566   -22898390.630 7 -17558005.27422
  17738689.8624  -31848570.31047 -23068259.87564
 91  3 21  2 23 59.9910000  0  4G15G 2G13G 6
  21208394.456    -7533247.280 5  -5806694.37121
  18526326.378   -28488509.015 8 -22058612.04124
  17994992.300   -22936749.142 7 -17587894.94522
  17735857.2614  -31863457.03247 -23079859.88964
 91  3 21  2 24 14.9910000  0  4G15G 2G13G 6
  21210071.347    -7524434.593 5  -5799827.33121
  18526075.573   -28489824.910 8 -22059637.38724
  17987718.651   -22974969.318 7 -17617676.82522
  17733048.2144  -31878220.66347 -23091363.98263
 91  3 21  2 24 29.9910000  0  4G15G 2G13G 6
  21211771.4334   -7515493.21545  -5792860.00561
  18525833.9484  -28491097.68248 -22060629.12864
  17980472.2144  -23013052.77847 -17647352.18162
  17730260.7924  -31892862.36147 -23102773.06463
 91  3 21  2 24 44.9910000  0  4G15G 2G13G 6
  21213495.894    -7506430.819 5  -5785798.39021
  18525598.894   -28492334.422 8 -22061592.79624
  17973249.2304  -23051006.91547 -17676926.76962
  17727497.4874  -31907389.44447 -23114092.83663
 91  3 21  2 24 59.9910000  0  4G15G 2G13G 6
  21215242.331    -7497244.607 5  -5778640.28921
  18525371.698   -28493532.323 8 -22062526.20324
  17966051.9334  -23088828.72947 -17706398.24362
  17724756.0114  -31921798.71347 -23125320.80763
 91  3 21  2 25 14.9910000  0  4G15G 2G13G 6
  21217015.878    -7487936.649 5  -5771387.32721
  18525150.425   -28494693.560 8 -22063431.04424
  17958879.6364  -23126519.86247 -17735767.89962
  17722036.081   -31936092.008 7 -23136458.41223
 91  3 21  2 25 29.9910000  0  4G15G 2G13G 6
  21218814.784    -7478481.262 5  -5764019.47721
  18524940.620   -28495792.119 8 -22064287.04524
  17951737.464   -23164054.553 7 -17765015.64122
  17719342.3084  -31950243.29147 -23147485.35363
 91  3 21  2 25 44.9910000  0  4G15G 2G13G 6
  21220639.870    -7468891.640 5  -5756547.02921
  18524740.1674  -28496840.99847 -22065104.32464
  17944622.159   -23201445.837 7 -17794151.63422
  17716673.3314  -31964265.60547 -23158411.79963
 91  3 21  2 25 59.9910000  0  4G15G 2G13G 6
  21222488.253    -7459177.680 5  -5748977.69821
  18524547.487   -28497849.779 8 -22065890.35824
  17937531.9414  -23238703.38947 -17823183.43162
  17714028.0584  -31978168.20947 -23169244.96163
 91  3 21  2 26 14.9910000  0  4G15G 2G13G 6
  21224360.8624   -7449337.41245  -5741309.92761
  18524364.230   -28498816.348 7 -22066643.50724
  17930467.6364  -23275824.96647 -17852109.27262
  17711407.1444  -31991948.88347 -23179983.11363
 91  3 21  2 26 29.9910000  0  4G15G 2G13G 6
  21226259.628    -7439359.473 5  -5733534.88821
  18524190.933   -28499729.150 7 -22067354.76824
  17923432.3164  -23312798.78947 -17880919.98162
  17708809.4334  -32005595.89747 -23190617.12263
 91  3 21  2 26 44.9910000  0  4G15G 2G13G 6
  21228182.2534   -7429258.09845  -5725663.66361
  18524025.769   -28500602.126 7 -22068034.99624
  17916422.3394  -23349638.90647 -17909626.50562
  17706235.1674  -32019123.15447 -23201157.80763
 91  3 21  2 26 59.9910000  0  4G15G 2G13G 6
  21230128.237    -7419019.211 5  -5717685.27721
  18523870.6364  -28501421.02647 -22068673.06364
  17909440.6284  -23386330.94247 -17938217.64562
  17703687.1364  -32032516.00847 -23211593.76163
 91  3 21  2 27 14.9910000  0  4G15G 2G13G 6
  21232103.261    -7408648.880 5  -5709604.48521
  18523723.316   -28502191.919 7 -22069273.73224
  17902483.8624  -23422881.15447 -17966698.26462
  17701162.144   -32045780.550 7 -23221929.73823
 91  3 21  2 27 29.9910000  0  4G15G 2G13G 6
  21234099.6364   -7398162.98245  -5701433.63861
  18523582.901   -28502930.204 7 -22069848.99824
  17895552.9094  -23459304.71847 -17995080.20162
  17698658.9954  -32058931.99347 -23232177.59063
 91  3 21  2 27 44.9910000  0  4G15G 2G13G 6
  21236116.1754   -7387551.87745  -5693165.21161
  18523449.7924  -28503626.07548 -22070391.20164
  17888647.8944  -23495591.99047 -18023355.93462
  17696179.5584  -32071960.50947 -23242329.65763
 91  3 21  2 27 59.9910000  0  4G15G 2G13G 6
  21238161.1754   -7376814.89645  -5684798.70661
  18523327.2844  -28504278.47048 -22070899.53264
  17881766.7844  -23531741.96947 -18051524.68862
  17693725.5344  -32084864.81347 -23252384.93163
 91  3 21  2 28 14.9910000  0  4G15G 2G13G 6
  21240228.0894   -7365956.74145  -5676337.76461
  18523210.691   -28504892.008 8 -22071377.59124
  17874914.1984  -23567759.01947 -18079589.86262
  17691291.941   -32097649.330 7 -23262346.86623
 91  3 21  2 28 29.9910000  0  4G15G 2G13G 6
  21242317.6674   -7354969.32545  -5667776.11761
  18523102.183   -28505458.960 8 -22071819.35124
  17868086.9414  -23603635.36147 -18107545.39462
  17688883.0344  -32110306.02547 -23272209.19763
 91  3 21  2 28 44.9910000  0  4G15G 2G13G 6
  21244433.956    -7343852.579 5  -5659113.70021
  18523001.878   -28505978.526 8 -22072224.18424
  17861287.0504  -23639370.25847 -18135390.70562
  17686499.5504  -32122834.11947 -23281971.31963
 91  3 21  2 28 59.9910000  0  4G15G 2G13G 6
  21246571.761    -7332614.575 5  -5650356.78521
  18522912.2224  -28506459.12748 -22072598.64964
  17854512.0344  -23674971.81047 -18163132.10662
  17684139.2694  -32135241.63847 -23291639.48163
 91  3 21  2 29 14.9910000  0  4G15G 2G13G 6
  21248735.073    -7321247.696 5  -5641499.46621
  18522826.1674  -28506892.43748 -22072936.26564
  17847763.6754  -23710431.93247 -18190763.31262
  17681802.9094  -32147520.34747 -23301207.27163
 91  3 21  2 29 29.9910000  0  4G15G 2G13G 6
  21250923.8314   -7309749.91345  -5632540.13461
  18522753.628   -28507276.168 8 -22073235.25524
  17841043.1204  -23745748.41347 -18218282.58862
  17679491.2844  -32159667.86447 -23310672.83463
 91  3 21  2 29 44.9910000  0  4G15G 2G13G 6
  21253135.5734   -7298122.91345  -5623480.11061
  18522692.526   -28507611.570 8 -22073496.57824
  17834349.2844  -23780922.55647 -18245690.95162
  17677203.9174  -32171685.51347 -23320037.20463
 91  3 21  2 29 59.9910000  0  4G15G 2G13G 6
  21255370.198    -7286383.601 5  -5614332.58521
  18522634.519   -28507915.584 8 -22073733.45224
  17827679.1054  -23815971.47147 -18273001.73162
  17674938.7844  -32183589.91247 -23329313.33063
 91  3 21  2 30 14.9910000  0  4G15G 2G13G 6
  21257629.511    -7274510.266 5  -5605080.60521
  18522587.589   -28508165.876 8 -22073928.46224
  17821038.0664  -23850872.63147 -18300197.38062
  17672699.4954  -32195358.62747 -23338483.72863
 91  3 21  2 30 29.9910000  0  4G15G 2G13G 6
  21259910.2144   -7262516.35745  -5595734.70461
  18522546.901   -28508375.934 8 -22074092.12124
  17814422.5814  -23885639.36647 -18327288.27962
  17670482.8704  -32207004.98247 -23347558.78163
 91  3 21  2 30 44.9900000  0  4G15G 2G13G 6
  21262216.631    -7250393.864 5  -5586288.55421
  18522517.3424  -28508536.81048
  17807833.6544  -23920260.55047 -18354265.76062
  17668292.1624  -32218519.14247 -23356530.82063
 91  3 21  2 30 59.9900000  0  4G15G 2G13G 6
  21264550.428    -7238141.181 5  -5576741.00121
  18522492.436   -28508648.226 8
  17801272.0924  -23954740.40147 -18381133.11062
  17666123.9434  -32229902.15747 -23365400.67563
 91  3 21  2 31 14.9900000  0  4G15G 2G13G 6
  21266905.2484   -7225758.35445  -5567092.00961
  18522482.412   -28508709.301 8
  17794738.3034  -23989075.81247 -18407887.91162
  17663984.4514  -32241152.43147 -23374167.09263
